GFSNW_con_lsi_000.txt.gz
Lid_Strength_Index
2 2 2 3 4 4 5 8 10 6 5 10 12 12 10 9 9 7 8 9 9 11 11 12 12 12 10 8 9 11 11 14 17 14 11 10 11 12 13 18 18 18 20 17
2 2 3 4 4 5 6 7 8 5 6 13 16 10 9 9 9 9 9 10 9 9 11 13 11 10 8 8 9 11 11 14 18 16 13 12 12 12 12 15 16 16 20 17
2 2 4 4 4 4 6 8 11 8 8 9 10 11 11 10 8 8 8 9 9 9 11 10 12 11 8 8 8 7 9 13 15 18 15 14 14 13 12 13 16 16 16 14
2 4 4 3 3 4 5 8 11 9 13 11 10 9 10 10 11 8 8 9 9 10 13 12 14 11 10 9 8 9 10 14 14 13 12 13 12 13 12 14 14 16 14 14
3 4 4 3 3 4 6 7 9 9 9 9 10 11 11 10 10 9 10 10 10 10 12 11 14 11 11 11 9 11 11 15 15 15 13 13 15 13 12 13 13 13 12 13
3 4 5 4 3 4 6 7 8 8 12 13 13 13 10 10 9 9 8 8 10 13 9 8 8 8 8 9 11 12 12 16 16 19 15 16 18 15 14 13 12 13 15 12
2 4 4 4 4 4 5 6 8 11 14 16 12 9 9 9 9 9 8 8 11 9 7 8 9 10 12 11 10 9 15 17 17 19 15 20 14 12 12 13 12 11 12 12
2 4 4 4 4 4 4 6 7 10 14 12 11 9 9 9 9 9 8 7 7 7 9 13 15 16 16 15 11 12 12 14 16 17 17 16 13 12 14 14 14 12 12 10
3 3 3 3 4 4 3 5 7 8 12 11 8 9 9 12 13 12 10 7 7 8 15 15 19 20 17 16 14 12 13 16 17 17 18 19 14 12 11 10 16 11 9 9
3 3 3 3 3 3 4 4 5 7 11 9 8 11 10 9 12 12 12 10 11 10 15 16 19 18 15 17 19 19 17 16 15 15 17 17 12 11 10 15 15 10 10 9
3 3 3 3 3 3 4 4 4 5 10 8 6 6 8 9 10 12 10 10 12 12 13 16 16 21 16 17 15 16 16 19 20 18 18 19 11 10 13 10 9 8 8 9
4 3 3 3 3 3 3 5 4 4 7 7 5 5 5 5 6 8 10 10 11 12 13 14 16 18 16 15 15 13 16 14 14 13 15 11 9 8 8 8 8 9 9 8
4 4 3 3 3 3 3 5 5 6 11 8 7 7 5 3 4 4 9 13 9 10 10 13 14 17 15 14 14 15 11 9 12 12 11 9 7 7 7 7 7 8 8 8
4 4 4 4 3 3 4 5 6 6 10 13 10 6 6 4 3 5 5 6 7 8 10 13 14 13 10 13 11 12 10 9 11 11 8 9 8 8 8 8 8 8 7 7
3 3 4 4 3 4 4 5 4 4 6 11 10 7 5 4 4 5 6 6 7 9 11 13 12 12 12 13 12 12 9 10 12 12 8 8 7 7 7 8 8 7 7 8
4 3 3 3 3 3 4 6 5 4 3 9 12 8 9 7 6 6 7 6 7 8 9 12 10 8 10 13 13 10 8 7 6 8 6 6 7 8 8 9 9 8 8 8
5 5 4 3 3 2 4 6 6 4 5 11 12 12 12 9 8 8 8 8 9 9 9 11 11 11 8 13 12 9 8 7 7 6 7 9 9 9 8 8 8 8 8 8
5 5 5 4 3 4 5 5 4 3 6 9 12 12 13 10 12 12 10 12 11 9 9 11 12 11 12 13 9 9 8 8 8 9 8 9 7 7 8 9 9 10 10 9
5 5 5 5 6 8 7 5 4 5 6 10 13 13 13 9 11 12 13 12 13 11 13 13 11 13 13 11 11 11 10 10 10 9 9 9 11 11 10 10 10 10 10 9
5 6 8 12 10 5 5 7 9 10 11 11 13 12 13 9 13 13 13 13 13 14 13 12 13 13 10 11 10 10 10 10 10 11 11 11 11 11 10 9 9 9 9 8
7 10 12 8 5 8 10 13 12 12 13 13 13 13 12 10 13 13 13 14 14 18 18 14 15 16 13 12 12 11 11 10 10 10 10 9 9 9 9 9 9 9 9 9
7 7 7 8 9 12 12 14 14 13 15 13 13 12 11 12 10 13 13 15 15 18 16 16 20 16 13 12 12 11 10 10 10 10 9 9 8 8 8 8 8 9 9 11
7 9 11 10 12 14 14 17 15 15 14 13 13 13 12 12 12 13 14 18 19 17 19 19 17 13 13 12 11 10 10 11 11 10 10 9 9 9 10 9 9 10 10 9
12 13 13 14 16 15 15 15 18 16 13 13 13 13 14 14 15 16 19 18 18 18 21 20 17 13 12 12 11 11 10 12 12 10 9 10 10 10 10 11 11 11 10 9
13 14 17 15 15 14 13 12 12 12 12 12 13 14 15 16 18 16 19 18 19 17 19 19 15 12 11 11 10 10 11 12 12 9 10 11 11 11 10 9 10 10 11 10
13 15 18 14 13 13 12 12 12 10 11 13 14 18 18 19 20 21 19 20 20 19 20 16 14 11 10 10 10 10 10 10 9 8 9 9 11 11 8 8 9 10 10 10
16 18 13 17 17 16 15 11 11 10 11 15 17 21 20 19 23 22 18 20 18 18 16 14 11 10 9 9 9 10 9 9 9 9 9 9 9 10 11 11 8 8 8 10

GFSNW_con_lsi_003.txt.gz
Lid_Strength_Index
2 2 3 3 3 4 6 7 8 4 4 9 11 11 9 8 8 7 8 8 8 9 9 11 11 11 9 8 7 10 9 11 13 12 9 8 9 10 11 15 16 14 16 15
2 2 4 5 4 5 6 7 7 5 5 12 13 9 8 8 8 9 8 8 8 8 10 12 10 9 7 7 7 9 8 12 15 14 11 10 11 10 11 12 13 15 17 14
2 3 4 4 5 4 6 7 10 8 8 8 9 10 10 9 7 8 8 8 7 9 10 9 11 10 7 7 7 7 7 11 13 15 14 12 13 11 11 11 15 14 14 12
2 4 4 4 4 4 5 7 9 8 11 9 9 9 9 9 9 7 7 8 8 9 12 11 11 9 8 7 7 7 8 13 12 11 11 11 12 12 11 12 12 15 13 12
3 3 3 3 3 4 6 7 8 8 9 9 9 10 9 9 8 8 8 9 8 8 10 10 11 9 9 9 8 9 9 12 12 14 12 12 14 12 12 11 11 12 11 12
3 3 4 3 3 4 5 6 7 7 11 11 11 11 9 8 8 8 7 7 9 10 8 7 6 6 7 7 8 10 10 12 14 15 14 14 15 13 12 11 11 11 13 10
2 4 4 3 4 4 4 6 8 10 13 13 11 9 8 9 8 8 7 7 9 7 5 6 7 9 10 9 9 9 13 14 14 15 14 19 11 10 10 11 11 10 11 10
2 3 3 3 4 3 4 6 7 9 14 12 11 9 9 8 8 8 7 6 7 6 8 11 13 13 14 13 11 11 11 13 15 16 16 14 11 10 11 12 12 10 10 8
3 3 3 3 4 4 3 5 6 8 11 10 8 9 8 11 11 10 8 6 6 7 12 12 15 15 14 13 13 12 12 13 13 15 18 19 12 10 9 9 13 9 8 8
3 3 3 3 3 4 3 4 5 6 10 8 7 9 9 9 10 10 10 8 9 8 12 14 14 14 13 14 16 17 15 15 15 14 16 14 10 10 9 15 13 9 8 7
3 3 3 3 3 3 3 4 4 5 9 7 5 6 8 8 9 10 9 9 10 11 13 13 13 14 13 13 13 14 14 15 16 16 16 17 10 10 11 8 8 8 8 8
3 3 3 3 3 3 3 4 4 4 6 6 4 3 4 4 6 8 9 8 9 9 12 12 13 14 15 14 15 12 14 12 13 13 12 9 9 8 7 7 8 8 8 8
4 4 4 3 3 3 3 4 5 6 10 7 6 6 4 3 3 3 7 9 7 8 7 10 12 13 13 14 14 13 11 10 11 11 9 8 7 7 6 7 7 8 7 8
4 4 4 4 3 3 3 4 5 6 9 12 9 6 5 3 2 3 4 5 6 7 8 12 13 13 9 12 10 11 9 9 11 11 8 8 7 6 6 7 7 7 7 7
3 4 4 4 3 4 4 4 4 4 5 11 10 6 5 4 3 4 4 5 6 8 10 12 12 10 10 11 12 12 9 9 11 11 8 8 8 6 6 8 8 8 8 8
4 3 3 3 3 4 4 6 5 4 4 10 11 7 8 6 5 4 5 5 6 7 8 12 9 7 9 13 13 9 8 7 6 8 7 8 8 8 7 9 9 8 8 8
4 3 3 3 4 2 4 6 5 4 5 11 12 11 10 8 7 7 7 6 7 7 8 11 10 9 8 13 13 9 7 7 7 7 8 10 9 10 9 8 8 8 8 8
4 4 4 4 4 3 4 4 4 4 6 8 12 12 11 8 10 11 9 10 9 8 9 11 11 11 11 13 9 9 9 8 9 9 8 8 9 9 9 8 8 9 9 8
4 4 4 4 5 7 6 4 4 4 5 10 12 12 12 9 11 11 11 11 13 10 13 12 11 12 13 11 11 11 10 9 10 10 10 10 9 9 8 8 8 9 8 8
4 5 7 11 9 5 4 6 8 9 10 10 13 11 12 8 12 12 12 13 13 13 13 12 13 13 11 11 10 10 10 10 9 11 11 10 9 9 9 8 7 8 8 7
7 10 12 8 5 7 9 12 12 12 13 12 12 12 12 10 12 13 13 13 13 16 15 14 14 14 13 11 11 11 10 10 9 9 8 9 9 9 9 8 8 8 8 7
7 7 7 8 9 11 12 13 13 13 14 13 13 13 11 12 10 12 13 14 14 18 15 15 16 14 12 11 11 10 10 10 10 9 10 10 9 8 8 8 8 8 8 8
7 9 12 10 12 14 14 15 14 14 13 13 13 13 12 12 11 13 14 16 17 16 17 17 15 13 13 12 11 10 9 10 11 10 9 9 9 8 10 9 8 9 8 7
12 12 14 14 14 14 16 16 15 14 12 12 12 14 13 14 14 15 17 17 17 18 19 18 15 13 12 11 10 10 10 12 12 10 9 10 10 10 10 11 10 10 9 8
14 13 15 15 15 13 12 12 12 12 11 12 13 14 13 16 16 17 18 18 18 17 17 16 14 12 11 10 10 10 11 12 11 8 9 10 10 10 9 8 8 8 9 9
13 15 16 15 15 14 12 12 12 11 12 13 14 17 16 17 17 18 19 19 19 16 16 14 13 11 10 10 10 10 9 10 9 8 8 8 9 10 8 8 8 9 9 9
15 17 14 16 15 14 13 12 11 10 12 15 16 17 17 17 19 19 17 18 15 15 14 14 12 10 9 9 9 11 10 9 8 8 8 8 8 9 9 9 6 7 6 7

GFSNW_con_lsi_006.txt.gz
Lid_Strength_Index
2 3 4 3 3 4 2 2 6 0 -1 6 5 7 7 7 6 5 6 6 7 9 9 10 10 10 8 6 6 9 7 9 11 10 8 7 8 9 10 12 15 13 14 13
2 4 4 4 4 4 1 4 4 0 1 10 9 7 7 6 7 7 7 8 7 7 9 11 9 9 6 6 7 8 7 10 12 11 10 8 10 9 9 10 11 14 16 13
3 4 5 5 4 5 0 3 9 4 3 4 6 8 8 8 6 6 6 7 6 7 9 8 10 9 7 6 6 7 6 9 11 13 12 10 11 10 9 10 14 13 13 11
4 3 5 5 4 5 1 3 6 5 9 7 6 6 7 8 8 6 6 7 7 8 10 9 10 8 8 6 6 6 7 11 10 9 9 9 10 10 9 10 10 13 11 10
4 4 3 4 4 4 1 5 6 4 6 6 6 8 8 8 8 7 8 8 7 7 8 8 9 8 8 8 7 7 7 11 11 12 10 10 11 9 9 9 9 10 10 10
3 3 3 3 3 2 2 2 3 3 8 7 7 8 7 7 6 6 6 6 7 9 7 5 5 5 6 6 7 9 9 11 12 16 11 11 15 11 10 9 9 9 11 9
3 3 3 3 4 2 0 1 2 6 9 7 7 7 6 7 6 7 6 5 8 5 3 4 4 5 6 6 7 6 11 11 12 15 14 18 10 7 8 9 8 8 8 8
2 2 3 3 4 3 0 1 2 5 12 6 7 6 6 6 5 6 6 6 4 3 5 8 12 10 12 10 8 8 7 10 14 16 15 12 10 9 9 10 9 7 8 7
2 3 3 3 3 3 -0 1 2 3 9 8 5 6 6 7 7 7 7 4 3 4 7 10 15 14 12 11 10 9 9 9 12 14 17 18 10 8 7 7 12 7 7 7
2 2 3 3 3 4 -0 1 1 2 6 4 4 6 6 5 6 7 7 6 6 4 10 14 14 13 10 12 14 14 12 12 14 14 16 13 8 8 7 14 13 6 8 8
2 3 3 3 3 3 0 1 0 2 5 4 4 4 5 5 5 8 6 7 7 8 13 13 12 13 11 11 10 11 12 13 14 13 16 17 8 8 12 8 6 7 7 6
3 3 3 3 3 3 2 2 1 1 3 4 1 2 2 2 2 4 5 6 6 6 9 10 11 12 12 12 14 8 12 9 11 11 11 6 6 7 5 6 7 6 7 6
3 3 3 3 3 3 1 0 0 0 4 4 4 4 2 0 1 0 6 4 4 5 4 7 9 13 9 14 12 11 8 6 9 10 7 6 6 5 5 6 7 7 7 7
3 3 3 3 3 3 2 0 1 1 4 11 6 3 3 1 0 1 1 3 3 3 3 10 11 12 6 11 9 9 7 7 8 9 7 6 6 6 6 6 7 7 7 7
4 3 3 3 3 3 0 -1 -0 -0 3 9 6 3 3 2 1 2 1 2 3 5 8 11 11 7 8 8 9 10 6 8 10 12 7 7 7 7 6 7 7 7 8 8
3 3 3 3 3 3 -0 3 0 0 -0 6 11 3 5 3 2 2 3 3 3 4 7 9 6 5 7 12 12 8 6 5 5 7 7 7 7 7 6 7 8 8 8 7
3 3 3 3 3 -1 2 4 2 3 0 7 10 8 6 6 4 4 3 3 3 5 6 8 7 7 6 12 12 7 6 6 6 6 7 8 7 8 8 8 8 7 7 6
4 3 3 3 3 3 2 1 3 1 3 5 10 10 8 6 7 8 6 7 5 5 7 8 8 7 8 12 7 8 8 8 8 7 6 7 7 8 8 7 7 8 8 7
4 4 4 3 4 5 4 4 3 1 2 8 11 11 12 6 9 8 7 6 10 7 11 10 9 11 12 9 8 10 9 8 9 8 8 8 9 9 8 8 8 8 8 7
4 4 6 11 8 5 4 5 6 7 8 8 10 6 10 6 9 10 9 10 11 12 12 10 13 12 10 10 9 9 8 8 8 9 10 9 10 9 9 9 8 7 7 7
7 10 11 7 5 6 8 11 11 11 12 11 11 11 11 8 10 11 11 13 12 13 12 12 12 12 10 9 8 8 7 7 8 8 9 9 9 9 8 8 7 7 7 7
7 7 6 7 8 11 12 13 13 13 13 12 12 12 10 11 9 11 13 12 13 14 11 13 14 10 9 9 9 8 8 8 9 9 9 8 8 7 7 7 7 7 7 7
6 9 12 11 13 13 13 14 13 13 12 12 12 13 11 11 11 13 12 13 14 11 15 14 11 10 9 9 8 8 8 9 9 9 8 7 7 7 7 7 7 7 6 6
10 12 14 13 13 12 12 11 11 12 11 11 11 13 11 12 13 12 14 14 13 15 16 15 11 10 10 10 9 9 9 9 10 9 8 7 7 7 7 7 7 7 7 6
12 11 14 13 13 12 12 11 11 11 10 11 12 12 11 13 14 13 14 16 16 15 14 11 10 10 10 9 9 9 9 9 9 8 7 7 7 7 7 6 5 5 6 6
11 12 13 13 13 13 12 12 12 11 12 11 11 13 13 14 13 15 15 15 15 13 11 9 9 10 9 9 8 9 8 8 8 7 7 7 7 7 6 5 6 6 6 6
12 13 12 12 11 11 11 10 11 10 11 12 12 14 14 14 15 15 14 14 12 10 10 9 9 9 8 8 8 8 7 7 7 7 6 6 5 6 6 6 4 4 4 5

GFSNW_con_lsi_009.txt.gz
Lid_Strength_Index
2 4 3 3 4 3 3 1 6 -0 -1 5 5 7 6 6 6 5 6 6 7 8 8 9 9 9 8 5 6 8 7 8 11 9 7 6 7 9 9 12 13 12 13 13
3 4 4 4 4 4 0 3 4 -0 1 9 8 6 6 6 6 6 6 7 6 6 8 10 8 8 6 5 6 8 7 9 12 10 9 7 9 8 8 9 10 13 16 13
3 4 4 3 4 4 1 3 8 4 3 3 6 7 7 8 5 6 6 6 6 7 8 7 9 8 7 6 6 7 6 8 10 13 10 8 10 9 8 9 13 13 12 10
3 4 4 4 4 5 1 2 6 4 8 7 6 6 6 8 8 6 5 7 7 7 10 9 9 7 7 6 7 6 7 11 9 9 8 8 9 9 9 10 9 12 11 10
3 4 4 4 4 5 1 4 5 3 5 5 6 7 7 7 7 6 7 7 6 6 8 7 9 7 7 7 6 7 7 11 10 11 8 9 10 9 9 9 9 9 9 9
3 3 3 4 4 3 1 1 1 3 6 6 7 7 6 6 6 6 5 5 6 8 6 5 5 5 5 6 7 8 9 10 12 15 11 11 15 10 9 9 8 8 11 8
3 2 3 3 4 3 0 1 1 6 8 7 7 6 6 6 6 7 5 4 7 5 3 3 4 5 5 6 6 6 10 11 12 15 14 19 10 6 7 8 7 7 7 6
2 2 3 3 4 3 -0 -1 2 5 14 6 6 6 6 5 5 6 6 5 4 2 4 8 11 10 11 10 7 7 6 10 14 16 14 11 9 8 8 9 9 6 7 7
2 2 2 3 4 3 -1 0 -0 2 9 8 5 6 5 7 7 7 6 4 2 3 7 10 15 14 11 11 10 7 8 8 11 14 17 18 10 7 6 6 12 6 6 7
2 2 2 3 3 3 -0 0 -1 2 6 4 4 6 6 4 5 7 6 6 6 4 10 14 14 12 9 12 14 14 13 12 15 14 16 12 7 7 6 13 12 6 6 7
2 2 2 3 3 4 1 0 -1 2 5 4 3 3 5 5 5 8 6 7 6 7 12 13 12 14 10 11 9 11 12 14 15 13 16 17 6 7 11 7 5 6 6 6
2 2 2 2 3 3 3 1 -1 -1 2 4 1 1 1 2 2 4 5 6 6 6 9 10 10 13 12 11 13 7 11 9 10 11 11 6 5 6 4 5 6 6 7 7
2 2 2 2 2 2 2 -0 -1 -0 4 3 3 4 1 -0 0 -0 5 4 4 5 3 7 9 13 9 14 11 9 7 5 9 9 7 6 6 5 4 5 6 6 7 6
2 2 2 2 3 2 2 0 -1 0 3 11 5 2 2 0 0 1 1 2 2 3 3 8 10 12 6 10 8 8 7 6 8 9 6 6 5 5 5 6 5 6 6 7
3 3 3 3 2 2 -0 -1 -1 -1 3 9 6 2 2 1 1 2 1 2 3 5 7 10 10 6 7 7 8 9 6 7 10 11 6 7 6 5 5 5 6 6 7 7
4 3 3 2 2 3 0 3 -1 -1 -0 5 10 3 3 2 2 2 3 3 3 4 6 8 6 4 6 12 11 6 5 4 4 6 5 5 6 6 5 6 7 7 7 7
4 3 3 3 3 -1 2 3 1 2 -1 6 9 8 4 3 3 3 3 3 4 4 6 7 7 6 6 11 12 6 5 4 5 5 5 8 7 7 6 7 7 7 7 7
4 4 3 3 3 3 2 -0 2 1 2 3 10 9 7 4 6 7 3 5 5 5 6 7 8 6 8 12 7 5 5 6 6 7 6 7 6 6 7 7 7 8 8 8
4 4 4 2 2 3 2 4 2 -1 2 7 10 11 12 4 7 7 7 6 10 5 10 8 7 10 12 8 6 6 6 7 8 7 6 6 8 8 8 8 8 9 8 8
5 4 6 10 7 4 3 1 4 5 4 4 9 6 10 5 8 10 9 8 10 11 9 9 12 11 7 6 6 6 6 5 6 8 8 9 9 10 9 9 8 8 8 7
6 9 11 7 5 5 7 10 10 9 11 9 8 7 8 5 9 11 10 11 11 13 11 11 11 11 8 6 7 6 6 6 6 7 8 9 9 9 9 8 8 8 7 7
7 7 6 7 8 11 10 12 13 12 11 11 12 10 8 9 8 11 13 13 12 14 9 12 13 9 7 7 7 7 6 7 8 9 9 9 8 8 7 7 8 7 7 7
6 10 12 12 13 14 14 15 13 13 13 12 12 13 12 11 11 13 12 13 12 10 13 13 10 8 8 7 7 7 7 8 9 9 9 8 8 7 8 8 7 7 6 5
11 13 14 13 14 13 12 12 12 12 11 12 12 13 12 12 13 12 13 13 11 14 15 13 9 8 7 7 7 7 8 9 10 9 8 8 7 7 7 8 7 8 7 5
11 11 14 13 12 12 12 12 12 11 10 10 10 10 10 12 13 12 13 15 15 14 12 10 8 8 8 9 9 9 10 10 9 8 8 8 8 7 7 6 5 5 6 6
10 11 12 12 12 13 12 12 13 10 10 9 9 12 12 13 12 14 14 14 15 12 10 8 9 9 9 9 8 8 8 8 8 8 8 7 7 7 6 5 5 6 6 6
9 11 10 10 11 11 12 10 10 9 10 12 11 13 14 13 14 14 11 13 10 9 9 8 8 8 8 7 7 8 8 7 7 7 6 6 5 5 5 6 4 4 4 5

GFSNW_con_lsi_012.txt.gz
Lid_Strength_Index
3 4 3 3 3 2 2 2 6 0 -1 6 6 8 6 7 6 5 6 6 7 8 8 9 9 9 8 5 6 8 7 8 12 9 7 6 7 9 9 15 14 14 14 14
4 4 3 4 3 3 1 4 5 0 1 9 9 6 6 5 6 6 6 7 6 6 8 10 8 8 6 5 6 8 7 10 14 12 9 7 9 8 8 9 11 14 17 14
4 4 3 4 4 3 2 4 8 4 3 4 7 8 7 8 5 6 6 6 6 7 8 7 9 9 7 5 6 6 6 8 10 13 11 9 10 9 8 9 15 14 13 11
4 4 4 3 4 4 1 4 6 4 8 7 6 6 6 8 8 6 5 7 7 8 9 9 9 8 7 6 6 6 7 11 10 9 9 8 9 9 9 10 10 13 11 10
4 4 3 3 4 5 2 5 5 4 6 5 6 7 7 7 7 7 7 7 6 6 9 8 9 7 7 8 6 7 7 12 10 11 8 9 10 9 9 9 9 9 9 10
3 3 4 4 4 3 2 2 2 4 6 6 7 7 7 7 6 6 5 6 6 8 7 5 5 5 5 6 7 8 9 11 13 15 11 12 16 11 9 9 8 8 12 8
2 2 4 4 4 4 1 2 2 6 8 7 7 6 6 6 6 7 5 5 7 5 3 4 4 5 6 6 6 6 10 11 13 15 14 19 10 6 7 8 8 7 7 7
2 2 3 4 4 4 0 0 2 5 13 7 6 6 6 5 5 6 6 5 4 3 4 9 11 11 11 10 7 7 7 10 14 17 15 12 10 8 9 10 10 7 8 7
3 2 2 3 4 4 -0 1 0 3 9 8 5 6 5 7 7 7 6 4 2 3 8 11 15 15 11 12 10 7 8 9 12 15 17 18 10 7 6 6 13 7 7 7
2 3 2 3 3 4 1 1 -1 3 6 4 4 6 7 5 6 8 6 6 6 4 10 14 15 13 9 13 14 14 13 12 15 15 15 13 7 6 5 13 13 7 6 6
2 2 3 3 3 4 2 1 -1 2 5 4 3 3 5 5 5 9 6 7 7 9 12 13 12 14 11 11 9 12 13 14 15 14 16 17 6 6 11 8 6 6 6 6
2 2 3 2 2 3 4 2 -1 -0 3 4 1 2 1 2 3 4 5 6 7 7 10 11 10 13 12 12 14 7 12 10 12 11 12 6 5 6 5 5 6 6 6 6
2 2 2 2 2 2 3 1 0 1 4 4 4 4 1 0 1 0 6 5 4 5 4 8 9 13 10 14 12 9 7 5 10 10 7 6 6 5 5 4 5 6 6 6
3 2 2 2 2 2 3 1 -0 1 4 11 6 1 2 0 0 1 1 2 3 3 4 9 11 12 7 11 9 10 8 7 8 9 7 6 6 5 5 5 5 6 6 6
3 3 3 3 2 2 1 -1 -0 -0 4 9 6 3 2 1 1 2 2 3 4 5 8 11 10 7 8 8 8 10 7 8 10 11 6 7 7 5 5 6 6 6 7 8
3 3 3 2 3 3 1 4 0 -1 0 6 10 3 3 2 2 3 3 3 3 5 7 9 7 5 7 12 12 7 5 4 4 6 5 5 5 5 5 6 6 7 7 7
4 3 3 3 3 -0 3 4 3 3 0 6 9 8 4 3 3 3 4 3 4 5 6 8 7 7 6 11 12 7 5 4 4 4 5 7 6 7 6 7 7 7 7 8
4 4 3 3 3 3 2 0 1 2 2 4 10 10 7 3 6 8 4 6 5 6 6 7 8 7 8 12 7 6 5 4 5 5 5 6 6 6 6 7 8 9 9 9
5 4 4 2 2 3 2 4 2 -1 3 8 11 11 12 4 7 7 6 5 10 5 10 9 8 10 12 8 7 6 5 5 6 6 6 6 6 7 8 9 9 10 10 9
5 4 6 10 7 4 3 2 4 5 4 5 9 6 10 6 8 10 9 9 10 12 9 8 12 10 6 5 5 4 5 5 6 7 8 8 8 9 10 10 9 9 9 9
6 9 11 7 5 4 6 8 9 8 10 8 7 7 9 5 9 10 9 11 11 13 11 11 12 12 8 6 5 5 5 5 5 6 6 8 9 10 9 9 8 9 9 9
7 7 6 7 9 11 11 12 12 12 11 10 12 10 7 8 5 9 11 12 13 14 10 13 13 9 7 6 7 6 6 6 7 8 9 9 9 9 8 8 9 9 9 10
7 10 12 11 14 14 14 14 14 13 13 12 12 13 11 11 10 13 13 14 13 11 13 14 11 8 8 7 7 7 7 9 9 9 9 9 9 9 9 9 9 10 9 8
11 13 14 13 14 13 13 13 13 13 12 12 12 13 12 13 13 13 14 13 12 14 15 14 9 8 8 7 7 7 9 12 11 10 9 10 9 9 10 10 10 10 9 7
10 11 14 13 13 12 13 13 12 12 11 12 13 13 12 13 14 13 13 15 15 14 13 11 9 8 8 9 8 10 11 12 11 9 10 11 10 10 9 8 7 7 8 8
8 10 12 12 12 13 13 13 13 10 11 10 10 13 13 13 13 14 14 14 15 12 10 9 9 10 9 9 9 9 9 9 9 9 9 9 9 10 7 7 7 8 7 7
10 10 9 10 10 11 11 10 10 8 11 12 11 13 15 13 14 14 12 13 11 9 8 9 9 9 9 9 8 10 9 8 8 7 7 7 7 7 7 7 6 5 5 6

GFSNW_con_lsi_015.txt.gz
Lid_Strength_Index
3 3 3 3 2 2 1 4 9 2 1 8 8 11 8 8 6 5 6 7 8 9 9 10 10 11 9 6 7 9 9 10 15 11 8 7 9 10 10 16 16 16 17 15
4 4 3 3 3 3 3 6 7 2 3 12 12 8 7 6 7 7 7 8 7 7 9 12 10 9 7 6 7 9 8 12 16 14 11 9 10 9 9 11 14 15 20 16
4 4 4 4 3 3 3 6 10 7 6 6 9 9 9 8 6 6 6 7 7 8 9 8 11 10 7 6 7 7 7 10 13 16 13 11 12 10 10 11 16 16 15 13
4 3 3 4 3 3 3 6 8 6 10 10 8 8 8 9 9 6 6 8 8 9 12 10 11 9 8 7 7 7 8 13 11 10 10 10 10 11 10 11 11 15 13 12
4 3 3 4 4 5 4 7 8 6 7 8 9 9 9 9 8 8 8 9 8 8 10 10 11 9 9 10 8 9 8 14 14 14 10 10 12 10 10 10 10 11 11 11
4 3 3 3 4 4 4 4 4 6 9 8 10 10 8 8 7 7 6 7 9 10 8 7 7 6 7 7 9 10 11 13 15 17 12 13 17 13 10 10 9 10 14 10
2 4 4 4 4 4 2 3 4 8 11 10 9 7 7 8 7 8 7 6 9 6 5 6 7 8 8 7 8 7 11 13 15 18 17 21 12 8 8 10 9 9 9 8
2 3 4 4 4 4 2 2 4 8 13 9 8 7 7 7 7 8 7 6 6 5 6 11 13 14 14 11 8 8 8 13 17 17 18 14 11 9 10 11 11 8 9 8
2 3 4 5 4 5 1 2 3 5 10 9 6 8 7 9 10 9 8 5 4 5 11 14 16 16 13 14 11 8 9 12 15 18 21 23 13 8 7 8 15 8 8 8
3 3 3 3 4 5 2 2 1 4 8 6 6 8 8 7 8 10 8 8 9 6 13 13 15 15 10 15 15 16 16 16 18 15 22 16 9 7 6 15 14 8 8 8
3 3 3 3 3 5 3 2 2 3 7 6 4 4 7 7 7 11 8 9 9 12 13 15 14 16 14 13 11 13 15 17 16 14 17 19 7 8 12 9 8 7 8 8
2 3 3 3 3 3 5 3 2 2 5 6 3 4 4 4 5 6 6 8 8 8 11 12 13 13 13 14 16 9 14 12 14 13 14 9 7 8 7 6 7 7 8 7
3 2 3 3 3 3 5 2 2 3 7 5 5 6 3 2 3 3 7 7 5 7 5 9 10 14 11 16 14 13 9 7 12 11 9 8 8 6 5 6 7 6 6 6
3 2 3 4 3 4 4 3 2 3 6 12 7 3 4 1 2 2 3 4 4 4 8 12 11 14 8 13 11 13 9 8 10 11 8 8 7 6 6 6 6 6 6 6
4 4 4 3 3 4 3 1 1 2 5 10 11 4 3 2 2 3 3 4 5 8 11 13 12 12 10 13 13 13 8 9 11 13 8 8 8 7 6 6 6 6 6 8
4 3 3 3 3 4 3 5 2 2 3 8 11 5 5 4 4 4 5 4 5 6 10 12 8 6 9 13 14 8 6 5 6 8 6 6 6 6 5 6 6 6 8 9
4 3 3 3 3 3 5 5 4 4 3 9 11 10 5 5 5 6 5 4 6 6 9 10 12 9 8 13 13 8 6 6 6 5 6 8 6 7 6 7 7 8 9 10
3 3 3 3 3 4 4 3 3 4 4 7 10 10 10 5 10 11 7 10 8 7 8 9 11 10 11 13 8 7 6 5 6 6 6 6 6 6 7 7 9 11 11 11
3 4 3 1 3 6 4 4 3 1 4 10 12 12 13 6 9 10 10 8 12 8 12 11 9 12 12 9 8 7 6 7 7 6 6 6 7 7 9 11 11 12 12 12
4 4 5 10 7 4 4 3 7 9 9 7 11 8 11 7 11 12 11 12 12 13 12 9 13 12 8 7 6 6 6 6 6 8 9 8 9 11 11 11 11 11 12 11
6 9 11 8 5 5 8 11 11 10 12 9 9 10 10 8 11 12 11 12 12 13 13 12 13 13 10 8 7 7 6 6 6 7 9 10 11 11 11 11 12 12 12 12
7 7 6 7 9 11 11 12 13 12 12 12 12 11 10 11 8 12 12 12 13 15 11 13 15 13 9 8 8 7 7 8 9 10 10 10 10 10 12 12 12 12 11 13
7 9 12 10 13 14 14 14 14 13 13 13 13 13 13 12 11 13 13 13 14 12 14 15 15 9 9 8 11 11 11 11 11 10 10 10 11 11 12 13 12 13 11 10
11 12 14 13 14 14 14 14 13 13 13 13 13 13 13 13 13 13 14 14 14 15 17 18 12 10 9 9 10 11 12 13 12 12 12 12 12 12 13 13 13 15 12 10
11 11 13 14 13 13 13 13 13 13 12 12 13 13 12 14 14 14 15 16 16 15 15 14 12 11 11 12 11 12 13 14 13 11 12 14 14 13 11 11 11 10 12 10
10 11 13 12 12 13 13 13 13 11 12 12 12 13 13 14 14 15 15 15 16 14 13 12 12 12 12 11 11 11 11 11 11 11 11 11 13 14 10 10 10 10 9 10
9 10 9 10 11 12 12 12 12 10 12 13 13 14 15 14 15 15 13 14 13 12 12 12 11 11 11 10 10 11 11 10 10 10 10 10 10 11 10 10 8 8 7 8

GFSNW_con_lsi_018.txt.gz
Lid_Strength_Index
4 4 3 2 2 2 2 6 9 4 5 9 9 11 8 8 7 6 7 7 8 9 9 11 11 11 9 7 7 10 10 11 16 12 9 8 10 11 11 16 16 16 17 16
4 4 3 3 2 2 3 6 7 3 7 12 13 8 7 7 8 7 8 8 8 8 10 12 10 10 7 7 8 10 9 12 16 14 11 9 11 10 10 12 15 16 20 17
4 3 3 3 3 3 4 6 10 7 6 8 9 10 9 9 6 7 7 8 7 9 10 9 11 10 8 7 8 7 8 11 13 16 14 12 13 12 10 12 17 16 16 13
4 3 3 3 3 3 3 6 9 9 11 9 9 9 8 9 10 7 7 8 8 9 13 11 12 10 9 7 7 8 9 13 12 11 11 11 12 12 12 12 12 15 13 12
4 3 3 4 3 3 4 7 8 7 9 9 9 9 9 9 8 8 9 9 8 8 11 10 12 9 10 10 8 10 9 14 13 14 11 11 13 11 11 12 11 12 12 13
3 3 3 4 4 4 5 4 5 6 8 11 10 10 9 9 7 7 7 8 9 11 9 8 8 8 7 8 9 11 11 14 16 17 13 13 17 12 11 11 11 11 14 11
3 3 4 4 4 4 2 3 5 8 12 10 9 8 7 8 8 9 7 7 9 7 6 8 8 9 8 8 8 8 12 14 17 19 18 22 12 9 9 10 10 9 9 9
3 4 4 4 5 5 4 3 5 9 14 9 9 8 8 8 7 8 8 7 7 6 8 14 14 15 13 12 9 9 9 15 17 20 18 16 12 10 10 12 12 9 9 9
4 4 4 4 5 4 4 4 4 7 10 11 7 8 8 10 10 9 8 5 5 7 14 16 17 18 15 14 12 9 10 13 16 17 22 23 15 9 8 9 15 8 8 9
4 4 4 4 5 5 2 3 4 5 9 7 7 9 9 7 9 10 9 9 9 9 17 16 18 16 12 15 16 17 16 18 19 22 23 17 12 8 8 15 14 8 8 9
3 4 4 5 5 5 2 4 4 4 8 7 5 5 7 7 8 11 8 10 10 13 15 17 15 18 14 14 12 14 15 17 18 17 22 19 9 9 12 11 9 8 9 8
3 3 3 3 4 5 4 4 3 2 5 6 4 4 4 4 5 7 8 9 8 9 12 13 12 17 14 15 16 10 14 13 15 13 14 10 8 8 8 7 8 9 9 8
3 4 5 4 4 5 3 3 4 4 8 6 6 6 4 3 4 4 8 9 5 7 7 10 13 16 13 15 14 13 10 8 13 12 9 9 8 7 6 7 8 8 7 7
4 5 5 4 5 5 3 3 4 5 7 12 8 3 5 3 3 3 4 5 5 7 9 12 12 15 10 15 13 13 11 9 10 12 9 8 7 7 8 8 7 7 5 6
4 4 4 4 5 5 2 2 4 4 5 10 11 5 3 2 3 4 4 5 6 9 12 14 14 14 12 13 13 14 8 10 12 12 9 9 8 8 7 7 7 6 6 8
4 4 3 3 4 4 3 5 3 5 4 9 12 7 6 5 4 4 5 5 6 8 11 13 11 7 11 13 13 9 7 6 6 8 6 6 7 7 6 6 5 5 8 10
4 4 4 4 4 4 5 6 4 5 4 10 11 11 7 6 6 8 7 6 7 7 11 12 12 11 8 13 13 8 7 6 6 6 7 8 8 8 6 5 7 9 11 11
4 3 3 3 4 4 4 4 4 5 6 8 12 13 11 6 11 11 8 11 9 9 9 10 12 11 12 12 9 7 6 6 6 6 7 7 7 7 7 8 11 12 12 12
3 3 3 3 4 6 4 4 4 3 5 10 12 12 13 7 10 11 12 10 13 10 11 11 10 12 12 9 8 7 6 7 7 7 7 7 7 7 10 11 11 12 13 13
3 4 6 7 6 4 4 5 8 8 8 9 12 9 11 8 12 12 12 12 12 12 12 9 12 12 9 8 7 6 6 6 7 8 8 8 11 11 11 12 11 12 12 12
5 8 10 6 4 6 8 10 10 10 11 9 10 11 12 10 12 12 12 13 13 14 14 13 16 14 11 8 8 7 7 7 8 8 8 10 10 11 11 12 12 12 13 12
6 7 6 7 9 11 11 12 12 13 13 12 12 12 10 11 10 12 12 13 13 15 12 13 15 13 10 11 10 10 10 10 10 10 10 11 11 11 12 13 13 13 12 15
7 9 12 10 13 13 13 13 14 13 13 13 13 13 13 12 11 13 13 14 14 12 14 15 14 10 10 11 11 11 11 11 11 11 11 11 12 11 12 13 12 14 12 11
11 12 14 13 15 14 14 14 13 13 13 13 13 13 13 13 13 13 14 13 13 15 17 18 13 11 10 11 11 12 12 13 13 12 12 12 12 12 13 14 14 16 13 12
12 14 15 16 14 13 13 13 13 13 12 13 13 13 12 13 14 14 14 15 16 15 16 14 13 11 11 12 12 13 13 13 12 12 12 13 14 14 13 12 12 11 13 13
12 12 14 13 13 13 12 12 12 11 12 12 12 13 14 15 14 15 15 16 16 14 13 12 12 11 11 11 11 11 10 11 11 11 11 11 13 15 11 11 11 12 12 11
11 11 10 10 11 12 12 12 12 10 12 13 13 18 17 14 15 15 13 14 13 11 11 11 11 11 11 10 10 11 10 10 10 10 11 11 10 12 12 11 8 8 8 9

GFSNW_con_lsi_021.txt.gz
Lid_Strength_Index
3 4 3 3 2 2 3 6 10 5 6 9 9 11 9 8 8 7 7 8 9 10 10 11 12 12 10 7 8 12 11 13 16 13 9 9 10 12 12 17 16 17 18 17
3 4 3 3 2 2 4 6 7 4 7 13 13 10 8 8 9 8 8 9 8 8 10 13 11 10 8 8 8 10 10 13 16 14 11 10 12 11 11 13 15 16 20 17
3 4 4 3 2 2 3 7 11 8 6 8 9 10 10 10 7 8 7 8 8 9 11 9 11 11 8 9 9 7 8 11 14 16 14 13 14 12 11 13 17 16 16 15
3 4 3 2 2 3 4 7 9 9 11 10 9 9 9 10 10 8 8 9 9 10 13 12 12 10 10 8 8 8 10 13 13 12 12 12 13 13 12 13 13 15 14 13
4 3 3 3 3 4 5 7 8 8 10 8 10 10 10 9 9 9 10 9 9 10 11 10 12 10 11 12 9 10 9 14 14 14 12 12 14 13 13 13 13 12 13 13
3 4 4 3 3 3 5 6 6 7 9 9 10 10 9 9 8 8 7 8 10 12 10 9 9 9 8 8 9 11 12 14 16 18 14 14 18 13 12 12 11 12 14 11
3 4 4 4 3 3 3 4 6 9 12 10 11 8 8 8 8 9 8 8 9 8 8 9 9 10 9 8 8 9 13 15 18 20 19 22 14 10 10 11 11 10 11 10
4 4 4 4 3 3 3 4 7 10 13 9 9 8 9 8 8 9 8 7 7 7 11 14 14 15 14 12 9 10 11 16 18 20 19 16 13 11 11 12 12 9 10 10
4 4 4 5 4 3 3 4 5 8 10 10 7 9 9 10 11 10 9 6 6 9 15 17 19 19 16 15 13 10 12 14 17 18 23 23 15 10 9 10 15 9 9 10
4 4 5 5 5 3 3 5 4 5 9 8 7 9 9 8 10 11 9 8 10 10 18 20 19 16 13 16 17 17 17 19 19 23 22 17 12 9 9 15 15 9 8 9
4 4 4 5 4 4 4 5 4 5 9 7 6 6 8 8 9 12 9 10 11 15 16 18 17 19 15 15 13 14 15 16 18 18 22 19 10 10 12 10 10 8 8 8
4 5 6 5 5 4 3 5 3 3 6 6 5 5 5 5 6 8 9 9 10 10 14 16 15 18 13 16 17 11 15 14 15 14 14 10 9 10 9 8 8 8 8 8
5 5 5 6 6 4 3 4 4 5 8 7 7 7 4 3 4 4 9 10 7 8 9 11 12 17 15 16 15 14 11 10 14 13 10 10 9 8 8 7 8 8 8 8
4 4 4 5 5 3 3 4 4 5 8 12 9 4 6 4 3 4 5 6 7 8 10 13 13 16 11 15 13 13 11 10 11 13 10 9 7 7 7 7 7 7 7 7
4 4 4 5 4 3 3 5 5 4 6 11 11 5 5 5 4 4 5 6 7 10 13 13 13 14 12 12 13 13 9 10 13 13 9 9 9 7 7 8 8 7 7 8
4 4 4 5 4 3 3 6 4 5 5 8 12 7 6 5 5 5 5 6 7 9 11 13 12 10 12 13 12 9 7 6 8 9 8 8 8 8 7 7 6 6 9 10
4 4 4 4 4 4 6 8 5 6 5 10 11 12 8 7 7 8 7 7 8 8 11 13 12 11 9 12 13 9 7 7 7 7 7 9 8 8 6 6 8 10 11 11
4 3 4 4 4 4 4 4 5 5 7 10 13 14 12 7 11 11 9 11 9 9 10 10 11 11 12 13 9 8 7 7 7 7 7 8 7 6 8 10 11 12 12 12
3 4 4 4 5 6 5 5 5 4 6 11 13 13 13 8 10 11 11 10 13 10 12 12 11 12 13 10 9 8 7 7 8 7 7 7 8 10 11 11 11 12 13 12
4 5 7 11 7 4 5 6 9 9 8 10 12 10 12 8 12 12 12 12 11 12 12 9 12 12 10 9 9 8 7 7 7 9 10 11 11 11 11 11 11 11 12 12
7 8 10 6 5 7 9 11 12 9 11 9 10 11 11 8 11 12 13 13 13 14 15 12 14 14 13 11 10 10 9 9 9 9 10 10 11 12 12 13 12 12 12 12
7 7 6 8 9 11 11 12 12 12 12 11 11 10 9 11 10 12 13 14 13 15 13 14 15 14 13 12 12 11 11 11 11 11 11 11 12 12 12 13 13 13 12 15
6 9 10 9 11 12 12 13 13 13 13 13 13 12 13 12 11 13 13 14 14 13 14 15 14 12 12 11 10 10 10 11 11 11 11 11 12 12 12 13 12 13 12 11
11 12 13 13 14 14 14 14 13 13 13 13 13 13 13 13 13 13 14 14 14 15 18 19 13 12 12 12 13 13 13 13 11 12 12 12 13 12 13 13 13 14 12 11
13 14 16 16 14 13 13 13 13 13 12 13 13 13 12 13 14 14 15 16 17 16 18 14 13 12 12 12 12 12 12 12 12 12 12 13 14 13 12 12 12 12 15 15
12 13 14 13 14 14 13 13 13 12 13 13 13 13 15 15 14 16 17 17 18 15 13 12 12 11 11 11 10 10 10 11 11 10 10 11 13 14 11 12 13 14 14 13
13 14 13 13 13 13 13 13 12 11 12 13 13 19 18 14 16 16 13 15 13 11 10 11 10 10 10 10 10 11 10 10 10 11 11 11 11 13 13 12 9 9 9 11

GFSNW_con_lsi_024.txt.gz
Lid_Strength_Index
2 3 3 3 3 3 3 7 10 5 6 10 11 11 9 8 9 8 8 8 9 11 11 12 12 12 10 8 9 12 12 14 16 14 10 9 11 12 13 17 17 17 18 17
3 4 3 3 3 2 4 7 7 4 6 13 14 11 9 9 9 9 9 10 9 9 11 13 11 11 9 9 9 11 11 14 17 14 12 11 12 11 12 14 15 16 20 17
3 4 3 3 3 2 4 6 11 8 8 9 11 11 11 10 8 8 8 9 8 10 11 10 12 11 9 10 9 7 9 13 15 16 15 13 14 13 12 13 18 17 17 15
4 3 3 3 3 2 4 7 9 8 11 10 10 9 9 10 11 8 8 10 9 10 13 12 13 11 11 10 8 9 11 14 14 13 13 13 14 14 13 13 14 16 15 15
4 3 3 3 3 3 6 7 9 10 10 8 9 10 10 10 10 9 10 10 10 10 11 11 12 11 12 13 9 10 10 15 15 14 13 13 14 13 13 14 14 13 14 14
3 2 3 3 2 3 6 7 6 8 10 9 10 10 9 9 8 8 8 8 10 12 10 10 10 9 9 9 10 11 13 15 17 18 15 16 18 14 13 13 12 13 15 12
2 3 3 3 2 3 4 5 6 9 13 11 10 9 9 9 9 9 8 8 10 9 9 9 10 10 9 8 9 10 14 16 19 20 19 23 14 12 11 12 12 11 12 11
3 4 4 3 3 3 5 5 7 9 14 11 9 9 9 9 8 9 9 7 8 8 11 14 14 16 14 13 10 12 12 16 19 21 20 17 14 12 12 12 13 10 11 11
4 4 4 4 3 3 3 5 7 7 10 10 7 9 9 11 12 11 9 7 8 10 16 17 19 18 15 15 13 11 13 15 17 20 22 23 15 12 10 10 15 10 9 10
4 4 4 3 3 2 2 5 5 6 9 8 7 9 9 9 11 12 10 9 10 11 18 20 19 18 15 16 17 17 17 18 20 24 23 18 13 10 9 15 14 10 9 10
4 5 5 4 3 3 3 5 5 6 9 8 6 6 9 9 10 12 10 11 11 15 16 18 18 20 16 15 14 14 15 17 19 19 23 19 11 10 13 11 11 9 9 9
5 6 6 5 4 4 3 4 3 4 6 7 6 5 5 6 7 9 10 9 10 11 15 18 18 18 15 16 17 12 15 14 15 15 15 11 10 10 9 9 10 9 9 8
5 5 6 5 4 3 3 4 5 6 9 8 7 7 5 4 5 5 9 11 8 10 11 14 15 17 15 17 16 15 12 11 14 13 11 11 10 9 8 8 8 8 8 8
5 5 6 5 4 4 4 5 5 7 9 13 9 5 6 4 4 4 6 7 8 9 11 14 15 16 12 16 14 14 11 10 12 13 10 10 9 8 8 8 8 7 7 7
5 5 4 4 4 4 4 5 5 4 6 11 11 7 6 6 5 6 6 7 8 11 13 14 14 15 13 13 13 14 10 10 13 13 10 10 10 8 7 7 7 7 7 8
5 5 4 4 4 4 5 6 5 4 5 8 11 8 8 7 6 7 7 7 9 10 12 14 13 10 12 13 13 10 8 8 9 9 9 9 9 8 8 8 8 7 9 10
4 4 4 4 3 3 6 8 6 5 5 9 11 11 8 8 7 9 8 8 9 9 11 13 13 12 11 13 16 9 8 7 7 7 8 9 9 8 7 7 9 10 11 11
4 4 4 4 3 4 5 5 5 5 7 9 13 13 11 7 11 11 8 11 9 9 10 11 12 11 12 13 10 8 7 7 7 7 8 8 8 7 11 11 11 12 11 11
4 4 4 4 5 6 5 5 5 5 7 12 14 14 15 9 10 11 11 10 12 10 12 12 10 13 12 11 11 10 9 9 8 8 8 9 11 12 11 10 11 12 13 13
5 5 7 11 7 5 5 7 9 10 10 9 13 11 12 8 12 12 12 12 11 12 13 9 12 12 10 12 12 11 10 9 9 10 12 12 12 11 12 11 11 12 12 12
7 9 10 7 6 7 11 12 12 10 11 10 11 11 11 9 11 11 12 12 12 13 13 12 14 14 13 12 12 12 11 11 11 11 11 11 11 12 13 13 12 12 12 12
6 7 7 9 10 11 12 13 12 12 13 12 11 11 9 10 10 11 11 13 12 14 13 13 15 14 12 11 11 11 11 11 11 11 11 11 11 11 12 13 13 12 12 14
8 10 12 11 13 13 13 14 13 12 12 12 11 11 12 11 11 12 13 13 14 13 14 15 14 12 12 12 11 12 11 11 11 11 11 11 12 12 12 12 12 13 12 12
11 12 13 13 14 14 14 13 12 13 12 12 12 13 13 13 13 13 13 14 14 15 17 18 14 13 13 13 13 13 13 13 12 13 12 12 12 12 13 13 13 14 13 12
13 13 16 16 14 14 13 13 13 13 12 12 13 13 12 13 14 14 15 16 18 19 20 14 13 13 12 12 11 11 11 13 13 12 13 15 15 14 13 13 12 12 15 15
12 13 14 14 14 14 13 13 13 12 13 12 12 14 17 16 14 16 16 18 20 16 13 12 12 12 11 10 10 10 10 11 11 11 11 11 13 14 11 12 13 15 14 13
13 14 13 13 13 13 13 13 13 11 13 13 14 17 17 14 17 16 14 18 14 11 11 11 10 10 10 10 10 11 10 10 10 10 10 11 11 12 11 10 8 9 9 12

GFSNW_con_lsi_027.txt.gz
Lid_Strength_Index
2 3 2 3 4 3 3 7 9 4 6 9 9 10 9 8 7 6 7 7 8 9 9 10 11 11 9 7 7 9 10 11 13 11 9 8 9 10 10 14 14 14 14 13
3 3 2 3 3 2 4 8 7 3 5 11 11 8 8 7 8 8 7 8 7 7 10 12 10 10 7 8 7 9 9 12 15 13 10 9 10 10 11 12 12 15 17 13
3 3 3 3 2 2 3 6 10 7 7 8 9 9 9 9 7 7 7 8 7 9 10 9 11 10 8 8 8 7 8 12 12 14 12 11 12 11 11 11 14 14 13 12
3 3 3 2 2 2 3 6 8 7 11 9 9 9 9 9 9 7 7 8 8 9 12 11 11 9 10 9 8 7 8 12 12 12 11 11 12 12 11 12 12 13 12 12
3 3 4 2 2 2 4 7 8 8 9 7 8 9 9 10 8 8 8 9 8 8 10 9 12 10 10 11 8 9 9 12 12 13 12 12 12 12 12 11 11 11 12 11
3 3 3 2 2 2 5 5 5 7 10 9 10 10 9 9 8 7 7 7 9 10 8 8 9 9 8 9 9 10 11 12 14 15 14 14 15 12 11 11 11 10 12 9
3 4 2 3 2 3 4 4 5 8 12 9 9 8 8 8 8 9 8 7 8 7 7 8 7 8 8 8 9 9 12 14 16 15 16 17 12 10 10 11 10 10 10 9
3 3 2 3 2 2 3 4 6 8 13 10 8 8 8 8 7 8 8 7 7 7 9 11 12 13 12 12 10 11 11 13 16 15 16 15 12 12 11 11 11 9 9 9
3 3 3 3 2 2 3 4 6 7 10 10 7 8 8 9 10 9 8 6 7 9 13 14 15 15 12 13 12 10 12 13 13 17 16 17 13 11 8 8 13 9 8 9
3 3 4 3 3 2 3 4 5 5 8 6 6 8 8 8 9 10 9 8 8 8 14 14 14 14 13 14 15 15 13 14 14 19 15 14 11 10 8 13 11 9 8 8
4 4 4 3 2 3 2 4 4 5 8 6 4 5 7 8 8 10 8 9 9 12 13 13 14 14 13 13 12 13 13 14 15 17 16 16 10 8 11 8 8 8 7 7
5 4 4 3 3 3 3 4 3 4 6 5 4 4 4 4 5 7 9 8 9 9 12 14 14 14 14 14 14 11 13 11 12 12 12 9 9 7 7 7 7 7 7 6
6 5 4 3 2 2 3 3 4 6 8 7 6 6 4 4 4 4 8 9 7 9 9 12 13 13 12 13 13 12 11 10 11 11 9 10 9 8 7 7 6 6 6 5
6 5 4 3 3 4 3 4 5 7 9 13 8 5 6 4 3 3 5 7 8 9 10 13 13 13 11 13 11 11 10 10 10 11 9 9 8 7 6 6 6 6 6 6
5 5 5 4 4 3 3 4 4 5 6 11 10 7 6 5 5 6 6 7 7 9 11 13 12 13 12 12 12 12 9 9 11 11 8 8 7 7 6 6 6 6 6 8
5 4 4 4 4 4 5 6 5 4 5 8 12 8 8 7 6 7 7 7 8 9 10 13 12 10 11 13 12 9 8 7 8 8 7 7 7 7 6 6 6 6 7 8
4 4 4 3 4 3 7 8 6 6 6 9 11 11 9 8 8 9 8 7 9 8 10 12 12 10 10 12 12 9 8 7 6 6 7 7 7 7 7 9 10 10 10 9
4 4 4 4 3 4 4 5 5 5 7 8 11 12 10 7 9 10 8 10 8 9 10 11 11 10 11 12 10 10 9 8 7 7 6 7 9 10 10 10 10 11 11 12
5 5 5 4 5 6 5 5 5 4 6 11 13 12 12 7 10 11 10 9 11 9 12 11 9 12 13 13 12 11 11 10 9 10 10 10 11 11 11 11 12 13 13 13
5 5 7 10 6 5 4 6 8 8 9 8 12 10 12 8 11 12 11 11 12 11 11 9 12 12 12 11 11 11 11 11 9 10 12 12 12 12 12 12 11 11 11 11
6 8 9 6 6 7 10 12 12 11 13 11 11 10 11 9 10 12 12 12 12 13 12 11 13 13 13 10 11 11 11 11 11 11 11 11 11 12 12 12 11 11 11 11
6 7 7 8 9 11 11 13 12 12 12 12 11 11 9 10 9 10 11 12 12 13 11 12 15 14 11 11 11 11 11 11 11 11 11 11 11 10 10 11 12 12 12 12
7 9 11 10 12 15 15 14 12 12 12 11 11 11 11 10 10 11 11 13 13 12 13 14 14 12 12 11 11 11 11 11 11 11 11 11 12 11 11 11 11 11 10 10
11 12 12 14 12 13 13 12 12 13 13 13 12 13 12 12 12 13 13 13 13 14 16 17 14 13 13 13 12 11 12 14 13 12 12 12 12 12 12 13 13 13 11 10
12 12 15 15 14 13 13 13 13 12 11 11 11 12 11 12 13 13 14 15 17 17 18 14 13 13 13 12 11 11 11 13 12 11 11 13 13 12 11 10 10 10 11 10
12 13 14 14 14 14 13 13 13 11 12 12 12 13 13 14 14 16 16 17 18 16 13 13 12 12 11 11 10 10 9 9 9 9 10 10 11 12 10 10 9 10 10 10
13 14 13 13 13 13 13 13 13 11 12 13 13 15 15 14 15 15 13 15 14 12 11 11 10 9 9 8 8 10 9 9 9 10 10 10 9 10 9 10 9 9 9 10

GFSNW_con_lsi_030.txt.gz
Lid_Strength_Index
2 2 3 2 3 2 2 3 7 1 0 7 6 8 7 7 6 5 6 6 7 8 8 9 8 9 8 6 6 8 7 8 12 10 7 7 7 9 8 11 13 12 13 11
3 2 3 3 3 2 2 5 5 1 3 10 9 7 7 6 6 6 7 7 7 7 8 10 9 8 6 6 6 8 7 9 13 12 9 7 9 8 8 9 10 12 16 11
3 2 3 3 3 2 1 4 9 6 4 4 6 7 7 8 6 6 6 7 7 8 9 8 10 9 7 6 6 7 6 9 10 13 11 8 10 9 8 8 12 11 11 10
4 2 2 3 3 2 1 4 6 5 9 7 6 6 6 8 8 6 6 7 7 8 10 9 10 8 8 7 8 6 7 10 9 10 10 10 9 9 9 9 9 11 10 9
5 3 3 3 3 2 2 6 6 5 6 5 6 7 7 8 8 7 8 8 7 7 9 8 10 8 8 8 7 7 7 10 10 11 10 10 10 9 8 9 8 9 8 9
4 3 3 4 4 2 3 2 2 4 7 6 7 7 7 7 6 7 6 6 7 8 7 6 5 5 6 6 7 8 9 10 11 13 11 11 14 10 9 8 8 8 10 7
3 3 4 4 3 2 1 2 2 6 9 7 7 6 6 7 6 7 6 6 7 6 4 4 5 5 6 6 7 6 9 9 11 13 13 19 10 8 8 8 7 7 7 7
3 4 4 4 3 3 1 1 3 5 12 7 6 6 6 6 6 7 7 6 5 3 5 8 10 10 11 9 8 8 7 9 13 16 13 11 10 10 10 10 9 6 7 6
4 4 3 3 3 2 0 0 -0 3 8 8 5 6 6 8 8 8 7 5 4 5 6 9 13 14 11 12 11 8 9 8 10 13 18 19 10 8 7 7 10 7 6 6
4 3 3 3 3 2 0 1 1 2 6 4 4 6 7 5 6 8 7 6 6 6 9 14 13 12 10 12 13 14 12 12 15 13 16 11 8 8 6 12 10 5 5 5
3 3 3 3 3 2 0 1 -0 2 5 5 4 4 5 6 5 8 6 7 7 7 11 12 11 13 10 10 9 11 12 14 15 13 17 17 7 7 10 7 5 5 5 5
3 3 3 3 3 2 2 2 1 -0 3 5 2 2 2 3 3 5 5 6 6 6 9 9 10 13 11 11 12 8 12 9 10 10 9 6 6 5 4 4 5 5 4 4
4 4 3 3 2 3 2 1 0 1 4 4 4 5 2 1 1 1 6 5 4 5 4 7 8 14 8 14 11 10 8 7 9 9 7 6 6 5 4 5 4 4 3 3
4 4 4 3 3 3 2 1 1 1 4 10 6 2 3 2 1 1 2 3 4 5 4 7 9 12 7 9 8 9 7 7 8 8 6 6 5 5 5 4 3 4 3 3
5 4 4 3 2 3 1 1 2 2 3 9 7 4 4 3 3 3 3 3 4 5 7 10 10 7 8 8 8 9 6 8 9 9 6 6 6 4 4 4 4 4 4 4
4 4 3 3 3 4 1 4 1 2 2 5 10 5 5 4 3 3 4 4 4 4 6 8 7 8 7 12 10 7 6 5 5 7 4 5 4 4 4 5 5 5 5 6
4 4 4 5 3 0 4 5 3 4 2 5 9 8 6 5 4 5 4 4 4 5 7 10 9 7 6 10 11 8 7 6 6 5 4 6 6 7 7 7 7 7 8 10
4 4 4 4 4 3 3 3 5 4 3 4 9 9 7 5 7 8 7 7 5 7 9 9 9 8 8 11 11 9 8 7 6 7 5 7 7 7 8 8 9 11 12 12
4 4 4 1 2 3 2 5 5 2 2 7 10 11 12 5 8 8 6 5 10 6 9 9 7 10 12 12 11 10 9 9 9 7 7 9 10 10 11 11 11 12 12 11
4 1 3 6 3 5 4 3 4 4 5 6 11 7 10 6 7 9 8 7 9 11 9 8 10 13 11 11 10 10 9 8 8 10 12 12 12 12 12 11 10 10 10 9
2 4 6 2 5 2 5 7 8 7 10 8 8 7 8 6 9 10 9 10 10 12 10 11 12 14 12 10 10 9 9 9 9 10 11 10 10 11 11 10 9 9 9 10
4 4 4 4 5 6 10 11 10 9 11 10 10 10 8 9 7 9 10 11 11 13 8 12 13 13 11 11 11 10 9 9 9 8 9 9 9 9 9 10 10 10 10 10
3 5 9 6 10 12 13 14 12 12 11 11 11 11 9 8 6 10 9 13 13 9 12 13 13 12 11 11 11 10 10 9 10 10 10 10 10 10 9 9 8 8 8 7
9 10 12 12 12 12 12 11 11 12 11 10 9 10 8 9 10 11 12 12 11 13 14 14 13 12 12 11 10 10 11 12 11 10 10 11 10 9 9 9 9 9 8 8
11 10 14 14 13 13 12 12 11 11 11 11 10 10 9 11 12 11 12 13 14 13 13 13 12 12 11 11 10 10 10 11 9 8 9 9 9 8 8 8 8 9 9 9
11 12 13 13 13 13 13 13 13 11 12 11 10 12 12 13 12 13 13 13 14 14 12 12 11 11 11 10 10 9 8 7 8 8 8 8 9 8 8 8 9 9 9 9
12 13 12 12 13 13 13 13 13 11 12 13 11 12 14 12 13 13 11 12 11 11 11 11 10 11 10 8 7 8 8 7 7 8 8 8 9 9 9 10 10 9 9 9

GFSNW_con_lsi_033.txt.gz
Lid_Strength_Index
3 2 2 2 2 3 2 3 8 1 -0 7 7 9 6 6 5 5 5 6 6 7 7 8 8 8 7 5 5 7 6 8 11 9 7 6 7 8 8 12 12 11 13 11
2 2 2 2 3 3 2 5 5 1 2 10 10 6 6 5 6 6 6 6 6 5 7 9 7 7 6 5 6 7 6 8 12 11 9 7 8 7 7 8 9 11 15 11
2 2 2 2 3 2 1 5 9 6 5 4 7 8 7 7 5 5 5 6 5 6 7 6 8 8 7 6 6 7 6 8 10 13 10 8 10 8 7 8 11 11 10 9
3 2 2 3 3 2 1 4 6 5 10 8 6 6 6 7 8 5 5 6 6 7 9 8 9 7 7 6 7 6 6 10 8 8 8 8 8 8 8 9 9 11 9 9
2 2 2 4 3 2 3 6 6 5 6 6 7 7 7 7 7 6 7 7 6 6 8 8 9 7 7 8 6 7 6 10 9 11 9 9 9 8 8 8 8 8 8 8
1 2 4 4 4 1 3 3 2 4 7 7 7 7 7 6 6 6 5 5 6 7 7 5 5 5 5 5 7 8 8 9 11 12 10 10 14 10 8 8 7 7 10 7
1 3 4 3 3 1 1 2 3 6 9 7 7 6 6 6 6 7 6 5 6 6 3 3 4 5 5 6 6 6 9 9 10 12 13 18 9 7 7 7 7 6 6 6
2 4 5 3 3 3 1 1 3 5 12 6 6 6 6 5 5 6 6 6 4 3 4 8 10 10 10 8 7 7 6 8 12 16 12 10 9 8 9 9 9 6 7 6
3 4 4 4 4 3 1 1 0 3 7 7 4 5 5 7 7 7 7 4 3 4 6 9 12 13 10 11 10 6 7 7 10 12 17 19 9 7 6 6 10 6 6 6
4 4 3 3 3 3 1 1 -0 2 5 4 4 6 6 4 5 7 7 6 6 4 9 14 12 12 9 12 13 14 12 12 14 13 15 11 6 7 5 11 10 5 5 5
3 3 3 4 3 3 2 1 -0 2 5 4 3 3 4 4 5 8 6 7 6 7 11 12 11 13 9 10 8 11 12 13 15 13 16 17 6 6 9 7 4 5 4 4
4 3 3 3 4 3 3 2 -1 -0 3 4 2 2 2 2 3 4 5 6 6 6 8 9 9 13 12 11 12 7 11 9 10 9 9 5 5 5 4 4 4 4 4 4
4 4 4 4 3 3 3 1 -0 1 4 4 4 4 2 0 1 1 5 4 4 5 4 7 8 13 8 14 11 9 7 6 8 8 6 6 5 4 4 4 4 3 3 3
4 4 4 4 3 3 2 1 -0 1 4 10 6 1 3 0 1 1 2 3 2 3 4 7 9 12 6 9 8 8 7 6 8 8 6 5 5 4 4 4 3 3 3 3
4 4 4 3 3 2 0 -1 -0 -0 3 9 7 3 2 1 1 2 2 3 3 5 7 9 10 6 7 7 7 8 5 7 9 9 6 6 6 4 4 4 4 4 4 4
4 4 3 3 2 2 1 4 0 0 1 5 10 3 4 2 2 3 3 3 3 3 6 8 5 5 6 12 10 7 6 5 5 7 4 5 4 5 5 6 5 5 6 6
4 4 3 3 3 0 3 4 2 3 -1 5 9 8 4 3 3 3 3 3 4 4 6 7 6 6 6 10 11 7 6 5 5 4 4 6 6 7 6 7 8 8 9 10
4 3 3 3 3 4 2 3 5 3 2 3 9 10 7 3 6 7 4 6 4 6 7 7 8 6 7 11 9 8 7 5 6 6 5 6 6 6 7 8 9 10 11 11
4 3 3 0 1 3 2 6 4 -0 3 7 10 11 13 5 7 6 6 4 10 6 9 8 7 9 12 10 9 8 8 8 8 7 7 7 8 9 10 10 10 11 11 10
4 1 2 5 3 5 3 2 4 4 4 5 9 6 9 5 7 9 8 7 9 11 9 6 11 11 10 10 10 9 8 7 8 10 11 11 11 10 9 9 8 9 9 9
2 4 6 3 5 2 4 7 8 6 9 7 8 6 8 5 9 10 7 10 9 12 10 11 12 12 11 10 10 8 8 6 7 8 8 8 8 10 10 9 9 9 10 10
3 3 3 2 4 6 10 11 10 9 10 10 9 9 7 7 4 8 8 10 9 14 7 12 13 13 11 10 9 8 7 8 8 8 9 8 9 9 9 10 10 9 8 9
1 3 7 6 9 12 13 14 12 11 9 9 8 10 7 7 6 9 9 13 13 7 12 13 13 11 11 10 9 9 9 8 9 9 9 9 10 9 9 9 8 7 7 7
6 9 12 11 12 12 12 11 11 12 11 10 9 10 9 9 10 10 14 12 10 13 15 13 12 12 11 10 9 9 10 10 10 10 10 10 10 9 9 9 9 9 8 8
10 9 13 13 13 12 13 12 12 11 10 8 9 8 7 10 11 10 11 13 14 12 13 12 12 12 11 10 9 10 11 11 10 9 10 9 8 8 8 8 8 9 10 10
11 12 13 13 13 13 13 13 13 11 11 8 6 10 11 12 11 12 13 13 14 12 11 11 10 11 10 9 9 9 8 8 9 8 8 8 9 8 8 9 10 9 10 10
12 13 12 12 13 13 13 13 13 11 11 12 11 12 13 11 12 13 11 12 11 11 11 10 10 10 10 10 9 10 8 8 7 7 7 8 8 9 10 10 10 10 9 9

GFSNW_con_lsi_036.txt.gz
Lid_Strength_Index
3 3 2 2 1 1 3 4 8 1 0 8 7 10 8 6 6 5 6 6 6 7 7 8 8 9 7 5 5 8 6 8 12 10 7 6 7 9 9 15 13 12 15 14
4 3 3 2 1 1 3 6 5 1 2 11 10 8 7 6 6 6 6 7 6 6 7 9 7 7 6 5 6 7 7 9 13 11 9 7 9 8 8 8 10 13 17 13
4 3 3 2 2 1 2 5 10 7 5 5 8 9 9 8 5 6 5 6 5 6 7 6 8 7 7 5 6 7 6 8 10 14 11 9 10 9 8 9 15 13 12 10
4 3 2 2 2 1 3 5 7 6 11 9 7 7 7 8 8 5 5 6 6 7 9 8 8 7 8 6 7 6 7 10 9 8 8 8 9 9 8 9 9 12 10 9
2 3 2 2 1 2 4 7 7 5 7 7 8 8 9 8 7 6 7 7 6 6 8 8 9 7 8 8 7 7 6 11 9 11 9 9 10 9 8 8 8 9 9 9
1 2 2 2 2 2 4 3 3 5 8 8 9 9 8 7 6 6 5 6 7 7 7 6 5 5 6 6 8 8 8 10 12 14 10 10 14 10 9 8 8 8 10 8
0 1 2 2 2 2 2 3 3 7 10 8 8 7 7 7 6 7 5 5 6 5 3 4 5 5 6 6 6 6 9 10 12 15 13 18 9 6 7 8 8 7 7 7
-0 0 1 2 3 3 2 1 3 6 11 7 7 7 7 6 5 6 6 6 4 3 5 8 11 11 10 8 7 7 6 10 14 17 15 11 9 8 8 9 9 7 7 7
-0 0 1 2 4 4 3 3 1 5 8 8 5 6 6 8 9 8 7 4 3 4 7 11 13 15 11 11 10 6 7 7 12 14 17 18 10 7 6 6 11 6 6 6
-0 1 1 3 4 4 3 2 2 4 8 5 5 7 7 5 7 9 7 6 6 5 10 14 13 13 9 13 14 15 13 13 15 14 16 13 7 6 5 12 12 5 5 5
0 1 2 4 4 4 3 3 3 3 6 4 3 3 5 5 6 9 7 8 7 8 12 13 12 13 11 11 9 12 13 15 15 14 16 18 6 6 10 7 5 5 5 5
1 1 3 4 4 3 3 5 3 1 5 5 2 2 2 3 3 5 6 6 7 7 9 9 10 13 12 12 13 7 12 10 12 11 12 6 5 5 4 4 5 5 5 4
2 3 4 4 4 4 3 4 4 2 5 5 4 5 2 1 1 1 6 5 4 5 3 8 9 13 10 14 12 10 7 6 9 9 6 6 5 4 4 4 5 4 4 4
4 4 4 4 4 4 3 5 2 2 4 10 7 1 3 1 1 1 2 3 3 4 5 8 10 12 7 11 9 9 7 7 8 8 6 6 6 5 5 4 4 4 4 4
4 4 4 4 4 4 3 2 1 0 4 9 7 3 2 1 2 2 2 3 4 5 8 10 10 7 9 8 8 10 6 7 10 11 6 7 7 5 4 5 5 5 6 8
4 4 4 3 4 4 2 5 1 1 1 6 10 4 4 2 2 3 3 3 4 4 7 9 6 5 8 12 12 7 6 5 5 7 5 5 5 5 6 7 7 7 8 8
4 4 3 3 3 1 4 5 3 4 0 6 10 9 4 3 3 4 4 3 4 5 6 8 7 7 7 11 12 7 6 5 5 4 4 6 5 8 7 8 9 8 9 9
4 4 3 3 4 3 3 2 4 3 2 4 10 11 8 4 7 8 4 6 5 6 7 7 8 7 8 11 7 7 7 6 6 6 5 6 6 7 9 8 9 9 10 10
4 3 3 1 2 4 3 4 4 0 3 9 10 12 13 4 6 6 6 5 10 6 10 8 8 10 12 9 9 8 7 7 7 7 7 7 8 9 9 9 9 10 10 10
3 1 3 7 3 5 4 2 5 5 4 5 9 7 10 6 8 9 9 8 10 12 10 7 11 12 10 9 8 7 7 6 7 10 11 10 10 10 9 9 9 9 10 10
2 4 6 2 4 2 5 8 9 8 10 8 7 7 9 6 10 11 8 11 10 13 11 11 12 12 11 9 8 7 7 7 8 8 8 8 8 9 10 10 10 10 11 11
2 2 2 2 4 6 10 11 9 10 11 10 9 8 8 7 5 9 9 11 9 14 8 12 13 11 10 9 9 8 8 8 8 8 8 8 8 9 10 10 11 11 11 12
1 4 8 7 9 12 13 14 12 13 11 11 10 11 8 8 7 10 10 12 13 8 13 13 12 11 11 9 9 9 8 8 8 8 9 9 10 10 10 11 11 11 10 9
7 9 12 12 12 13 13 13 12 13 12 11 9 10 10 9 11 11 13 12 10 14 15 13 13 12 10 9 9 9 9 10 10 10 10 11 11 12 12 12 12 11 10 10
10 10 14 14 13 13 13 13 12 12 10 9 8 8 8 11 11 10 12 13 14 13 13 12 12 11 10 10 9 10 11 11 10 10 11 12 12 11 11 10 10 10 12 12
12 13 13 13 13 13 13 13 13 11 10 9 7 10 12 12 12 12 13 13 14 12 11 12 11 11 10 10 10 10 9 9 10 10 11 11 11 10 9 10 11 12 12 13
12 13 13 13 13 14 13 13 13 12 12 13 10 13 13 11 12 13 11 13 12 12 11 11 11 11 10 9 10 10 10 9 9 9 9 9 9 9 10 11 11 11 10 12

GFSNW_con_lsi_039.txt.gz
Lid_Strength_Index
4 3 3 2 2 1 1 4 9 2 1 9 9 11 9 7 7 6 7 7 7 9 8 9 10 9 8 6 7 9 8 11 15 12 8 7 9 10 11 16 15 15 16 15
4 3 3 2 2 2 3 6 6 2 2 11 11 9 9 8 8 8 8 7 7 7 9 10 9 9 7 6 7 9 8 11 15 13 10 9 10 9 9 10 12 15 18 15
4 4 4 3 2 1 2 6 10 7 5 7 9 10 10 10 6 7 7 7 7 8 9 8 9 10 7 6 7 8 7 10 12 15 12 10 12 10 9 11 16 15 14 12
3 4 4 3 2 1 2 6 8 7 11 10 9 9 8 10 10 7 6 8 8 9 11 9 10 9 8 7 7 7 8 12 11 10 9 9 10 10 10 11 11 14 12 11
3 3 3 3 2 1 3 8 8 7 8 8 9 9 10 10 9 8 9 9 8 8 10 9 10 9 9 10 8 9 8 13 12 13 10 10 11 10 10 10 10 11 11 11
2 2 2 3 2 1 5 5 4 6 9 9 10 10 9 9 7 7 6 7 8 9 8 7 7 7 7 7 9 10 10 12 14 16 12 12 16 12 10 10 9 10 13 11
1 1 2 3 2 2 3 5 4 8 11 10 10 8 7 8 8 9 6 6 8 6 5 5 6 7 7 7 8 7 11 12 14 17 16 21 11 8 9 10 10 10 10 10
2 1 2 2 2 1 3 3 4 7 13 8 8 8 8 7 7 7 7 6 5 4 7 10 12 13 13 11 8 9 8 12 15 17 17 13 10 9 9 10 11 8 9 9
2 1 1 1 1 1 2 4 3 5 9 10 6 7 7 9 9 10 8 5 4 6 9 13 16 17 13 13 11 8 9 10 15 16 18 20 12 9 7 8 14 8 7 8
1 0 1 1 1 2 3 5 4 4 8 6 6 8 8 6 9 10 9 8 8 7 14 14 16 15 10 15 15 15 14 15 17 18 19 14 8 8 7 15 13 7 7 7
-0 -0 -0 1 1 2 4 6 4 3 7 6 5 4 6 7 8 11 8 9 9 10 13 14 15 16 13 13 11 13 14 15 17 15 17 18 7 8 11 9 7 7 7 7
-0 -0 -0 1 1 2 3 6 3 2 5 6 3 3 3 4 4 7 7 8 8 8 11 12 13 14 14 13 16 9 14 12 14 13 13 8 7 7 6 6 7 7 6 6
0 -0 1 2 1 3 4 5 3 3 6 6 5 7 4 2 3 2 8 7 5 7 6 9 11 13 12 16 14 12 9 8 11 11 9 8 7 6 5 5 6 7 7 7
0 0 1 2 2 4 4 5 3 3 5 11 8 2 4 2 2 2 3 4 4 5 6 10 12 13 9 13 10 11 9 9 9 10 8 7 7 6 6 6 7 8 8 8
0 1 2 1 3 3 4 4 3 3 5 9 8 4 3 2 3 3 3 4 6 7 11 13 12 9 11 11 11 13 8 9 12 12 8 8 9 7 7 8 8 9 9 10
2 2 3 3 5 4 4 7 3 3 3 7 11 5 5 4 4 4 4 5 6 6 8 11 8 7 10 13 15 8 7 7 7 8 7 8 9 9 8 9 9 9 9 10
3 3 3 4 4 3 6 7 3 4 4 7 11 10 5 4 5 6 5 5 6 6 8 10 9 9 8 13 14 8 7 7 7 6 8 10 9 10 9 9 10 9 10 11
3 3 4 4 3 4 5 2 4 5 4 5 11 11 9 4 9 10 7 8 8 9 9 10 12 10 13 14 9 8 8 8 8 8 7 9 9 9 10 10 10 11 12 12
4 4 4 4 3 5 3 4 5 2 4 10 13 12 13 6 8 9 8 8 13 8 13 11 11 13 13 10 10 10 9 9 10 9 9 9 10 10 10 10 11 12 13 11
4 2 4 8 4 4 4 4 7 7 7 8 12 8 11 7 11 12 12 13 12 13 12 10 13 14 11 11 10 10 9 9 9 11 12 11 11 11 10 11 11 11 11 12
3 5 8 4 3 5 7 12 12 10 13 11 10 9 10 7 12 13 12 13 14 16 14 14 15 15 13 11 10 10 8 8 9 9 9 9 9 11 11 11 11 12 13 14
3 4 3 4 6 9 12 13 12 13 13 11 11 10 9 10 7 12 12 14 15 16 11 14 14 14 11 10 10 9 8 8 8 8 9 9 9 10 10 11 12 13 14 15
4 7 10 8 11 13 15 17 13 13 12 12 12 12 12 11 10 12 12 13 14 14 13 15 14 12 11 10 9 9 8 9 9 10 10 10 11 11 12 13 12 13 14 14
9 12 13 13 14 14 15 14 13 13 13 12 12 13 13 13 13 13 14 14 13 14 17 17 14 12 11 10 9 10 10 12 11 11 12 13 13 13 13 14 15 15 15 14
12 12 15 15 14 13 13 13 13 13 12 12 12 12 11 13 13 13 13 14 17 16 17 13 12 11 11 11 11 11 12 12 12 11 13 13 13 13 14 14 14 15 16 16
12 13 14 13 13 13 13 13 14 12 13 12 13 13 13 14 13 14 14 15 17 14 13 12 11 11 11 11 12 11 10 11 12 12 12 13 13 14 14 14 15 16 16 18
13 14 13 13 14 14 14 13 13 12 13 13 13 14 14 13 14 15 14 15 14 13 13 12 11 11 12 12 11 11 11 11 12 12 12 13 13 14 14 14 13 12 13 18

GFSNW_con_lsi_042.txt.gz
Lid_Strength_Index
3 3 3 3 3 2 2 4 9 2 0 9 10 11 9 8 7 6 8 8 9 9 9 10 10 10 9 7 7 10 9 11 14 12 8 8 10 10 11 17 15 15 17 15
4 4 3 3 3 2 4 6 6 2 2 12 13 10 9 8 8 8 8 9 8 8 10 11 10 9 7 6 8 9 9 12 16 14 11 9 10 10 10 11 13 15 19 16
3 4 3 3 3 2 4 6 10 7 5 7 10 11 11 10 6 8 7 8 8 9 9 8 10 10 8 6 7 7 7 11 13 16 13 11 13 11 10 12 16 15 15 13
2 3 3 3 3 2 3 6 8 7 11 10 9 10 10 11 10 7 7 9 9 10 11 10 11 10 9 7 8 8 9 12 12 11 10 10 11 11 11 12 12 14 12 12
3 3 3 3 2 1 4 7 8 7 9 8 9 9 11 11 9 8 9 10 9 8 10 10 11 10 10 10 9 9 9 13 12 14 11 11 12 11 12 11 11 11 11 12
3 3 2 2 2 1 5 4 4 6 8 9 10 10 10 10 7 7 7 8 8 9 8 7 8 7 7 8 9 10 10 12 14 16 13 13 16 12 11 11 11 11 14 12
3 3 2 2 2 2 3 4 5 8 11 10 10 9 9 8 8 8 7 7 8 7 5 6 7 8 8 8 8 8 11 12 15 17 16 20 12 9 9 10 10 10 10 10
3 2 2 2 2 2 3 2 4 7 11 9 9 8 8 7 7 8 8 6 5 4 7 10 12 14 13 11 9 9 8 13 16 18 18 14 11 10 11 11 12 10 10 9
3 2 2 1 1 2 3 3 2 5 9 10 7 8 7 9 10 9 8 6 5 5 9 13 15 16 13 14 12 9 10 12 15 17 19 20 12 10 8 8 14 8 8 8
3 2 2 1 1 2 2 3 3 5 8 7 6 8 9 6 8 10 9 8 9 7 15 15 16 16 11 15 15 16 17 17 18 21 20 16 10 8 8 15 14 8 8 8
2 2 2 1 1 2 2 3 2 5 7 6 5 5 7 6 7 11 8 9 9 11 13 14 15 17 13 14 11 13 14 16 19 17 20 18 8 8 11 10 8 8 7 7
2 2 2 1 1 1 1 4 3 3 6 6 5 4 4 4 4 7 8 8 8 8 11 13 13 15 16 15 16 10 14 12 13 13 13 9 8 8 7 7 7 7 6 6
2 2 1 1 0 1 1 2 3 4 7 7 6 6 4 3 2 2 8 8 6 7 7 10 11 14 14 16 15 13 10 8 11 11 9 9 7 6 6 7 9 8 8 8
0 0 -0 -0 0 1 2 3 2 3 5 10 8 2 4 2 2 3 4 5 4 5 7 11 13 13 10 15 12 12 10 9 11 11 9 8 8 7 8 9 9 9 9 10
-0 -0 -0 -0 1 1 2 3 3 2 5 10 8 4 4 3 3 3 3 4 6 8 10 14 12 10 11 13 12 14 9 10 13 14 8 9 9 9 8 9 10 10 10 11
0 -0 0 1 2 2 2 6 3 2 2 7 11 5 5 4 3 4 5 5 6 7 9 11 9 8 11 14 16 9 8 8 8 9 8 9 9 9 9 10 10 10 11 11
-0 0 1 2 2 2 5 7 4 3 2 7 11 11 6 4 5 6 6 6 7 6 8 12 11 10 10 15 14 8 8 9 9 9 9 11 10 12 10 11 11 11 11 11
1 1 2 2 3 4 5 4 4 3 5 6 12 11 9 5 9 9 7 8 9 9 10 12 13 11 15 14 10 9 9 9 9 9 9 10 11 11 12 11 11 12 12 13
2 2 2 3 4 6 5 4 4 4 6 10 13 13 13 7 10 11 10 10 13 9 13 13 11 16 15 12 10 10 10 10 12 11 11 11 12 12 12 12 12 13 14 13
3 4 6 8 5 3 4 5 7 8 8 10 12 10 12 9 13 12 14 12 13 13 12 10 14 14 12 12 10 10 10 11 11 13 14 13 13 12 12 12 12 12 13 14
5 5 8 4 4 5 7 11 12 11 13 12 10 10 10 8 13 13 13 13 14 15 12 13 14 15 12 11 11 10 10 10 11 11 11 11 11 12 12 12 12 13 14 14
4 4 3 4 7 10 12 13 13 12 13 12 11 10 9 10 8 12 12 14 14 14 11 13 15 15 13 10 10 10 10 10 11 11 10 10 10 11 12 13 14 14 14 14
4 7 11 9 12 14 17 17 14 14 13 12 12 12 12 10 10 12 13 16 15 14 13 17 16 12 11 10 10 10 9 9 10 10 10 10 11 12 13 14 15 14 15 15
11 13 14 14 15 15 15 14 14 13 13 13 13 13 12 13 13 13 13 14 13 16 18 18 14 12 11 10 10 11 12 12 12 12 12 13 13 13 13 14 15 15 16 17
13 13 16 15 14 13 13 13 13 13 12 12 13 13 12 13 13 14 14 15 16 16 18 14 13 12 12 12 12 12 13 13 13 13 13 14 14 14 15 14 15 15 17 18
14 14 14 13 13 14 14 13 13 12 13 13 14 13 14 14 14 15 15 17 18 15 14 13 12 12 12 12 12 12 12 12 13 13 14 14 14 15 15 15 16 18 18 20
14 15 13 14 14 14 14 14 13 12 12 13 14 15 15 14 15 16 15 16 15 14 13 12 12 13 12 12 12 13 12 13 13 13 13 14 14 15 15 16 16 16 16 18

GFSNW_con_lsi_045.txt.gz
Lid_Strength_Index
2 2 2 3 2 2 3 7 10 2 1 9 9 13 11 9 8 6 8 8 10 10 10 11 11 11 9 8 7 10 9 11 14 12 9 8 10 11 12 16 16 16 17 16
1 2 2 2 3 2 4 8 7 2 2 12 11 10 11 9 8 8 9 10 8 8 10 12 10 10 7 7 8 9 9 12 16 14 11 10 11 10 10 12 14 16 19 16
1 1 2 2 3 2 4 7 10 7 5 6 10 11 11 11 7 8 8 9 8 9 10 9 10 10 8 7 7 7 8 11 13 15 13 11 13 11 11 12 17 16 16 14
1 1 2 2 2 3 4 7 9 7 11 10 9 9 11 11 11 8 7 9 10 10 13 11 11 10 10 8 8 8 9 13 12 12 11 11 11 11 11 13 13 15 13 13
2 2 1 2 2 2 5 9 8 7 9 8 9 9 11 11 10 9 10 10 9 9 11 10 11 10 10 10 9 10 9 13 13 14 11 12 12 11 11 12 12 13 13 13
3 2 2 2 2 2 6 6 4 6 8 9 10 11 11 11 8 8 7 8 9 10 9 7 8 7 8 8 9 11 11 13 15 16 14 14 16 13 12 12 11 11 14 12
3 2 2 2 2 2 4 5 4 8 11 9 10 9 9 9 8 9 7 6 10 7 6 7 7 8 8 8 8 9 12 13 16 17 16 20 12 10 10 11 12 11 11 11
3 3 3 3 2 2 4 4 4 7 12 9 9 9 9 8 7 8 7 6 6 5 7 11 12 14 13 12 10 9 9 14 16 17 17 14 12 11 11 12 13 10 11 10
3 3 3 2 2 1 3 3 2 5 9 10 7 9 8 10 9 9 7 5 4 6 9 14 15 17 14 14 13 10 11 12 15 18 19 20 13 11 9 9 15 9 9 9
4 3 3 3 2 2 3 3 1 4 8 7 6 9 9 7 8 10 9 7 9 6 13 16 16 16 11 15 15 16 16 16 17 20 20 16 12 10 9 15 14 9 8 9
4 3 3 2 2 1 2 3 1 3 7 6 5 5 7 7 7 10 9 9 9 12 13 14 15 17 14 15 13 14 14 16 19 19 21 18 10 10 12 11 9 8 8 8
3 3 2 2 1 1 1 4 1 1 5 6 4 5 5 5 5 6 7 8 9 8 11 13 13 15 17 15 16 11 14 13 14 14 15 11 9 9 8 8 8 8 7 8
3 2 2 2 1 1 1 2 1 2 6 6 6 6 4 3 4 3 8 8 6 7 7 10 12 14 14 16 16 13 11 9 12 12 10 9 8 8 8 7 8 7 7 9
2 2 2 2 1 0 1 3 1 3 4 10 7 2 4 2 3 4 4 5 5 6 7 11 13 15 11 16 12 13 11 9 11 12 10 9 8 10 10 10 9 10 10 9
2 2 2 1 1 0 1 1 1 2 5 9 9 5 3 2 3 4 3 4 6 8 10 14 13 11 10 13 12 14 10 11 12 13 8 9 9 10 9 10 10 10 11 11
1 2 1 1 1 0 2 7 4 2 1 7 12 5 5 4 4 5 5 5 6 6 9 12 9 7 10 14 16 10 9 8 9 10 8 10 10 11 10 10 11 11 11 12
1 1 1 1 0 1 5 7 5 2 1 7 12 11 6 4 5 6 6 6 7 6 8 12 10 10 10 15 15 10 9 9 10 10 10 12 11 12 11 11 11 11 12 12
-0 -0 -0 0 0 1 5 1 2 2 4 6 12 12 10 5 9 10 7 9 8 9 10 12 13 11 15 14 11 10 10 10 10 11 10 11 11 12 12 12 12 13 14 13
-0 -0 -0 1 2 5 4 2 1 0 4 9 12 13 13 7 9 10 10 9 12 9 13 12 11 14 13 12 11 11 10 10 12 11 12 12 13 13 13 13 14 14 15 14
0 1 4 7 4 2 3 4 7 7 6 6 11 9 12 9 13 13 12 13 13 14 13 11 14 14 12 12 11 11 11 11 12 14 15 14 15 14 14 14 13 13 13 14
3 5 7 2 3 5 7 11 12 11 13 11 11 10 11 9 12 14 13 14 14 15 13 13 15 14 13 12 11 11 11 11 11 11 12 12 12 13 13 13 13 14 14 15
5 3 4 5 7 9 12 13 13 14 14 13 12 12 10 12 10 13 13 14 15 16 12 14 15 15 13 12 11 11 10 10 10 11 11 11 12 12 12 13 14 14 14 16
4 8 10 9 13 14 14 15 14 14 14 13 13 13 13 13 12 15 16 20 19 14 14 14 16 12 11 10 10 10 10 10 10 10 11 11 12 13 14 14 14 15 15 15
11 12 15 14 16 15 15 14 14 13 13 13 13 13 13 13 14 15 16 14 13 17 19 19 14 12 12 11 11 11 12 11 11 12 13 14 14 15 14 14 15 16 16 17
13 13 16 15 13 13 13 13 13 13 12 12 12 13 12 13 13 14 14 15 16 19 20 15 13 12 12 12 12 13 13 13 14 13 14 15 15 15 15 15 15 16 18 18
13 14 15 14 14 14 14 14 13 12 13 13 13 14 15 15 14 15 16 16 18 16 15 13 13 13 13 13 13 13 13 13 13 13 14 14 15 15 16 15 16 18 18 19
14 15 13 13 14 14 14 14 13 12 12 13 14 15 15 14 15 16 15 17 16 14 14 13 13 13 13 13 13 13 13 14 14 14 14 15 15 16 16 17 16 16 17 19

GFSNW_con_lsi_048.txt.gz
Lid_Strength_Index
1 1 1 1 2 2 3 6 12 4 0 9 8 12 12 10 8 7 8 9 10 11 11 12 12 12 10 9 8 11 9 12 15 12 10 9 11 11 12 16 16 16 17 16
1 1 1 1 1 2 5 8 9 2 2 12 12 10 10 10 9 9 9 10 9 9 11 14 11 11 8 8 9 10 9 13 16 14 12 11 12 11 11 13 15 16 19 16
2 2 1 1 1 2 4 7 12 7 5 7 10 11 11 12 8 9 8 9 9 10 11 10 12 11 8 7 8 7 8 12 13 15 14 12 14 12 11 12 17 16 16 14
2 2 1 1 1 1 3 7 11 8 11 10 10 10 10 12 11 8 7 9 10 11 12 12 12 10 10 9 8 8 9 13 13 12 12 11 12 12 12 13 13 15 13 14
2 2 1 1 1 1 5 8 9 7 9 9 10 10 11 12 10 9 10 10 9 9 12 10 12 10 11 10 9 10 10 13 14 14 12 13 13 12 12 13 13 13 14 14
2 2 2 1 1 1 6 5 6 7 8 9 11 12 11 11 8 9 8 8 9 10 9 8 7 8 8 9 10 11 11 13 15 16 14 14 17 13 12 12 12 11 14 11
3 2 2 2 2 2 4 4 6 8 11 10 11 11 10 10 9 9 8 8 9 7 6 7 7 8 9 9 9 9 13 14 16 18 17 20 13 11 11 11 12 12 12 12
3 2 2 3 2 2 4 3 5 7 12 9 9 9 10 9 8 8 8 7 6 6 6 10 13 14 13 12 10 10 11 14 16 18 18 15 13 12 12 12 13 11 12 11
3 2 3 3 2 2 3 4 4 4 9 10 7 9 9 11 10 10 8 5 5 6 9 13 16 17 14 14 13 11 12 13 15 18 19 20 13 11 10 11 15 10 10 10
3 3 3 3 2 2 4 4 3 4 8 6 6 9 9 8 9 11 9 7 9 6 13 15 15 15 12 15 15 15 16 16 18 21 20 16 11 11 10 15 14 10 9 9
3 3 3 3 2 2 4 5 3 4 6 6 5 6 7 7 8 11 9 9 9 11 13 13 13 17 14 15 13 13 14 16 19 19 20 18 11 11 13 11 11 9 9 9
3 3 3 3 2 2 3 6 3 3 5 6 4 5 5 6 5 6 7 8 9 8 11 13 15 16 18 15 16 12 14 13 14 13 14 11 11 11 10 9 10 9 8 9
3 3 3 3 3 2 3 5 3 3 5 6 5 7 4 4 4 3 8 7 6 7 7 10 11 14 14 16 15 14 12 11 13 13 11 10 9 10 9 8 8 8 8 9
4 4 4 3 2 2 2 4 2 2 5 9 8 2 4 2 4 4 4 5 5 6 7 11 13 14 11 15 12 13 12 11 12 13 11 10 9 10 10 9 9 10 10 10
4 3 3 2 2 2 2 2 2 1 5 9 8 6 4 3 3 4 4 4 6 9 11 15 13 11 11 13 12 15 11 12 13 12 10 10 9 10 9 10 10 10 11 11
3 3 2 2 2 2 3 5 2 0 2 6 11 5 6 4 3 4 5 5 6 8 9 12 9 8 10 13 14 10 10 10 9 9 8 10 10 11 10 11 11 11 11 11
2 2 2 2 2 3 5 5 4 1 1 6 10 11 6 4 5 6 6 6 8 8 10 13 10 9 9 15 14 10 9 9 9 10 10 12 11 12 12 12 12 11 12 12
2 2 2 2 1 2 3 3 1 2 4 6 10 11 9 5 8 9 6 10 9 9 11 13 12 11 14 14 12 11 11 10 10 11 11 10 12 12 13 13 12 13 14 14
2 2 1 2 3 5 5 0 1 0 5 9 10 12 13 6 8 9 10 10 13 9 13 12 10 14 13 12 12 11 11 10 12 13 13 12 13 14 13 13 14 14 15 14
1 2 4 7 4 0 1 3 5 5 6 6 9 8 11 9 13 12 12 12 13 13 12 10 13 13 13 13 12 11 12 12 12 14 15 14 14 14 14 14 14 14 14 13
2 5 7 4 2 4 7 11 10 9 11 10 11 11 12 8 13 13 13 14 14 14 13 12 13 13 13 12 12 11 11 11 11 12 12 12 13 14 14 14 14 14 14 14
3 3 2 3 5 9 11 12 12 11 12 12 11 10 9 11 9 12 13 15 14 15 12 13 15 14 13 12 12 12 11 11 12 11 12 12 13 13 13 14 14 14 15 16
3 5 9 8 12 13 14 15 14 14 13 12 12 13 12 12 11 14 15 15 16 14 15 15 15 13 12 12 12 12 12 12 12 12 12 12 13 13 14 15 15 15 15 16
10 12 14 14 15 15 15 14 14 14 14 13 13 13 13 14 14 15 15 15 14 17 19 19 15 13 12 11 11 12 12 12 12 13 13 14 14 15 14 15 15 16 16 17
13 13 16 15 14 13 13 13 13 13 13 13 13 13 12 14 14 14 15 16 18 17 18 15 13 12 12 12 12 13 13 13 14 14 15 15 15 15 16 16 16 16 17 18
13 14 15 14 15 15 14 14 14 12 13 13 13 14 14 14 14 15 16 16 18 17 15 14 13 13 13 13 13 13 13 14 14 15 15 15 16 16 16 17 17 18 18 19
14 15 15 15 14 16 15 14 14 12 13 14 13 16 18 14 16 18 17 18 16 15 14 14 13 14 14 13 13 14 14 14 14 14 14 15 15 16 17 18 18 17 18 18

GFSNW_con_lsi_051.txt.gz
Lid_Strength_Index
1 2 2 1 1 1 1 5 11 5 1 9 8 12 11 9 9 7 8 8 10 11 10 11 11 11 9 8 8 9 8 10 13 11 9 8 8 10 10 14 15 14 15 14
1 1 2 2 1 1 3 7 8 4 3 12 11 10 10 9 9 9 9 10 9 8 10 12 10 10 7 8 8 9 8 11 14 12 10 9 10 10 10 11 12 15 17 14
0 1 2 2 1 1 3 7 10 7 5 7 10 11 12 11 9 9 8 9 8 9 10 9 10 10 8 7 7 7 7 10 12 14 12 10 12 11 10 11 14 14 13 12
0 1 1 2 1 1 3 6 9 7 11 10 11 10 11 12 12 9 8 9 9 10 12 10 11 9 8 7 7 7 7 12 11 11 11 10 10 11 11 11 11 13 12 12
0 1 2 2 1 1 4 8 8 6 8 9 10 10 12 12 11 9 11 10 9 9 11 10 11 9 9 10 8 9 8 11 11 12 11 10 11 10 10 10 11 11 11 11
0 1 2 2 1 1 6 4 5 6 8 9 11 12 11 11 9 8 8 8 9 10 9 7 7 7 7 7 8 10 10 11 12 14 12 12 14 11 10 10 10 9 12 9
0 1 2 2 1 2 4 4 5 8 11 10 11 11 10 10 9 9 7 7 8 6 4 4 6 7 8 8 8 7 10 11 12 15 14 18 10 9 9 10 10 9 10 9
0 2 2 2 2 2 3 3 5 7 10 9 9 9 10 8 7 8 7 7 5 4 5 10 11 12 11 10 9 9 9 12 14 16 15 13 11 11 10 10 9 8 9 9
1 2 2 2 2 2 3 3 3 4 8 9 7 8 9 10 10 9 8 4 3 5 9 11 14 16 14 14 12 10 11 11 12 15 16 18 11 9 9 8 12 8 8 9
2 2 2 2 2 1 3 4 2 4 8 6 6 8 9 7 8 9 8 7 7 5 11 13 14 14 11 15 15 14 13 14 14 16 15 13 10 9 8 13 11 8 8 7
2 2 2 2 2 2 3 5 2 3 6 6 5 5 7 7 7 10 8 8 8 9 12 13 13 14 12 13 11 13 13 14 15 14 15 16 9 10 11 8 8 7 7 7
2 2 2 2 2 2 3 6 2 2 5 5 3 3 3 4 4 6 6 8 8 8 10 11 11 13 13 12 15 11 14 11 13 12 12 7 9 7 8 8 7 8 7 7
2 2 2 2 2 2 4 5 4 4 7 6 5 6 3 2 3 2 8 6 5 7 5 9 10 13 11 14 13 11 11 10 11 10 9 9 8 8 8 7 7 7 6 7
3 3 3 2 2 3 4 5 4 4 6 9 7 3 4 1 2 3 2 4 4 4 5 8 11 12 8 12 10 11 10 10 11 11 10 9 8 8 7 8 8 8 7 8
3 3 3 3 3 3 4 4 3 2 5 9 8 4 4 3 2 4 3 4 5 6 8 11 11 9 9 11 10 11 9 10 11 12 8 7 7 7 8 8 8 8 9 10
3 3 3 3 3 3 4 7 3 1 3 8 11 5 5 3 3 4 4 4 5 6 8 9 8 7 9 12 12 8 8 8 7 8 8 10 11 10 9 9 9 9 9 10
3 3 3 3 2 4 6 6 3 2 3 6 9 9 5 4 4 5 5 4 6 6 7 9 8 8 8 12 13 8 8 8 8 10 9 11 10 11 10 10 10 10 10 10
4 3 3 3 2 3 4 2 1 2 4 5 10 10 8 4 8 9 5 7 6 7 8 9 9 10 11 12 9 8 9 9 10 10 10 9 11 12 13 12 11 12 13 12
3 2 2 4 5 7 5 1 1 1 4 9 10 12 13 5 8 8 9 8 11 7 11 10 8 12 13 10 9 9 10 10 10 12 12 12 12 13 13 13 13 13 13 13
3 4 6 8 6 2 1 3 5 6 6 6 10 8 11 7 11 11 10 12 12 13 11 9 11 11 10 11 10 9 10 11 11 13 14 14 14 13 13 13 13 13 14 13
5 6 8 5 1 3 6 8 9 8 10 8 9 9 10 7 10 12 11 13 13 14 12 12 13 13 11 11 11 11 11 11 11 11 12 12 12 13 14 14 13 13 13 14
4 3 3 3 5 8 9 10 9 10 11 9 9 8 7 9 7 11 13 13 13 15 12 13 14 13 11 11 11 11 11 11 12 11 12 13 13 13 13 13 13 14 15 16
4 6 9 8 10 12 13 14 12 12 11 10 10 10 10 11 11 13 14 14 14 14 14 16 16 13 12 11 11 11 11 12 13 13 13 13 13 13 14 15 15 15 16 16
10 11 13 13 14 14 14 13 13 12 12 12 11 12 12 13 14 14 14 14 14 16 18 18 15 14 13 12 12 12 13 14 14 14 15 15 15 15 15 15 15 15 17 17
12 12 15 15 13 14 13 13 13 13 12 12 13 13 12 14 14 13 14 15 17 17 18 16 15 14 13 14 14 14 15 15 15 14 15 15 15 15 16 15 16 16 17 17
13 15 17 16 16 17 16 16 16 13 14 13 12 13 14 15 14 16 18 17 20 18 16 14 14 14 14 14 14 14 14 14 15 15 15 15 16 16 17 16 17 17 17 18
15 17 17 17 17 18 17 16 16 13 13 15 14 19 19 15 18 20 19 21 19 18 16 14 14 14 14 14 14 14 14 15 15 15 16 16 16 16 17 18 17 17 17 18

GFSNW_con_lsi_054.txt.gz
Lid_Strength_Index
1 1 1 1 1 1 2 5 11 2 -0 9 8 11 8 8 8 6 7 7 9 10 9 11 10 10 8 6 5 8 6 8 11 10 7 6 7 9 9 13 14 12 13 12
2 1 1 1 1 1 3 8 8 2 2 12 11 8 9 8 8 7 8 8 8 8 10 11 9 8 5 6 6 7 7 9 12 11 9 8 9 8 8 8 10 12 15 12
1 1 1 1 1 1 3 8 10 7 5 5 8 9 9 10 7 7 6 7 7 8 10 8 10 8 7 6 5 6 6 8 10 13 10 8 10 9 8 9 12 11 11 10
0 1 1 1 0 1 3 8 9 8 12 9 8 7 8 10 10 7 6 8 8 9 11 10 10 9 8 7 7 6 6 10 9 8 8 8 8 9 8 9 9 11 10 9
0 1 1 -0 0 1 5 10 8 6 8 7 8 8 9 9 9 8 9 9 8 8 9 9 11 9 8 9 7 7 6 10 9 10 8 8 9 8 8 8 8 9 9 9
0 -0 -0 -0 0 1 5 5 4 5 8 8 9 9 9 9 7 7 6 7 8 9 8 6 6 6 6 6 8 9 9 9 10 12 9 10 13 10 9 8 8 8 10 7
0 0 0 0 0 1 2 4 5 7 9 8 9 8 7 8 8 8 6 6 7 6 4 4 5 6 6 6 7 6 9 10 10 12 13 19 9 7 7 8 7 7 7 6
0 0 1 0 1 1 2 3 4 5 10 7 7 7 8 6 6 7 6 5 4 4 5 8 10 10 11 9 7 8 7 9 12 16 14 11 10 8 8 9 9 6 6 6
1 1 1 0 1 1 2 2 1 3 7 8 6 8 7 8 8 7 6 4 3 4 8 10 13 14 12 12 11 8 8 8 11 13 15 19 9 6 5 6 11 5 5 6
1 1 0 1 1 1 3 3 -0 3 6 4 4 8 7 5 6 8 6 6 6 4 9 13 13 12 9 13 13 14 12 12 14 14 15 11 7 6 6 12 10 5 5 5
1 1 1 1 1 2 3 2 -0 2 5 4 3 4 6 5 6 9 6 7 7 8 11 11 11 13 11 11 9 12 12 13 15 13 16 17 7 7 9 6 5 5 5 5
1 1 1 2 1 2 2 5 1 -0 4 5 2 2 2 3 3 5 5 6 6 6 8 9 8 13 12 10 13 8 13 10 11 11 10 6 5 5 4 4 5 5 4 4
1 1 2 1 1 2 2 4 3 2 4 4 4 5 2 1 1 1 6 5 4 5 3 6 8 12 9 14 11 9 9 7 10 10 7 7 6 4 5 5 4 4 4 4
2 2 2 1 1 2 3 4 2 2 3 8 7 2 4 1 1 1 2 3 3 3 4 7 9 11 6 10 8 10 7 8 9 9 7 6 6 5 4 5 5 5 4 4
2 2 2 1 2 2 2 2 2 1 4 9 7 4 3 2 2 3 2 3 4 5 7 9 9 7 8 8 8 10 7 8 10 11 6 7 5 4 4 5 6 5 5 6
2 2 2 3 3 3 4 7 3 1 1 5 11 4 5 4 4 3 4 4 4 5 6 7 6 5 7 12 11 6 6 5 5 6 5 5 6 7 4 5 5 5 5 5
3 3 3 3 3 3 5 6 3 1 0 5 9 8 5 4 5 4 4 4 4 5 6 7 7 7 7 10 12 7 5 5 5 5 7 7 8 7 7 7 6 7 6 6
3 3 3 4 3 3 4 1 2 0 3 5 11 10 8 4 7 9 5 7 6 6 7 6 8 7 7 11 7 6 5 5 5 6 6 7 8 8 9 8 9 9 9 9
3 3 3 3 3 5 4 1 1 1 4 9 10 11 12 5 7 7 7 6 11 5 9 8 7 9 12 8 7 6 6 6 6 6 7 8 8 9 10 9 10 10 11 11
3 4 5 8 5 2 2 3 5 6 5 5 9 8 11 7 8 9 9 9 11 13 10 7 11 10 6 6 7 7 7 6 7 9 9 9 10 10 10 10 9 10 11 11
4 5 6 3 1 2 4 8 8 7 9 7 7 9 11 8 10 10 8 11 10 14 12 12 12 12 8 8 7 6 7 7 7 7 8 8 8 9 10 10 11 12 12 12
3 3 2 2 4 6 9 10 9 10 10 8 9 8 9 7 5 8 9 11 12 15 11 13 14 13 11 10 9 8 8 8 8 8 8 9 9 10 10 11 12 12 12 15
3 4 6 6 7 12 12 13 12 11 9 8 8 10 8 7 6 10 11 13 13 12 14 16 14 13 13 12 11 11 10 10 10 11 11 11 11 11 11 14 15 15 15 15
8 9 11 11 12 11 10 11 10 10 11 9 8 10 10 10 10 12 13 13 12 14 15 16 14 14 14 14 14 14 14 14 14 14 15 15 15 16 16 15 15 16 16 16
11 11 14 14 13 13 12 11 10 10 10 10 9 10 10 12 12 12 12 13 16 16 18 15 15 14 14 14 14 15 15 15 16 16 16 16 16 16 17 16 15 16 16 16
13 16 17 16 15 16 15 15 15 12 13 12 11 12 13 14 14 16 18 17 20 18 17 16 14 14 14 15 15 15 15 15 15 15 15 16 16 16 16 16 16 16 16 17
15 16 16 17 17 18 17 16 16 13 12 14 14 18 18 14 17 20 19 21 19 18 16 16 14 14 14 14 14 14 14 15 15 15 15 15 15 15 16 17 17 16 17 17

GFSNW_con_lsi_057.txt.gz
Lid_Strength_Index
2 2 2 2 2 2 2 5 10 3 1 9 8 10 8 6 6 6 6 6 7 8 7 9 9 9 8 7 6 8 6 8 11 10 6 6 7 8 9 13 13 12 12 13
2 2 2 2 2 2 4 8 7 1 2 12 11 8 7 6 7 6 7 7 6 6 8 10 8 8 7 7 6 7 6 9 12 11 9 7 8 8 8 8 9 13 17 12
3 1 1 2 2 2 3 8 11 7 5 6 8 9 10 8 6 6 6 7 6 7 8 7 9 8 7 6 6 6 6 8 10 13 10 8 10 8 8 9 12 12 11 10
2 2 1 1 1 1 3 8 8 7 11 10 8 8 8 8 8 6 6 7 7 8 9 9 9 8 7 7 6 6 6 10 9 8 8 8 8 9 8 9 9 11 10 9
1 0 1 0 0 0 5 9 7 6 7 7 8 8 8 8 7 7 8 8 7 7 8 8 10 8 8 9 7 7 6 10 9 9 8 8 9 8 8 8 8 8 8 9
1 1 0 1 1 0 4 5 3 5 7 8 9 9 8 8 6 6 5 6 7 8 7 6 6 6 6 7 8 8 8 9 10 13 9 9 12 9 8 8 7 7 9 7
1 1 1 1 1 0 3 3 3 7 9 9 8 8 7 7 6 7 5 5 7 5 3 4 5 6 6 7 7 6 9 9 10 13 13 18 9 6 6 7 7 6 6 6
0 0 1 1 1 0 2 1 3 6 9 7 8 8 7 6 6 7 6 5 4 3 5 8 10 10 10 10 8 7 7 9 12 15 14 10 9 7 7 8 8 6 6 6
0 0 0 0 -0 0 1 1 0 4 7 8 6 7 6 7 7 7 6 4 2 4 7 9 12 13 12 13 11 7 7 8 12 13 16 17 10 6 5 5 11 5 5 5
0 0 0 0 0 0 2 2 -0 3 7 5 4 7 7 5 6 7 6 5 6 5 9 12 12 11 8 12 13 14 13 12 15 14 14 11 7 6 5 12 11 5 5 5
0 0 0 0 1 1 1 2 -0 3 5 4 3 3 5 5 5 8 6 7 7 8 11 11 10 11 9 10 9 11 13 14 15 13 15 17 6 6 9 6 5 4 4 4
1 0 1 0 1 1 1 3 0 -0 3 5 2 2 2 3 2 4 5 6 6 6 8 8 8 11 11 9 13 7 12 10 12 10 10 6 5 6 4 4 4 4 4 4
1 1 1 1 1 1 0 2 1 2 4 4 4 4 2 1 1 1 6 5 4 5 3 6 7 10 8 13 11 9 8 6 9 9 7 6 5 4 4 4 4 3 3 3
1 1 1 1 1 1 1 2 1 2 4 9 6 1 2 1 1 2 2 3 2 2 3 6 8 10 5 9 8 9 7 7 8 8 6 6 5 5 4 4 3 3 3 3
1 1 1 1 1 1 1 1 1 0 4 8 6 3 2 2 3 4 3 3 4 4 6 8 9 6 6 6 7 9 6 7 9 10 6 7 6 4 4 4 4 4 4 4
1 2 1 2 2 2 3 7 3 1 1 5 8 2 3 3 3 4 3 4 4 4 6 7 5 4 6 11 11 6 5 4 4 6 5 5 4 4 4 4 3 3 4 3
2 2 2 2 2 2 5 5 3 2 1 4 7 7 3 3 4 3 4 3 4 5 6 7 6 6 6 9 12 6 5 4 4 4 4 6 5 5 5 4 3 4 4 4
3 3 3 3 3 3 3 2 2 1 3 3 9 10 8 3 7 7 4 6 5 6 6 6 7 6 7 11 7 5 5 4 5 4 4 4 4 5 5 5 5 6 5 5
3 3 3 4 4 5 3 2 2 0 2 7 9 11 12 5 7 7 7 6 9 5 8 8 7 8 11 8 6 6 5 5 5 4 4 4 5 5 6 7 7 6 7 6
3 4 5 7 3 2 2 5 7 4 3 5 9 7 11 10 9 9 9 8 10 12 9 6 9 10 6 9 6 5 5 5 4 6 7 6 6 6 7 7 7 7 7 7
3 4 5 3 2 4 5 7 8 8 10 7 7 7 11 8 10 10 8 11 10 14 12 10 11 11 11 10 8 6 5 5 5 5 5 6 5 5 7 7 7 8 8 9
3 3 2 3 4 6 9 10 8 9 10 7 8 8 7 7 6 9 9 12 11 15 10 12 15 13 12 11 11 9 8 6 6 6 6 7 7 7 7 8 9 9 11 14
1 3 5 5 7 11 12 13 11 12 8 8 8 9 6 6 6 10 10 14 14 10 13 15 14 13 13 13 12 12 12 11 11 10 10 11 11 11 12 13 13 13 14 15
7 9 11 11 12 11 11 11 10 9 9 8 7 9 9 8 10 11 13 12 11 14 15 16 15 14 14 13 13 14 15 15 15 15 15 15 16 16 15 15 15 16 17 17
11 11 15 13 11 10 11 10 9 10 10 10 8 10 10 11 11 11 11 13 15 16 17 16 14 13 13 14 14 14 15 15 15 15 16 16 16 16 16 15 15 16 17 17
12 15 16 14 13 13 13 12 12 11 11 10 10 11 12 13 12 14 16 16 19 18 16 15 14 14 14 14 14 14 14 14 15 15 16 16 16 16 16 16 16 17 17 17
14 15 15 16 16 16 15 14 13 11 11 13 13 15 16 12 15 19 18 19 18 17 17 16 15 16 15 14 15 14 14 15 15 15 15 15 15 15 16 17 17 17 17 17

GFSNW_con_lsi_060.txt.gz
Lid_Strength_Index
2 1 2 2 2 2 3 6 11 3 1 10 9 12 9 8 8 6 6 6 7 8 8 9 10 9 8 6 7 9 8 9 12 10 7 6 7 9 9 14 14 13 14 14
2 2 2 2 2 2 4 9 8 3 3 13 12 9 9 8 8 7 7 7 7 7 8 11 9 9 6 5 6 8 8 10 13 12 9 7 9 8 9 9 10 14 18 14
3 3 2 2 2 2 4 9 12 8 6 6 9 10 10 10 8 7 6 7 6 7 9 8 10 9 6 5 6 6 7 9 11 14 13 9 10 9 9 10 14 13 14 12
3 3 3 2 2 2 4 8 11 8 12 10 8 8 9 10 10 8 6 7 7 8 11 11 11 8 8 6 7 6 7 11 10 9 9 8 9 9 9 10 10 14 12 10
3 3 3 3 2 2 4 11 9 7 8 8 9 9 9 9 9 9 9 8 7 7 10 10 11 9 10 10 7 7 7 11 10 11 9 9 10 9 9 9 9 9 9 9
3 3 3 2 2 1 5 6 4 6 8 9 10 10 9 9 7 7 7 6 7 8 8 7 8 7 8 7 8 9 9 10 11 14 10 10 13 10 9 8 8 8 10 8
2 2 1 1 1 0 4 5 4 8 10 9 9 9 8 8 7 8 6 5 7 5 3 5 6 7 7 7 7 7 10 10 11 15 14 18 10 7 7 8 7 7 7 6
1 1 1 1 1 0 2 3 4 6 10 8 8 8 8 7 6 7 6 5 4 3 6 10 13 13 11 9 8 8 7 10 15 16 16 12 10 8 8 9 9 6 7 6
0 0 0 0 1 1 2 2 1 4 8 9 6 7 7 8 8 7 6 4 3 4 8 11 16 17 12 14 10 8 8 9 13 15 17 18 11 7 5 6 12 6 6 6
0 0 0 0 0 1 1 4 1 4 7 5 5 8 8 5 7 8 6 6 6 5 10 13 14 13 10 12 13 14 13 13 15 15 17 13 7 6 5 13 12 6 5 5
1 0 0 0 0 1 2 3 1 3 6 5 4 4 6 6 6 9 6 7 7 9 12 12 12 13 10 10 10 12 14 15 16 14 17 18 6 7 10 7 6 4 5 5
1 1 0 0 0 0 1 4 1 0 4 5 2 2 2 3 4 6 5 6 8 7 10 9 9 12 11 10 14 7 13 10 13 12 12 7 6 6 5 5 6 5 5 4
1 1 0 0 0 -0 1 2 2 2 5 5 5 5 2 1 1 1 7 5 4 6 4 7 8 11 8 14 12 10 8 7 10 10 8 7 7 5 5 4 5 4 4 4
1 0 0 0 0 0 0 2 1 2 4 9 6 1 3 1 1 2 2 4 4 4 5 7 9 11 6 11 9 9 8 7 9 9 7 7 6 5 5 4 4 4 4 3
0 0 0 0 0 0 0 1 1 0 4 8 7 3 2 1 2 2 3 4 5 6 8 9 10 7 7 7 8 9 6 7 10 11 6 7 6 5 4 5 4 4 4 4
1 1 1 1 1 1 1 5 2 0 1 6 10 4 4 3 2 3 4 4 5 5 8 8 6 5 7 11 10 7 5 5 5 6 5 5 4 4 4 5 4 4 4 4
1 1 1 1 1 1 4 5 3 1 0 5 8 7 4 3 3 4 4 3 5 6 7 8 7 7 6 9 12 6 5 5 4 4 4 6 5 6 4 4 4 4 3 3
2 2 2 2 1 2 3 1 2 1 4 4 8 9 7 3 7 7 4 6 6 6 7 6 8 7 7 11 7 6 5 5 5 5 4 4 4 4 5 4 4 5 5 5
2 2 2 2 2 4 3 2 1 -0 3 7 8 10 12 5 6 6 6 5 10 5 9 8 8 9 11 9 9 7 6 6 6 5 5 4 5 5 5 5 6 6 6 6
2 3 5 7 4 3 3 4 5 5 5 5 9 6 10 8 8 9 8 7 9 11 9 6 10 10 9 10 10 9 7 6 5 7 7 7 6 6 5 5 6 6 6 6
4 5 7 3 2 3 5 8 8 7 9 6 7 7 10 8 11 10 7 11 10 13 11 11 12 12 12 11 11 10 9 7 6 5 5 6 6 6 5 6 6 6 7 9
3 3 2 3 5 7 9 10 9 9 10 7 8 8 7 9 8 10 9 11 11 15 9 12 14 14 12 11 12 11 11 10 9 9 9 9 9 8 10 12 13 13 14 14
1 3 6 6 7 11 12 13 11 11 9 8 8 10 8 7 8 11 10 13 13 10 13 15 15 13 12 12 13 13 13 13 13 13 13 13 13 12 13 14 15 15 16 17
7 9 11 10 11 11 12 12 10 9 9 11 10 9 10 10 11 12 13 13 12 14 15 18 16 14 13 13 14 14 15 15 15 15 15 15 15 16 15 15 16 17 18 17
11 10 14 13 11 10 10 10 9 9 10 11 9 10 9 11 12 12 12 13 17 18 19 17 16 14 14 15 14 15 15 15 16 15 16 16 17 17 17 17 17 17 18 18
12 14 15 13 12 13 12 11 12 10 12 11 10 11 11 12 13 15 17 17 20 19 17 17 16 15 15 15 14 15 15 16 16 16 16 16 17 18 18 17 17 17 17 18
13 15 13 14 14 15 14 13 13 11 12 12 12 15 16 12 16 19 17 19 18 17 18 17 16 17 16 15 15 15 15 16 16 16 16 16 16 16 17 18 17 17 17 17

GFSNW_con_lsi_063.txt.gz
Lid_Strength_Index
1 1 1 1 1 1 2 6 11 4 3 10 10 12 11 9 9 7 8 7 9 10 11 12 12 11 10 7 7 10 9 11 14 12 9 8 9 10 10 16 16 15 16 16
2 2 1 1 1 1 4 8 9 4 5 13 13 11 10 10 10 10 9 9 8 8 10 13 10 10 7 6 7 9 9 11 15 14 11 9 10 10 9 10 12 15 18 16
2 2 2 2 2 1 3 9 12 8 7 8 12 12 12 11 8 9 8 9 7 10 10 9 10 10 8 7 7 7 7 11 13 15 13 10 12 10 9 10 16 15 15 13
2 3 3 2 2 2 4 9 11 9 12 12 11 11 10 12 11 9 8 10 9 10 12 11 11 10 10 8 7 8 8 12 11 11 10 9 10 10 10 11 11 14 13 12
3 3 3 3 2 2 5 12 10 9 11 9 11 11 12 11 10 10 10 11 10 8 10 10 12 11 10 11 9 10 8 12 11 12 10 10 11 10 10 10 10 11 11 12
3 3 3 3 3 3 5 6 7 9 10 10 11 12 11 10 9 8 8 8 10 10 9 7 8 8 8 9 10 11 11 12 13 15 11 11 14 11 10 10 9 10 13 10
3 3 3 3 3 3 3 6 6 9 12 11 11 10 10 10 9 10 8 7 9 8 5 5 6 7 8 8 9 9 12 11 13 16 14 19 11 8 8 9 9 8 9 9
3 3 3 3 3 2 4 4 5 8 11 10 10 10 10 9 8 9 8 7 6 5 7 10 13 13 12 11 9 10 9 12 15 17 16 13 11 9 9 10 10 8 9 9
1 1 1 2 2 2 3 4 3 5 9 10 7 8 8 10 10 10 8 6 5 6 8 11 15 17 14 15 12 9 10 10 14 16 19 19 12 8 6 7 13 7 7 8
1 1 1 1 1 1 2 4 3 4 8 6 6 8 9 6 7 9 8 8 7 7 11 13 15 15 11 16 16 15 14 14 16 16 18 15 9 7 6 14 13 7 7 7
0 0 0 0 1 0 1 4 2 4 7 6 4 5 7 6 7 10 8 8 8 10 13 13 13 14 12 13 11 13 14 16 16 15 18 19 8 8 11 9 7 6 6 7
1 0 0 0 0 0 0 5 2 1 5 6 3 3 3 3 4 6 6 8 8 9 11 12 11 14 13 12 14 9 15 12 14 13 14 8 7 8 6 6 6 6 6 6
1 0 0 0 0 0 1 3 3 4 6 6 6 6 3 1 2 2 8 7 6 7 6 9 10 13 10 15 13 11 9 8 11 11 9 8 7 6 6 5 6 5 5 5
1 1 0 0 0 0 1 3 2 4 5 9 8 2 4 1 1 2 3 5 4 5 6 9 10 12 8 12 10 11 9 8 10 11 8 7 7 6 6 6 5 5 5 5
1 0 0 0 0 0 1 1 2 2 5 9 8 4 3 2 2 3 3 4 6 7 9 10 11 9 9 9 9 11 8 9 12 13 8 8 7 6 5 6 5 5 5 5
0 0 0 0 0 0 2 6 2 0 1 7 11 5 5 3 3 4 5 5 6 7 8 9 8 7 9 13 13 8 7 7 7 8 7 6 6 5 5 6 6 6 6 6
0 0 0 0 0 1 4 6 4 1 1 6 10 10 5 4 4 6 6 5 6 7 8 9 9 8 8 12 13 8 6 6 6 5 5 7 7 7 5 6 6 6 6 6
0 0 0 1 1 1 4 2 1 1 4 5 11 11 8 4 8 9 6 7 7 7 8 8 9 8 9 12 9 8 7 6 6 6 5 6 5 6 6 6 7 7 7 7
1 1 1 2 3 5 4 1 1 1 4 9 12 13 12 6 7 7 7 7 12 7 10 10 9 10 12 12 11 10 9 8 8 6 6 6 6 6 6 7 7 8 8 8
1 2 5 8 5 2 2 4 6 6 6 7 12 9 13 8 9 11 11 10 12 13 10 8 11 13 11 11 10 10 10 9 8 9 9 9 9 8 8 8 8 8 9 11
3 6 7 5 2 4 6 10 11 9 12 9 9 9 10 7 10 10 9 11 13 15 12 11 13 15 13 12 11 11 11 10 10 9 10 10 10 10 11 12 12 13 13 15
4 4 3 4 6 7 11 13 11 12 12 10 11 9 8 9 8 10 9 11 12 15 10 12 16 14 13 12 13 13 12 12 12 12 12 12 12 12 12 14 15 15 16 16
3 5 7 8 10 13 16 15 14 12 11 10 9 11 10 9 8 11 10 13 13 9 13 17 17 14 13 13 13 13 13 14 14 14 14 14 15 15 15 16 16 16 16 16
9 10 15 14 14 14 14 13 12 11 11 11 11 10 10 11 11 11 13 11 12 15 18 20 17 15 14 13 14 14 15 15 15 15 16 16 17 17 17 17 16 17 18 18
14 14 16 16 13 13 12 11 11 10 11 12 11 10 10 11 12 12 12 15 20 19 22 18 16 15 14 15 15 16 16 17 17 17 18 18 18 18 19 18 18 18 18 19
14 15 16 16 18 18 17 14 13 12 12 12 12 12 13 15 16 18 19 20 22 21 19 18 17 17 16 16 16 16 16 17 17 17 17 18 18 19 19 18 18 18 18 19
14 15 13 15 17 16 14 13 16 12 13 14 15 19 18 14 20 22 19 22 21 19 19 18 18 18 18 17 18 17 17 17 16 17 17 18 17 17 18 19 18 17 18 18

GFSNW_con_lsi_066.txt.gz
Lid_Strength_Index
1 0 0 0 0 0 1 5 10 4 3 10 10 13 11 8 9 8 9 8 9 11 11 13 12 12 10 7 7 10 9 11 14 12 9 9 10 11 11 15 17 16 17 16
1 1 1 1 1 0 3 7 8 4 5 14 13 11 11 10 10 10 10 10 9 9 11 13 11 11 8 7 8 10 9 12 15 14 12 10 12 11 10 11 12 15 18 16
1 1 1 1 1 1 3 9 12 8 7 10 12 13 12 12 9 10 10 10 8 10 11 11 13 12 9 7 8 8 8 11 13 15 14 12 13 12 10 11 16 15 15 13
2 2 2 1 1 1 3 9 11 9 13 12 11 11 11 12 12 9 9 11 11 11 12 11 12 10 10 8 8 8 9 13 11 11 11 10 11 11 11 12 11 15 13 13
2 2 2 2 2 1 4 12 10 9 12 9 11 11 13 13 11 11 11 12 10 10 12 10 12 10 11 11 9 10 9 14 11 13 10 10 11 10 11 11 11 11 11 12
3 2 2 2 2 2 5 6 8 8 10 11 12 13 12 11 11 10 9 9 10 11 10 9 7 7 8 9 11 11 11 13 15 16 12 11 15 12 11 11 10 10 14 10
3 3 3 3 3 3 4 5 7 10 13 12 12 11 10 11 10 11 9 9 10 8 6 6 7 8 8 9 9 8 12 12 14 17 15 19 11 9 9 10 10 9 9 8
3 3 3 3 3 3 5 5 6 9 12 11 11 11 10 10 10 10 9 8 7 7 9 11 12 13 12 11 10 10 9 12 15 18 17 14 11 10 10 11 11 9 9 9
3 3 3 3 3 3 5 5 4 6 10 11 10 11 10 12 12 11 10 7 6 7 10 13 15 16 15 15 13 9 10 10 13 16 19 19 13 9 7 7 14 9 8 8
3 2 3 2 2 2 3 4 4 7 11 9 8 11 11 9 10 12 10 9 9 7 13 15 15 15 11 16 16 15 14 14 16 16 17 15 10 8 6 14 13 7 7 7
1 1 1 1 0 1 2 4 3 6 10 8 6 6 8 8 8 11 10 10 9 10 13 13 14 15 13 13 12 13 15 16 16 15 17 19 8 8 12 9 7 7 7 7
1 1 1 0 0 0 1 4 3 3 6 7 3 3 3 4 4 6 7 8 8 8 11 12 12 14 15 13 15 9 15 12 14 13 13 8 7 8 7 6 7 7 7 6
0 0 0 0 0 0 1 3 3 4 6 7 6 6 3 1 2 2 8 7 6 7 6 9 10 13 11 14 13 11 10 8 11 11 9 8 7 6 5 6 6 5 5 6
0 0 0 0 0 0 0 4 2 3 5 9 7 2 4 2 2 2 3 4 4 5 6 9 11 12 9 13 10 11 9 8 9 11 9 8 7 6 6 5 5 5 5 6
0 0 0 0 0 0 1 2 3 3 5 9 8 4 3 2 2 3 3 4 5 7 8 10 11 9 10 10 10 11 8 10 12 12 8 8 8 6 5 6 6 6 5 6
1 0 0 0 0 0 2 5 3 2 2 8 10 5 5 4 3 4 4 4 5 6 8 10 8 7 9 12 13 9 7 7 7 8 6 6 5 5 5 5 5 5 6 6
1 0 0 0 0 1 4 6 4 1 3 7 10 9 5 4 4 6 6 5 6 7 8 9 9 8 8 11 13 10 8 8 7 7 6 8 7 8 6 6 6 6 7 7
1 1 1 1 0 1 3 2 1 1 4 5 12 10 8 6 8 9 7 8 7 8 8 8 9 8 9 12 11 10 9 8 8 8 6 7 6 7 7 7 7 8 8 7
1 0 1 1 2 4 3 1 1 1 4 11 14 14 13 6 8 8 8 7 11 7 12 9 8 10 14 13 12 11 10 10 9 7 8 8 8 8 8 8 8 9 11 11
2 2 5 8 4 1 2 4 6 7 7 8 13 10 12 9 9 10 11 13 12 12 10 8 11 14 11 12 11 11 11 10 9 9 10 11 10 10 11 12 12 13 14 14
4 6 7 4 2 4 6 10 10 10 11 9 10 10 12 8 13 11 9 11 11 14 12 12 13 16 14 12 12 12 12 11 11 10 10 11 11 12 13 14 15 15 15 17
4 5 4 5 6 8 11 11 10 12 11 9 11 10 10 9 7 10 9 11 11 14 11 15 20 15 13 13 13 14 13 13 12 12 13 13 14 14 15 15 16 16 16 17
4 6 9 9 12 16 17 16 13 13 11 11 10 10 11 9 8 10 10 12 13 10 16 19 18 15 14 14 14 14 14 14 15 15 15 16 16 16 16 17 16 16 17 16
11 13 18 17 17 16 16 15 14 11 11 12 11 11 10 10 11 10 13 12 13 18 20 22 17 15 15 14 15 16 17 16 16 16 17 17 17 18 17 17 17 18 19 19
15 15 20 19 16 17 14 14 13 11 12 12 12 10 10 12 13 14 14 17 21 21 23 20 17 15 15 16 16 16 16 17 17 17 17 18 18 18 19 18 18 18 19 19
16 16 20 19 21 21 20 20 19 16 13 12 11 13 14 16 17 19 20 21 23 22 20 18 17 17 17 17 16 16 16 16 17 17 17 18 19 19 19 19 18 19 19 20
15 18 20 24 24 21 17 19 16 13 14 16 15 19 19 17 20 21 20 23 22 20 19 19 19 19 19 18 17 18 18 18 17 17 17 17 17 17 18 20 19 18 19 19

GFSNW_con_lsi_069.txt.gz
Lid_Strength_Index
-0 -0 -0 -0 -0 -0 1 4 9 4 2 10 12 16 13 9 10 8 9 9 10 11 12 13 13 12 11 7 8 11 9 11 14 12 10 9 10 12 12 16 16 16 17 16
-0 -0 -0 -0 0 0 2 7 7 3 4 13 14 12 11 10 10 10 10 10 9 9 12 14 12 11 9 7 8 10 9 13 16 14 12 11 12 12 11 12 14 15 18 16
-0 -0 -0 -1 1 0 2 10 11 8 7 9 11 12 13 12 9 10 9 10 9 10 12 10 13 13 10 7 8 8 8 12 14 17 14 12 13 12 11 12 16 16 15 14
0 -0 -0 -0 1 1 3 9 10 9 12 11 11 11 11 13 12 10 9 11 11 12 13 12 13 12 11 8 8 8 10 15 13 12 11 11 11 12 11 12 13 15 13 13
1 0 -0 1 1 1 4 11 10 8 10 9 11 11 13 13 12 11 12 12 11 11 13 12 13 11 11 11 9 10 9 14 13 15 11 11 12 11 11 12 12 12 12 13
1 1 2 2 1 2 6 6 7 7 9 10 11 12 12 12 10 10 9 10 11 12 11 9 9 9 8 9 10 11 11 13 15 17 13 13 16 12 12 11 11 11 13 11
2 2 2 2 2 2 4 5 6 9 12 11 11 10 11 11 10 12 9 9 10 8 7 8 7 8 8 9 9 8 12 13 14 17 15 21 13 9 9 11 10 10 10 9
3 3 3 2 2 2 4 4 6 8 12 10 11 10 11 10 10 10 11 9 7 7 9 12 13 13 12 11 10 10 9 12 15 18 17 14 12 10 11 11 11 9 10 9
3 3 3 3 3 2 4 5 4 6 10 11 9 11 10 12 12 11 10 7 6 8 10 13 15 18 14 15 13 9 10 10 14 16 19 20 14 10 9 8 14 9 8 8
3 3 3 3 3 3 4 6 5 7 11 8 8 11 11 9 11 12 10 9 10 8 13 15 16 15 12 16 16 15 14 14 16 16 17 15 10 8 7 16 14 8 7 8
3 3 3 3 3 3 4 6 5 7 11 9 7 7 9 9 10 13 10 10 10 12 14 15 15 17 13 13 12 14 15 15 16 15 17 19 8 9 13 10 8 8 7 7
3 3 3 3 3 3 3 6 4 4 8 9 7 6 5 6 7 8 8 9 9 9 12 14 14 16 16 13 16 10 15 12 14 13 13 8 7 8 7 7 7 7 7 6
2 1 1 1 1 1 1 3 3 4 8 9 9 9 5 3 4 4 9 8 7 8 8 11 11 14 12 16 15 12 10 8 12 12 9 8 7 6 6 6 6 5 5 6
1 1 1 1 1 1 1 3 2 4 6 10 9 5 6 4 2 3 4 4 4 5 6 10 12 14 9 14 11 12 10 9 10 10 8 8 7 6 6 6 5 5 5 5
1 1 1 0 0 0 1 2 2 2 6 10 9 4 3 2 3 3 3 4 6 7 9 10 11 9 10 10 10 12 9 10 12 13 9 9 7 6 6 6 6 6 5 6
0 0 0 0 0 1 3 7 2 2 2 7 11 5 5 4 3 4 4 5 5 6 8 9 8 6 9 13 13 9 8 7 7 9 7 8 6 6 6 6 5 5 5 6
0 0 0 0 0 2 4 6 4 1 2 7 10 9 5 4 4 5 5 5 6 6 8 9 9 8 8 11 13 10 8 9 8 7 7 8 7 8 7 7 7 7 7 8
0 0 0 0 0 1 3 3 1 2 5 6 11 10 8 5 8 8 6 7 7 7 8 8 9 8 9 12 12 10 9 9 8 9 7 7 7 8 9 8 8 9 11 12
0 0 1 2 2 4 3 1 1 1 4 9 11 12 13 7 8 8 9 8 10 8 12 10 9 10 15 14 13 12 11 11 11 9 8 9 8 9 10 11 12 12 14 15
1 2 5 8 4 0 1 3 7 6 7 9 12 12 10 7 8 12 11 12 12 12 10 8 13 14 12 12 12 12 12 11 10 11 11 11 11 11 12 13 13 14 16 16
4 5 7 3 1 3 6 10 11 10 11 10 11 11 12 9 12 10 11 10 13 16 13 12 14 16 14 13 13 13 12 12 12 11 11 12 12 12 13 15 15 15 16 17
4 4 3 4 7 9 11 11 11 10 11 10 12 10 10 9 7 11 9 11 11 14 11 15 19 16 14 14 14 14 14 14 14 14 14 14 15 15 15 16 16 16 16 17
4 7 10 11 14 17 18 17 15 15 11 11 10 10 10 9 8 11 10 12 13 12 17 20 18 15 14 15 15 15 15 15 16 16 16 16 16 16 16 17 17 17 18 18
12 14 20 19 21 18 17 16 15 12 13 13 12 10 10 10 10 10 12 14 13 19 22 23 18 16 15 15 15 16 17 17 17 17 17 17 17 18 17 18 18 19 20 20
15 16 21 20 17 16 15 15 15 12 12 12 11 10 10 13 14 15 17 18 22 21 23 20 18 16 15 16 16 16 17 17 17 17 18 18 18 18 18 18 18 18 19 20
16 17 20 19 21 20 19 19 18 14 14 12 12 13 15 17 17 19 20 21 24 22 20 18 17 17 17 18 17 17 16 16 17 17 17 18 18 19 19 19 19 19 20 20
18 20 20 24 25 23 20 19 17 14 14 16 15 20 20 17 20 22 21 24 22 21 20 20 20 20 20 19 19 19 19 19 19 18 18 18 18 18 19 20 20 19 19 20

GFSNW_con_lsi_072.txt.gz
Lid_Strength_Index
0 -0 -0 -0 -1 -1 0 4 9 3 1 10 11 14 14 10 10 9 10 10 11 11 12 13 13 12 10 8 8 11 9 12 15 13 10 10 11 12 13 16 17 16 17 15
0 -0 -0 -0 -1 -1 2 6 7 2 3 12 13 12 13 11 11 10 11 11 10 10 12 14 12 11 8 9 8 11 10 13 17 15 12 11 12 12 11 12 14 15 18 16
-0 -0 -0 -1 -1 -1 1 9 10 7 6 8 10 12 13 13 9 10 10 10 10 11 12 11 13 13 10 9 9 8 8 12 14 18 15 13 14 12 11 12 16 16 15 14
0 -0 -0 -1 -1 -1 1 9 10 7 11 10 10 10 11 13 12 10 9 11 11 12 14 13 13 11 11 10 7 8 9 14 13 13 12 12 12 12 11 13 13 15 14 13
0 -0 -0 -0 -1 -1 3 10 9 7 10 8 10 10 12 13 12 11 12 12 11 11 13 12 13 12 12 13 10 10 10 14 14 15 12 12 13 12 11 12 12 12 13 13
2 1 0 -0 -1 -1 4 6 6 6 8 9 10 11 11 12 10 10 9 9 10 12 11 9 9 9 9 10 11 13 11 13 15 17 13 13 16 13 12 11 11 12 14 12
2 2 1 1 0 -0 2 4 5 8 11 10 10 10 10 10 10 11 9 9 10 8 7 8 8 9 9 9 10 9 11 13 14 16 15 21 13 9 10 11 10 10 10 10
3 2 2 1 1 0 2 3 5 8 11 10 10 10 10 10 9 10 10 8 7 6 9 12 14 14 13 11 10 9 9 12 15 18 18 14 14 11 10 13 13 10 10 9
3 3 2 2 1 1 3 4 3 6 10 10 9 10 9 11 12 11 10 7 6 7 10 13 16 18 15 15 13 9 10 10 14 15 19 20 15 10 8 9 14 9 8 9
3 3 3 2 2 2 3 4 3 6 9 7 8 10 10 9 10 12 10 9 9 8 12 14 15 15 12 15 16 15 14 14 16 16 17 15 10 8 7 16 14 8 8 8
3 3 3 3 2 2 3 5 3 7 10 8 6 7 8 9 9 12 10 10 10 11 14 14 14 16 14 14 12 14 15 16 16 15 17 19 8 9 13 10 9 8 7 8
3 3 3 3 3 3 3 7 4 4 7 8 6 5 5 6 6 8 8 9 10 11 14 14 14 16 16 13 16 11 15 12 14 13 14 9 8 8 6 6 6 7 7 6
3 3 3 3 3 3 4 6 5 6 9 8 8 9 6 4 4 4 9 8 7 9 9 12 13 15 14 17 15 13 11 9 12 12 10 9 8 7 6 6 6 6 5 5
1 2 3 3 3 3 4 6 5 6 8 12 11 6 7 5 4 4 5 5 4 5 7 11 13 14 11 15 12 13 11 10 11 11 9 8 7 7 6 6 5 5 5 5
1 1 2 2 2 3 4 4 4 4 7 11 12 6 5 5 5 4 4 4 5 7 8 12 13 11 11 12 11 13 9 11 12 13 9 9 8 6 6 7 6 5 5 5
1 1 1 2 1 1 3 7 3 2 4 8 11 6 6 5 3 4 5 5 5 6 8 10 8 7 9 15 14 9 8 8 7 8 8 8 7 6 7 8 7 7 8 10
1 1 1 1 1 2 6 7 4 1 2 7 13 9 5 4 4 5 6 4 6 6 8 8 8 9 8 11 13 10 9 8 8 6 8 8 8 8 8 9 8 9 11 12
0 0 1 0 1 1 3 2 1 1 4 5 11 10 8 4 8 8 6 7 6 7 8 9 9 8 9 12 12 10 10 10 9 9 8 7 7 8 10 10 11 12 13 14
0 0 0 1 3 4 4 1 1 1 5 9 10 12 13 6 8 7 8 7 10 7 10 10 8 10 13 13 12 12 12 12 12 10 9 9 9 10 12 13 13 14 16 15
1 2 5 8 4 1 1 4 6 6 6 8 10 10 11 8 10 10 10 10 11 12 10 9 14 14 13 12 13 12 12 12 11 12 11 12 12 12 13 14 14 15 16 16
3 6 7 2 0 3 7 10 10 9 11 10 10 11 11 10 12 10 11 11 13 13 12 11 14 17 14 13 14 13 13 12 13 12 13 13 13 14 14 15 15 15 15 16
3 3 2 5 7 9 10 11 10 11 12 10 10 10 10 9 9 11 10 13 11 14 11 15 19 16 15 14 14 14 14 14 14 14 14 15 15 15 16 16 16 17 17 17
5 8 11 11 15 19 19 18 14 14 12 12 10 10 10 9 8 11 10 12 13 13 18 20 19 16 15 15 15 15 15 15 15 15 15 16 17 16 17 18 17 17 18 18
12 14 21 20 21 18 17 17 17 13 14 14 14 10 10 10 11 12 13 15 14 19 23 23 19 16 16 15 15 16 16 16 17 17 17 18 18 18 18 18 19 19 20 20
16 17 22 21 17 16 16 15 14 13 12 13 11 11 12 15 16 16 16 19 22 21 23 20 18 17 17 17 16 16 16 17 17 18 18 19 19 19 19 19 19 19 20 20
16 17 20 19 19 19 19 18 17 14 14 12 12 14 16 17 17 20 21 22 24 23 21 19 18 19 18 18 18 18 17 17 17 18 18 18 19 19 20 19 20 20 20 21
18 20 20 23 21 22 20 19 17 15 14 16 16 20 20 17 20 23 22 25 23 21 20 19 19 19 19 19 18 18 18 19 19 18 18 19 19 19 20 21 20 20 20 20

GFSNW_con_lsi_075.txt.gz
Lid_Strength_Index
2 2 2 1 1 0 2 4 9 2 1 9 10 13 12 9 10 9 9 9 10 11 10 12 13 12 10 9 8 11 9 11 14 12 9 9 10 11 11 15 15 15 15 14
2 2 2 1 0 0 3 6 6 1 2 12 11 10 11 10 10 9 10 11 9 9 11 13 12 12 8 9 10 12 9 12 15 13 11 9 11 11 10 11 12 14 17 14
2 1 1 1 0 -0 1 7 10 6 5 6 9 10 11 12 9 10 9 9 9 10 11 9 12 11 10 8 9 8 7 12 15 17 15 12 14 12 11 11 15 14 13 12
1 1 1 -0 -0 -1 2 7 9 7 11 10 9 8 9 11 12 9 8 10 10 10 12 12 12 11 11 9 8 8 8 13 12 12 10 11 12 12 12 13 12 14 12 12
2 1 1 0 -0 -1 3 8 8 6 8 7 9 9 10 11 11 10 11 11 10 10 12 11 12 11 11 12 10 10 10 14 12 14 11 10 13 11 10 11 11 11 11 11
2 2 1 1 0 -0 4 4 4 6 8 9 10 10 10 10 10 9 9 9 10 11 10 8 8 8 8 9 10 12 11 13 14 16 13 13 15 12 11 10 10 10 13 9
2 2 2 1 1 1 2 4 4 7 11 10 10 9 9 10 9 11 9 8 9 8 6 6 7 8 9 9 9 8 11 12 13 16 14 19 11 8 9 10 9 8 8 9
2 2 2 2 1 1 3 2 4 7 10 9 9 8 9 9 8 9 9 8 7 5 8 11 12 12 11 10 9 9 8 10 15 17 17 13 11 9 10 11 11 9 9 8
2 2 2 2 2 1 2 2 1 4 9 10 7 8 8 10 11 10 9 6 5 6 9 12 15 16 13 14 12 8 9 9 14 15 18 19 11 8 7 7 13 8 8 8
2 2 2 2 2 1 2 3 1 4 8 6 6 9 9 8 9 11 9 9 9 7 11 13 14 14 12 15 15 14 13 14 15 15 17 14 9 7 7 14 12 7 7 7
2 3 3 3 2 1 2 3 1 4 8 6 5 5 7 8 9 11 9 9 9 10 12 13 13 14 12 13 11 13 13 14 15 14 16 17 7 8 11 8 7 6 6 6
1 3 3 3 2 2 2 4 1 2 6 7 4 4 4 5 6 8 8 8 9 9 11 11 11 13 13 12 14 10 14 12 13 12 12 8 6 7 5 5 6 6 6 5
1 2 3 3 3 2 2 5 3 5 9 8 8 7 4 3 4 3 9 7 6 8 7 10 11 13 11 14 12 11 9 8 11 11 8 8 6 5 5 5 6 5 5 5
1 2 3 3 3 3 3 5 4 6 7 10 9 5 6 3 4 4 4 5 4 5 6 9 11 12 10 12 11 11 9 8 10 10 8 7 6 6 6 5 5 5 6 5
1 1 2 3 3 3 4 4 4 4 7 11 10 6 5 4 4 5 4 4 5 6 8 10 10 9 9 10 10 10 8 9 11 11 9 9 8 6 6 7 7 7 9 9
1 1 2 2 3 3 5 9 5 3 4 8 12 6 6 6 5 6 5 5 5 6 7 9 8 6 8 11 12 9 8 8 8 9 7 7 7 6 7 8 9 9 10 12
1 1 1 2 2 4 7 8 5 3 3 8 11 10 6 6 5 5 5 4 5 6 7 8 8 8 7 10 13 10 9 10 9 8 8 8 7 7 8 9 10 10 11 12
1 1 1 1 2 2 5 3 2 3 5 6 12 11 8 4 8 8 5 7 7 7 8 8 9 8 8 12 12 11 11 10 9 10 9 9 7 7 9 10 11 12 14 14
0 1 1 2 4 6 4 1 1 2 5 10 10 12 12 5 7 7 9 7 10 7 10 9 8 10 12 13 13 13 12 12 12 10 9 9 9 10 11 11 13 13 15 15
2 3 6 8 4 1 2 4 6 6 5 7 10 9 10 8 8 9 10 9 10 12 10 8 11 15 13 13 12 12 13 12 12 13 12 13 13 12 13 14 14 15 15 16
3 6 6 3 1 4 6 9 9 8 10 10 9 10 10 8 10 10 9 10 10 13 11 11 14 16 15 13 13 13 13 13 13 12 12 13 13 14 14 15 15 16 16 17
3 4 4 5 8 9 10 11 10 10 12 10 9 9 9 9 8 9 9 11 11 14 12 15 19 16 14 14 14 14 14 14 14 14 14 14 14 15 15 16 17 17 17 18
6 9 11 11 14 18 18 17 15 14 13 12 10 10 9 9 8 9 10 13 15 13 17 20 18 15 15 15 15 15 14 15 15 15 15 15 16 16 17 18 18 18 19 19
12 15 21 20 21 18 17 17 16 13 13 13 12 10 11 11 12 13 14 15 14 19 22 22 18 17 16 15 15 16 17 16 17 17 17 17 18 18 18 18 19 20 21 20
16 17 22 20 17 16 16 16 15 13 13 12 10 12 12 15 17 16 16 19 22 21 22 20 18 17 17 17 17 17 17 17 17 17 18 18 18 19 19 19 19 19 20 20
16 18 19 19 19 19 18 18 17 14 14 11 12 14 17 18 18 20 22 21 24 22 20 18 18 18 18 18 17 17 17 17 17 17 17 18 19 19 19 19 20 20 21 22
17 19 18 20 20 20 19 18 17 15 14 16 16 19 20 16 20 23 21 23 21 20 19 19 18 19 19 18 18 18 18 18 18 18 18 18 18 19 19 21 20 20 20 21

GFSNW_con_lsi_081.txt.gz
Lid_Strength_Index
0 1 1 1 1 1 2 4 9 0 -1 8 8 10 8 6 7 6 7 7 8 9 9 10 10 12 9 7 8 9 8 10 13 11 8 7 8 10 10 15 15 13 13 14
-0 0 1 1 1 1 3 6 6 0 1 11 10 7 7 6 7 7 7 8 7 7 9 11 9 9 7 8 9 9 8 10 14 15 10 9 10 9 8 9 10 14 18 13
-0 0 0 1 1 1 1 5 9 5 5 6 8 9 9 9 5 6 6 7 6 7 9 7 9 9 8 8 9 8 7 10 12 14 12 10 11 9 8 9 13 13 12 11
-0 0 1 1 1 1 2 5 8 5 9 8 8 8 9 8 9 6 5 7 7 8 10 9 9 8 8 9 8 8 8 12 11 10 10 10 10 11 10 11 10 13 11 11
0 0 1 0 1 0 3 8 7 5 6 6 7 8 9 9 7 7 8 8 7 7 9 9 10 8 8 8 9 9 8 11 10 11 9 9 10 9 9 9 9 9 9 9
-0 -0 0 0 0 1 5 3 3 5 7 6 8 9 8 9 7 6 5 6 7 8 7 6 6 5 6 7 8 10 10 10 11 14 10 11 13 10 9 9 8 8 11 8
1 1 0 0 0 1 2 3 4 7 10 7 7 7 7 8 8 9 6 5 7 5 3 4 5 6 6 6 7 6 9 10 10 13 12 18 10 7 7 8 7 7 7 7
0 0 1 1 2 1 2 2 4 7 9 7 6 6 7 8 7 7 7 5 4 4 5 9 11 10 10 9 7 7 7 9 12 14 13 11 9 8 8 9 9 7 7 6
0 0 0 0 1 1 2 2 2 4 8 8 5 6 6 8 8 8 7 4 3 4 8 11 14 14 11 12 10 7 7 8 11 13 16 16 9 7 5 6 11 6 6 6
0 0 0 0 0 1 2 3 1 3 8 5 4 6 6 5 6 9 7 7 7 6 11 13 13 13 9 13 13 13 12 12 14 13 14 11 8 6 6 13 11 6 5 6
-0 -0 0 0 0 0 2 3 1 3 6 5 3 3 5 5 6 10 7 9 8 9 12 11 11 12 10 10 9 11 12 14 14 13 16 17 5 6 10 8 6 5 5 5
-0 -0 -0 0 0 0 1 5 1 0 4 4 1 1 1 2 3 6 6 7 7 7 9 8 8 11 9 10 13 8 14 9 11 10 10 6 5 7 5 5 5 5 5 4
-0 -0 -0 -0 0 0 1 4 2 3 5 5 4 4 1 0 1 1 7 6 4 6 4 7 9 11 8 12 10 10 7 7 10 11 8 7 7 5 5 4 5 4 4 4
-0 -0 -0 -0 0 0 1 5 2 3 5 8 5 1 3 1 1 1 2 4 3 4 5 7 8 10 6 9 8 10 7 7 8 8 7 6 5 5 5 4 4 4 4 4
-0 -0 -0 -0 0 0 1 3 2 0 4 7 6 3 2 2 2 3 3 4 5 6 8 9 9 7 7 6 7 9 6 8 9 10 7 7 6 5 4 4 5 5 5 5
0 -0 -0 0 1 1 4 7 3 -1 0 6 9 4 4 3 3 4 4 4 5 6 8 8 6 5 7 10 11 8 6 6 7 8 7 6 5 6 7 7 6 6 6 6
0 0 1 1 1 3 6 5 3 1 1 6 8 8 4 3 4 4 5 4 6 6 7 8 7 7 6 8 11 10 9 8 7 8 7 7 7 9 9 9 8 8 9 10
1 1 1 1 2 3 3 2 2 1 4 5 9 8 7 4 7 8 5 7 7 7 8 6 7 6 7 11 11 11 10 9 8 9 9 9 8 8 8 8 9 10 11 12
1 2 2 3 4 6 5 2 2 1 4 8 8 10 12 5 6 7 7 7 10 7 9 8 7 8 12 14 13 12 11 11 11 9 8 9 10 9 9 9 9 10 11 11
2 2 5 9 4 2 2 4 7 6 5 5 8 6 10 6 7 8 8 8 10 12 10 6 10 14 13 13 12 11 11 11 10 11 11 11 11 11 11 11 11 12 12 12
2 5 7 4 1 3 4 8 8 8 10 7 7 7 9 6 9 9 6 10 9 12 11 11 11 14 14 12 12 11 11 10 11 11 11 11 12 12 12 12 12 13 13 14
2 4 3 4 5 6 9 9 8 9 11 8 8 8 7 7 6 8 8 11 10 14 8 12 14 15 13 13 12 12 12 12 12 12 12 12 12 12 12 13 14 14 15 15
3 5 8 7 9 11 11 13 11 11 9 8 8 9 7 7 6 8 9 12 12 8 11 15 15 14 14 13 13 13 13 13 13 13 13 13 14 13 14 15 14 14 15 15
8 9 14 11 12 12 12 11 11 10 9 9 8 8 8 7 8 9 11 11 10 13 14 16 15 14 14 13 13 14 15 14 15 15 15 16 16 16 16 16 16 17 17 17
10 10 14 14 12 11 12 11 10 10 9 9 7 8 8 10 11 10 11 13 15 14 15 15 14 14 14 14 14 14 15 15 16 16 16 17 17 18 18 17 17 17 18 18
11 12 13 11 11 12 12 11 11 10 10 8 6 9 11 13 12 14 16 15 16 16 15 14 14 15 15 15 15 15 15 15 16 16 16 17 18 18 18 18 18 18 18 19
13 14 12 12 12 13 13 12 11 10 9 11 9 13 15 11 14 17 16 17 16 16 16 15 15 16 16 16 16 16 16 16 16 16 16 17 16 17 18 19 18 18 18 19

GFSNW_con_lsi_084.txt.gz
Lid_Strength_Index
-1 -1 -1 -1 -0 0 1 4 9 1 -0 9 8 11 8 7 7 5 7 7 8 9 8 9 9 12 9 7 8 10 8 10 14 13 9 8 9 11 12 17 18 15 17 17
-1 -1 -1 -1 -0 -0 2 6 7 1 2 11 11 8 8 7 7 7 7 8 7 7 8 10 9 8 6 7 8 10 9 11 15 13 11 9 11 10 10 11 13 17 20 16
-1 -1 -1 -1 -1 -0 2 6 9 6 5 6 8 10 9 9 6 7 6 7 6 7 8 7 9 9 7 7 8 8 8 10 13 18 15 13 12 10 10 11 16 16 16 14
-1 -1 -1 -1 -0 -0 2 6 8 5 10 9 8 8 9 9 9 6 6 7 7 8 10 9 9 8 7 6 8 9 9 13 11 11 12 12 12 13 13 12 12 15 13 12
-0 -0 -1 -1 -0 -0 4 8 8 6 7 6 8 8 9 10 8 7 8 8 7 7 9 9 10 8 8 10 7 9 9 12 11 12 10 10 12 11 10 12 11 11 10 11
-1 -1 -0 -0 -0 0 4 4 2 5 7 7 8 9 8 8 7 6 6 7 7 8 7 7 6 6 6 7 8 9 10 11 12 14 10 11 14 11 10 9 9 9 11 9
0 0 -0 -0 0 1 3 3 3 7 10 8 8 7 7 7 7 8 6 7 8 6 4 4 5 6 6 6 7 6 9 11 11 14 12 19 11 7 8 9 8 7 7 8
0 0 0 1 0 -0 2 2 3 6 9 7 8 7 7 6 6 7 7 7 5 3 6 9 11 11 10 9 8 8 7 10 13 15 15 12 11 9 9 10 9 7 8 8
0 0 0 0 0 1 2 2 1 4 8 9 7 7 6 8 8 9 7 4 3 4 8 11 14 15 12 13 11 7 8 8 12 14 16 17 10 7 6 6 12 7 7 7
0 0 0 0 0 0 1 3 1 4 8 6 6 7 7 5 6 8 8 7 7 5 11 13 13 13 9 14 14 13 12 12 15 15 16 12 7 6 6 13 13 7 6 7
0 -0 -0 -0 0 0 1 3 1 4 7 6 5 4 5 5 6 9 7 9 8 9 12 13 11 12 11 11 10 11 13 15 15 14 15 17 6 7 10 9 6 6 6 6
-0 -0 -0 -0 -1 0 1 4 1 1 5 6 3 2 1 2 3 6 6 8 8 7 10 9 9 12 10 11 13 8 13 10 12 11 11 6 6 7 5 5 6 6 6 5
0 -0 -0 -0 -0 -1 1 3 3 3 5 6 5 5 2 0 1 1 7 6 5 6 5 8 9 12 9 13 11 10 9 7 11 10 9 8 8 6 5 5 5 5 4 4
0 -0 -0 -0 -0 -1 0 4 2 3 5 9 6 2 3 0 0 1 2 3 3 4 5 8 10 12 7 10 9 9 9 8 9 10 8 8 7 6 6 5 5 5 5 5
-0 -0 -0 -0 -0 -0 0 3 2 2 4 8 7 3 1 1 1 2 2 3 4 6 8 9 10 7 8 8 8 10 8 10 11 13 8 8 9 7 6 6 7 6 6 6
-0 -0 -0 -0 -0 -0 4 8 2 1 1 6 10 3 3 2 2 3 4 4 5 6 8 8 7 5 8 12 11 8 7 7 8 9 8 6 7 8 7 8 7 7 8 8
0 -0 -0 -0 -0 3 5 5 3 1 1 6 9 9 4 3 3 4 4 4 5 6 7 8 7 7 7 10 13 10 9 7 8 8 8 8 8 10 8 8 8 7 9 10
0 0 -0 -0 1 2 3 1 1 0 3 4 9 10 7 3 7 8 4 7 7 7 8 7 8 7 8 12 11 10 10 9 9 9 8 8 8 8 9 8 9 9 11 12
0 0 1 3 3 5 3 1 0 -0 3 8 9 11 12 4 7 7 7 7 10 7 9 9 8 10 14 13 12 12 12 11 11 10 9 10 10 10 10 11 12 12 13 13
1 2 5 8 4 1 2 4 6 6 5 5 9 6 10 6 7 8 8 8 10 12 9 7 10 14 12 12 11 12 11 11 11 12 13 12 13 13 12 13 13 13 14 14
3 5 7 3 1 3 5 9 9 8 10 7 7 7 9 6 9 10 7 10 9 13 11 11 12 15 14 12 12 12 12 11 12 12 12 12 12 13 12 13 13 14 15 15
3 4 3 3 5 6 9 10 8 9 11 8 8 8 7 7 6 8 8 10 10 14 8 12 16 15 13 13 13 13 13 13 13 13 13 13 13 13 14 14 15 15 15 15
2 5 8 7 8 11 11 13 11 11 10 9 8 10 8 7 7 9 9 12 12 8 12 15 16 14 14 14 14 14 14 14 14 14 14 14 15 14 14 15 15 16 16 16
7 8 13 11 13 13 13 12 12 11 10 9 8 8 9 8 9 9 11 11 10 13 14 17 16 15 14 14 14 15 15 15 15 16 16 16 16 16 16 17 17 18 18 18
10 9 14 14 12 11 10 10 10 9 8 8 8 8 8 10 11 10 11 13 14 15 17 16 15 14 14 14 14 15 15 16 16 16 17 17 18 18 18 18 18 18 19 19
11 12 12 10 10 11 11 10 10 9 8 7 6 9 11 12 11 13 14 14 17 17 15 14 14 15 15 15 15 15 15 15 16 16 17 17 18 19 19 19 19 19 19 20
12 13 11 11 12 13 12 11 11 8 8 11 9 13 14 11 14 17 16 18 17 16 16 15 15 15 16 15 16 15 16 16 16 16 16 16 16 16 17 18 18 18 18 19

GFSNW_con_lsi_087.txt.gz
Lid_Strength_Index
-0 -0 -1 -1 -1 -1 1 4 11 3 1 9 8 11 9 6 8 6 7 7 8 10 10 11 10 12 9 8 9 11 9 11 15 13 9 8 10 13 13 18 18 16 18 18
-1 -1 -1 -1 -1 -1 3 6 8 3 2 12 11 9 9 7 8 8 8 8 7 8 10 12 9 10 7 7 8 11 10 13 17 15 12 9 11 11 11 12 14 18 20 17
-1 -1 -1 -1 -1 -1 2 6 12 8 6 7 9 10 10 10 6 7 7 9 8 9 10 8 10 9 7 6 7 6 8 11 14 18 16 13 15 13 11 13 17 16 17 15
-1 -1 -1 -1 -1 -1 2 6 8 7 15 10 9 9 10 11 10 7 7 9 8 9 11 10 11 9 8 7 7 7 8 13 12 11 11 12 13 14 13 14 13 17 14 14
-0 -1 -1 -1 -1 -1 4 8 9 7 9 7 9 9 10 10 9 8 9 9 8 8 10 10 11 10 10 11 8 9 8 13 12 13 10 11 13 12 12 12 13 13 13 13
0 -0 -1 -1 -1 0 5 4 5 7 9 9 10 11 9 9 8 7 7 7 9 10 9 7 8 7 7 8 9 10 10 11 13 16 11 12 15 12 12 12 11 11 15 11
0 0 0 -0 -0 0 5 5 6 9 13 11 10 8 7 8 8 9 7 7 9 7 5 5 6 6 7 8 8 8 11 12 12 16 14 20 12 8 8 9 9 9 10 9
0 0 0 0 0 -0 4 4 6 8 13 9 9 8 8 7 6 8 8 7 6 5 7 10 12 12 12 10 8 9 8 11 15 17 17 13 11 9 10 11 12 9 9 9
1 1 0 0 0 0 2 3 3 7 10 11 7 8 7 9 9 9 8 5 4 6 9 12 15 17 13 13 11 8 8 9 13 15 18 19 12 8 6 7 15 8 8 8
0 0 0 0 0 0 2 4 3 6 9 7 7 9 9 7 8 10 8 8 8 6 11 14 15 15 10 15 15 14 13 13 15 15 17 14 8 7 6 14 14 8 7 7
0 0 0 -0 -0 -0 2 3 3 5 8 7 6 6 8 7 7 11 8 9 8 9 12 13 13 14 12 13 11 13 14 15 16 15 17 18 7 7 12 10 7 7 7 7
1 -0 -0 -0 -0 -0 0 4 3 2 6 7 5 5 4 5 4 6 6 8 8 8 11 11 11 14 12 13 16 10 15 11 14 12 13 9 7 8 6 6 7 7 7 7
0 -0 -0 -0 -0 -1 -0 3 3 4 6 7 7 8 4 3 3 2 8 6 5 7 5 9 10 13 10 15 13 12 10 8 11 11 10 9 8 6 6 6 8 7 7 7
0 0 0 0 -0 -1 -1 3 3 4 6 10 8 4 6 4 4 4 3 4 3 4 5 8 10 12 8 12 10 11 10 9 11 11 9 8 7 7 7 7 6 7 6 7
0 -0 -0 -0 -1 -1 -0 2 2 3 6 10 8 5 4 4 4 4 3 4 5 7 8 9 10 9 9 9 9 11 8 10 12 13 10 9 10 9 8 9 9 9 10 10
0 -0 -0 -0 -0 -0 4 8 3 2 3 6 10 4 5 4 4 4 5 4 5 6 8 8 7 6 8 12 13 10 9 9 9 11 9 8 9 9 9 10 9 10 11 12
-0 -0 -0 -0 -0 2 5 6 4 1 2 6 9 9 5 4 4 5 5 5 5 7 7 8 8 8 7 11 13 11 10 10 10 9 8 10 10 10 9 10 9 10 11 12
-0 -0 -0 -0 1 1 3 1 1 1 4 5 10 10 8 4 7 8 5 7 6 6 7 7 9 8 8 14 12 12 11 11 11 10 10 10 10 10 11 11 12 13 13 13
-0 -0 0 2 3 5 3 1 1 1 4 9 10 12 12 5 7 6 7 6 10 7 9 9 8 12 16 13 13 13 13 13 13 11 12 12 13 13 12 13 14 15 15 15
1 2 5 8 3 0 1 4 5 5 5 6 9 7 10 7 8 9 9 9 10 12 10 7 13 16 13 12 12 13 13 13 13 15 15 14 14 14 15 15 15 16 16 16
2 6 7 3 1 3 5 9 9 8 10 8 8 8 9 6 10 10 10 11 10 14 11 11 14 17 15 13 14 13 13 13 14 14 14 14 14 15 16 16 16 17 17 18
3 4 2 3 5 7 9 10 9 10 11 9 9 8 7 8 7 9 9 11 11 14 9 12 18 16 15 14 15 15 15 15 15 15 16 16 15 15 16 16 16 17 17 17
3 5 7 7 9 12 15 15 13 13 11 10 9 10 9 9 8 10 10 12 13 11 14 19 18 15 15 15 15 15 15 15 16 16 16 16 17 16 16 17 17 17 18 18
8 11 17 13 14 14 14 13 12 11 10 9 9 10 9 9 11 10 14 12 11 14 19 22 17 16 16 15 15 16 17 17 18 18 19 19 19 19 19 19 19 19 20 19
12 12 16 16 13 12 12 10 11 11 9 9 9 11 10 11 14 11 13 13 17 18 22 19 17 17 16 16 15 18 18 19 18 20 20 22 22 20 20 20 20 20 20 20
12 13 13 12 14 14 13 12 12 10 9 9 10 12 13 15 12 14 18 17 22 21 18 17 17 18 17 17 17 17 17 18 18 19 19 20 21 21 21 20 20 20 20 21
13 15 14 13 15 14 14 13 13 10 11 13 11 14 16 12 17 20 18 22 20 18 17 16 17 17 18 18 17 17 18 19 19 19 19 19 18 18 18 19 19 19 19 20

GFSNW_con_lsi_090.txt.gz
Lid_Strength_Index
1 1 0 -0 -1 -0 1 4 9 3 1 10 10 12 10 7 8 8 9 9 9 11 11 12 11 13 10 9 9 12 11 12 15 13 10 8 10 13 13 18 19 17 18 18
1 1 -0 -1 -1 -1 3 6 7 3 2 13 11 9 9 8 9 9 9 9 8 9 11 13 11 10 7 8 9 11 10 12 17 15 12 10 13 11 12 13 14 18 20 18
1 1 -0 -1 -1 -1 3 6 10 9 6 7 9 10 10 10 6 8 8 8 7 9 11 10 11 10 8 7 8 6 8 11 14 18 15 13 15 13 12 13 17 17 16 15
1 1 -0 -1 -1 -1 3 6 12 7 11 9 10 9 10 11 10 7 7 8 8 10 11 11 12 9 9 7 7 8 10 14 12 12 11 12 13 13 13 15 14 17 15 14
1 0 0 -1 -1 -1 5 8 9 7 9 8 9 9 10 11 9 9 9 10 9 9 12 11 12 10 10 11 8 9 9 13 12 13 11 11 13 12 12 13 13 13 13 13
1 0 0 -0 -0 1 5 6 7 8 10 10 11 10 9 10 8 7 7 7 9 10 9 8 7 7 8 8 10 11 11 12 14 16 11 13 15 12 13 11 11 12 15 12
1 0 0 0 -0 0 6 6 7 11 14 11 11 10 9 9 9 9 7 7 9 7 5 5 6 7 7 8 8 8 11 12 13 16 13 19 11 9 9 11 11 9 10 9
1 1 0 0 0 -0 5 6 7 9 15 10 9 9 9 9 8 8 8 7 6 5 7 10 12 12 12 10 9 9 9 11 15 17 17 13 12 10 10 12 12 9 10 9
1 1 0 0 0 0 2 4 5 7 9 12 8 9 8 11 11 9 8 5 5 6 9 12 15 16 14 14 12 8 9 10 13 15 18 20 12 9 7 8 16 8 8 9
1 0 0 0 -0 0 2 4 3 7 10 9 8 10 10 7 8 10 9 8 8 6 11 14 15 15 11 15 15 15 13 13 15 15 17 14 9 8 7 15 14 8 8 8
1 0 0 0 -0 -0 1 3 3 6 10 8 6 6 8 7 7 10 8 10 8 9 12 13 13 15 12 13 11 13 14 15 15 15 17 18 8 8 13 10 8 7 7 8
1 0 0 0 -0 -0 -0 4 3 3 7 8 5 5 5 5 5 7 7 8 8 8 11 11 11 14 14 13 16 10 15 12 14 13 13 8 7 8 7 7 8 8 8 8
0 0 0 0 -0 -1 0 3 3 4 7 8 8 9 6 4 4 3 9 6 5 7 5 8 10 13 11 15 14 12 10 8 12 11 10 9 8 7 7 7 8 8 9 9
0 0 0 0 -0 -1 -0 3 2 4 6 11 8 4 6 4 5 4 4 4 3 4 5 8 10 12 8 12 11 12 10 9 11 11 9 8 8 8 8 8 9 10 11 12
0 0 0 0 -0 -0 0 1 2 2 6 11 9 5 5 5 6 6 5 5 6 7 8 10 10 9 9 9 9 12 10 11 12 13 11 9 10 9 8 10 11 11 12 13
0 0 -0 -1 -0 -0 5 8 3 2 2 6 10 6 5 6 6 7 7 4 6 7 8 9 7 6 8 12 13 10 10 9 10 11 10 10 10 10 9 10 11 12 13 14
0 -0 -0 -0 -0 2 5 7 4 1 2 7 10 9 6 5 6 7 6 6 6 6 7 8 8 8 8 11 15 12 10 11 10 11 9 11 11 12 11 11 11 12 13 14
-0 -0 -0 -0 -0 0 3 1 1 1 5 5 11 12 9 5 8 8 6 7 7 6 7 7 9 8 9 16 13 13 12 11 12 12 11 12 11 11 12 12 12 14 15 15
-0 -0 -0 1 3 4 3 0 1 1 5 9 10 14 13 5 7 6 6 6 10 6 9 9 8 13 16 14 15 15 14 14 14 13 13 13 13 13 14 14 15 15 16 15
0 2 5 8 3 0 1 3 6 6 5 7 9 9 10 7 7 9 8 8 10 12 10 8 14 16 14 14 14 14 14 14 14 15 16 15 14 15 16 16 16 16 17 17
3 5 6 2 0 3 6 9 9 8 10 9 10 8 9 7 10 10 9 10 10 13 11 11 15 17 16 15 15 14 14 15 15 15 16 15 15 16 17 17 17 17 18 19
3 3 2 2 5 7 9 10 9 10 12 9 10 8 7 8 6 9 9 11 10 14 9 15 20 17 15 15 16 16 15 16 16 16 17 16 16 16 17 17 18 18 19 19
3 5 7 7 10 11 17 14 12 11 10 8 8 10 9 9 7 10 10 13 15 10 17 20 18 16 15 16 16 16 16 16 17 17 17 17 17 17 17 18 18 18 20 20
8 11 19 16 20 17 17 12 12 10 9 9 11 10 10 9 11 10 13 14 12 15 24 23 18 17 16 15 16 17 18 19 19 20 20 20 20 21 21 21 21 21 21 21
12 13 19 19 15 14 11 11 11 10 9 9 10 11 11 12 15 12 13 14 23 21 23 20 18 18 16 17 17 19 20 21 21 23 22 24 24 22 22 21 21 22 22 22
13 13 15 13 16 16 14 12 13 10 10 9 11 14 16 16 14 17 20 19 24 23 23 19 18 19 19 19 18 19 21 21 22 22 22 22 24 24 24 23 23 24 22 23
14 16 16 17 18 17 14 13 13 10 11 16 15 19 18 14 20 22 20 24 23 19 18 18 20 21 22 21 20 20 20 21 22 22 21 22 22 21 19 21 22 20 20 21

GFSNW_con_lsi_093.txt.gz
Lid_Strength_Index
1 1 1 1 1 0 2 4 10 4 0 11 10 14 9 7 8 8 10 9 10 12 11 12 12 13 10 8 9 12 10 12 15 14 10 9 11 13 13 18 19 17 18 18
1 1 1 1 0 0 4 6 6 3 2 12 16 10 9 8 10 9 10 11 9 10 12 13 11 10 8 8 9 11 10 13 17 16 13 11 13 12 12 13 14 18 20 18
1 1 1 0 0 -0 4 6 12 9 6 6 9 11 10 10 7 9 8 10 9 10 12 11 11 10 8 7 9 7 9 12 15 18 16 12 15 13 12 14 17 17 17 15
1 1 1 1 0 -0 4 6 11 8 11 9 10 9 9 11 11 8 7 9 10 11 13 12 13 11 10 8 7 10 10 14 13 12 12 11 13 13 13 14 14 17 15 14
1 1 1 0 0 0 6 9 9 7 8 7 9 9 10 11 10 9 10 10 9 10 12 12 13 11 10 11 9 10 10 14 13 14 11 12 13 13 13 12 12 13 13 14
2 2 1 0 0 2 8 7 7 9 10 10 10 10 10 10 9 8 7 8 10 10 10 8 8 8 8 8 10 11 11 12 14 16 12 13 15 12 12 12 11 12 15 12
2 2 1 1 0 2 6 7 8 12 15 11 11 10 10 10 9 10 8 7 9 7 5 6 7 8 8 9 8 8 11 12 13 16 14 20 12 10 10 11 11 10 10 10
2 2 1 1 0 0 5 5 8 10 14 10 11 10 10 9 9 9 8 7 6 5 7 11 12 12 12 10 9 9 9 12 16 17 17 15 12 10 11 12 12 9 10 9
2 1 1 1 0 0 3 5 5 8 12 13 9 10 10 12 11 11 8 6 5 6 10 12 15 16 13 14 12 9 10 11 14 16 18 21 12 9 7 8 16 9 9 9
1 1 1 1 0 -0 2 4 4 6 11 9 9 10 10 9 10 10 10 8 8 7 11 13 15 15 11 15 14 14 14 14 15 16 16 15 9 9 7 15 14 8 8 8
1 1 1 0 0 0 1 3 4 6 11 9 7 7 9 8 7 10 8 11 9 9 13 13 13 14 12 13 11 13 14 15 16 15 17 18 8 9 13 10 9 8 8 9
1 1 0 0 0 0 0 4 3 3 7 9 6 6 5 6 6 8 7 8 8 8 11 11 11 14 14 13 16 10 15 12 14 13 14 9 7 8 7 8 10 10 9 9
1 1 0 0 0 -0 0 2 3 4 7 8 9 9 6 4 5 4 9 8 6 7 6 9 10 12 11 15 15 12 10 9 12 12 10 9 8 7 8 8 10 11 11 11
1 0 0 0 -0 -0 -0 3 3 4 6 11 10 5 7 5 5 4 5 6 4 4 5 8 10 12 8 11 11 11 11 10 12 11 9 9 9 8 9 10 10 11 12 13
0 0 0 0 -0 -0 -0 1 2 2 6 11 10 6 5 5 6 6 5 5 6 7 8 10 12 9 9 9 9 12 10 12 14 14 12 10 10 9 9 10 12 12 13 14
1 0 0 0 -0 -0 3 8 3 2 2 7 10 6 6 7 6 7 8 7 6 6 7 9 8 6 8 11 14 12 10 10 11 11 10 11 11 10 10 12 12 13 14 15
0 0 -0 -0 -0 2 5 7 4 2 2 7 10 10 7 6 7 8 8 6 7 6 8 8 8 8 7 12 15 13 11 11 11 11 10 12 12 13 11 11 12 13 15 15
1 1 0 0 -1 0 3 1 1 2 5 5 11 13 10 5 9 9 8 9 7 7 8 7 9 8 10 15 14 13 12 12 12 12 12 12 12 12 13 13 13 14 16 16
-0 -0 -0 0 3 5 3 1 1 1 4 9 9 14 16 6 8 7 8 8 10 8 9 9 8 13 18 15 15 15 14 14 14 13 13 13 14 15 15 15 15 16 16 16
-0 1 5 8 3 0 1 4 6 7 6 7 10 11 11 7 8 8 9 8 10 12 9 9 14 18 15 14 14 14 15 14 15 15 16 15 15 16 16 17 16 17 17 17
3 7 7 3 0 3 6 9 9 8 10 8 9 9 10 6 10 9 7 10 9 13 11 12 17 17 16 15 15 15 15 15 16 16 15 15 15 16 17 17 17 18 18 19
3 3 2 3 5 7 9 10 9 10 12 9 9 8 7 8 7 9 8 11 10 14 10 15 21 17 16 16 16 16 16 16 17 16 16 16 16 17 17 18 19 20 20 20
3 5 7 7 10 13 12 13 12 11 9 8 8 9 8 9 8 9 10 12 13 11 18 22 19 16 16 16 16 17 16 17 17 17 17 17 18 17 17 19 19 20 21 21
9 11 19 17 21 17 17 14 13 12 8 8 9 9 9 9 12 11 15 14 13 20 24 23 19 17 17 16 16 18 19 19 20 20 20 21 21 21 22 23 25 24 25 25
12 13 20 19 15 15 11 9 9 9 8 9 10 11 11 13 15 14 15 18 23 22 24 22 18 17 17 18 18 20 21 23 23 24 23 26 25 24 24 24 25 24 26 26
13 14 15 14 16 14 12 11 11 10 9 9 11 14 15 16 16 19 21 18 22 23 23 19 18 18 18 18 18 20 22 23 24 24 23 23 25 24 25 23 24 25 25 25
14 17 15 18 18 15 14 13 13 11 12 16 15 18 17 15 20 22 21 24 23 20 19 22 22 21 22 23 21 21 22 22 24 24 23 24 23 22 20 21 21 20 20 23

GFSNW_con_lsi_096.txt.gz
Lid_Strength_Index
2 2 1 1 1 2 5 7 12 5 0 9 11 15 10 7 9 7 9 10 11 12 12 13 13 13 10 9 9 12 10 12 15 14 10 9 11 13 13 18 19 17 18 18
2 1 1 1 2 2 7 10 9 4 2 12 11 10 9 8 10 10 10 11 10 11 12 14 12 11 8 8 10 11 10 13 17 16 13 10 13 12 12 13 14 17 20 17
2 1 1 1 2 2 7 9 12 10 5 6 9 10 11 11 7 9 9 10 10 11 12 11 12 12 9 8 9 7 8 12 14 18 16 13 15 13 12 14 17 17 17 15
2 1 1 1 2 1 7 8 12 9 13 9 10 9 9 11 11 8 8 10 10 11 13 12 13 10 10 9 8 9 11 15 13 12 11 12 13 13 13 14 14 17 15 15
2 1 1 1 1 2 9 13 11 8 9 9 10 9 10 11 10 10 11 11 9 10 12 12 13 11 11 11 9 11 10 15 14 14 12 12 14 12 12 13 13 13 13 13
2 1 1 1 1 3 10 9 8 9 11 11 11 10 10 11 9 8 8 8 9 11 9 9 9 9 9 10 11 12 12 13 15 16 13 14 17 13 13 12 12 13 15 12
2 1 1 1 1 3 7 8 9 12 15 11 11 11 10 10 10 10 8 7 9 8 6 6 7 8 8 8 9 8 11 12 13 16 14 21 14 11 10 11 11 10 10 10
2 1 1 1 1 1 6 6 7 10 13 11 10 11 10 10 10 9 8 7 6 6 8 11 12 12 12 11 9 10 9 12 15 17 17 15 13 11 12 13 12 10 10 9
2 2 1 2 1 1 3 5 4 6 11 13 9 11 11 12 11 11 9 7 6 7 10 12 15 16 13 14 12 10 11 12 14 16 18 22 14 10 8 9 15 9 9 9
2 2 1 1 1 0 2 4 4 5 10 9 9 11 10 9 10 11 10 9 8 8 13 14 15 15 11 14 14 14 13 13 16 16 16 15 10 9 8 16 15 9 8 8
2 2 1 1 1 0 2 4 3 6 11 10 8 8 10 10 9 11 10 12 10 10 13 13 13 14 12 13 11 13 14 15 16 14 17 18 8 9 13 10 9 9 9 9
2 2 1 1 1 0 1 4 3 3 7 9 6 6 6 6 7 10 9 9 8 8 10 11 11 13 13 13 16 10 15 12 14 13 13 9 7 8 8 9 10 11 11 11
2 1 1 1 0 0 1 3 4 4 7 7 9 8 6 5 5 5 10 9 6 6 5 8 10 12 11 14 14 12 10 8 12 12 10 9 8 8 8 9 10 11 11 12
2 1 0 0 0 -0 0 4 3 4 6 11 10 5 7 5 5 6 6 7 5 4 5 8 9 12 9 11 10 11 10 10 13 11 11 10 10 9 9 10 10 12 13 13
1 1 0 0 0 -0 0 2 2 3 5 12 10 7 5 5 7 6 5 6 7 7 8 10 12 11 9 9 9 12 10 13 15 14 12 11 12 10 10 12 13 13 14 15
1 0 0 0 0 0 3 8 3 2 2 6 11 7 7 7 7 7 7 7 6 6 8 8 8 7 8 11 16 11 11 11 12 13 11 11 11 11 11 12 14 14 15 16
1 1 0 0 0 2 5 7 5 1 2 7 10 11 8 7 8 9 9 8 7 8 7 9 9 9 7 12 17 13 11 12 12 12 11 12 13 14 13 12 13 14 16 16
1 1 0 0 -0 1 3 2 1 1 5 6 11 13 10 6 10 10 8 9 9 8 8 8 9 8 10 15 14 13 13 12 13 13 12 12 13 14 15 14 14 15 16 17
1 0 0 1 3 6 4 0 1 1 4 9 10 15 16 6 8 7 8 9 13 9 9 10 8 12 17 15 14 15 15 15 15 13 14 14 15 16 16 16 16 16 17 16
0 2 6 9 6 0 2 4 7 7 6 6 11 11 10 6 8 8 9 9 13 11 10 10 13 19 14 14 14 15 15 15 15 15 16 16 15 16 17 17 17 17 18 18
4 7 7 3 1 4 7 9 9 8 9 8 9 9 10 6 11 10 8 10 9 13 11 11 16 17 16 15 15 15 15 15 16 15 15 15 16 16 17 18 18 19 19 20
4 3 2 3 5 7 9 10 9 10 12 9 9 9 7 8 6 9 8 10 10 14 11 15 21 18 16 16 16 16 16 16 17 16 17 16 16 17 18 19 20 20 20 21
3 5 8 7 10 12 14 14 12 16 9 8 8 9 7 8 8 9 9 12 13 12 17 20 19 16 16 16 17 17 17 17 17 18 18 18 19 18 18 19 20 20 22 23
9 10 14 14 19 16 16 14 13 9 8 7 8 8 9 9 10 10 14 14 13 17 23 22 19 18 17 16 17 18 20 20 20 21 21 21 21 23 23 25 26 26 26 29
12 12 19 17 15 13 10 8 8 8 7 8 10 11 11 14 15 16 15 17 21 21 22 22 19 18 18 18 19 21 22 24 24 25 25 27 26 24 24 25 27 26 28 27
13 14 15 13 13 12 11 10 10 9 8 9 11 14 16 17 16 17 19 17 21 23 24 20 18 19 20 20 20 22 23 24 25 25 24 24 26 25 26 25 26 28 28 28
14 17 15 20 19 14 13 12 12 10 10 13 15 17 17 15 19 21 22 24 24 21 21 23 22 21 22 24 23 23 23 24 25 25 24 25 24 23 21 23 25 23 24 26

GFSNW_con_lsi_099.txt.gz
Lid_Strength_Index
2 2 1 1 1 2 5 8 14 6 2 8 9 11 10 7 9 8 10 9 11 12 12 13 13 13 10 8 8 10 9 11 15 13 9 8 10 12 12 16 18 16 17 15
2 2 1 1 2 3 7 11 10 6 3 12 11 9 9 8 11 10 10 11 11 11 12 14 12 11 8 7 9 10 9 13 17 16 12 10 12 12 11 13 14 17 19 15
2 2 1 1 2 2 7 11 15 11 5 6 9 10 10 11 8 10 8 9 10 11 12 11 13 12 9 7 8 7 8 11 13 16 15 12 14 13 11 13 17 16 15 14
3 2 1 1 1 2 7 9 13 10 14 10 10 9 9 11 11 9 8 10 10 11 13 12 13 11 10 8 8 9 10 14 12 11 11 11 12 12 11 13 12 15 13 13
3 2 2 1 1 3 8 13 12 9 10 9 10 10 11 12 11 10 11 11 9 9 12 12 13 11 11 11 9 10 9 13 12 14 12 11 13 12 12 12 11 12 12 12
3 2 2 1 1 4 9 9 8 9 11 11 11 11 11 11 10 9 8 9 9 10 10 9 9 8 9 9 10 10 10 12 14 16 13 13 16 13 12 11 10 11 14 10
3 2 2 1 1 3 7 8 8 11 14 11 11 11 10 11 10 11 8 7 9 7 6 5 6 8 8 8 8 8 11 12 12 15 14 20 13 10 9 10 9 9 10 9
2 2 2 1 1 2 6 7 7 10 13 10 10 10 10 9 10 9 8 7 6 5 7 10 11 11 11 10 9 9 8 11 14 15 15 13 12 11 11 12 11 9 10 9
3 2 2 2 1 1 4 5 4 7 10 11 9 10 10 11 11 10 8 6 5 6 9 11 14 16 13 13 12 8 9 9 12 14 17 18 12 9 7 8 14 8 9 9
3 2 2 2 1 1 3 5 4 6 10 8 8 9 10 8 9 10 9 8 8 6 11 13 14 14 11 14 14 14 13 13 15 15 16 13 10 8 7 15 13 8 9 9
3 3 2 2 1 1 2 4 3 5 10 9 7 7 8 9 8 11 8 10 8 9 12 12 13 13 12 12 11 13 13 14 15 14 16 17 8 8 12 10 10 9 10 11
3 3 2 2 1 1 1 5 3 3 7 8 5 5 5 5 5 7 8 9 9 8 11 11 10 12 11 12 15 9 14 12 13 12 13 8 8 9 9 9 11 10 10 10
3 3 2 1 1 1 1 4 4 5 7 7 7 7 4 4 4 3 8 8 6 7 5 9 9 12 10 14 13 11 10 9 11 11 10 11 9 9 9 10 12 12 11 11
3 2 2 1 0 0 0 4 4 4 6 10 9 5 6 4 4 5 5 5 4 4 5 8 9 11 8 11 10 11 10 10 12 11 11 10 11 10 11 11 11 12 13 13
3 2 1 0 -0 0 1 3 3 3 5 10 9 6 4 5 6 5 5 5 6 6 7 8 10 9 9 9 9 12 10 12 13 14 12 12 12 11 11 13 14 14 14 15
3 2 1 0 -0 0 3 8 3 2 2 6 11 6 6 6 6 7 7 6 6 5 7 8 7 6 8 11 12 11 10 10 11 12 10 11 12 12 12 13 14 15 15 15
3 2 1 0 0 2 5 6 4 2 2 7 9 9 7 6 7 7 7 6 6 5 7 8 7 7 7 10 13 11 11 11 12 11 10 13 13 15 13 13 14 14 15 16
2 1 1 0 0 1 3 2 1 2 5 6 10 11 9 6 8 9 7 8 8 7 8 7 8 8 9 12 13 12 12 12 13 13 12 13 14 14 15 14 14 15 16 16
1 1 0 1 2 4 3 1 1 2 5 8 9 13 13 6 7 7 7 7 11 8 9 9 8 10 12 13 13 14 14 15 15 13 13 14 15 16 16 16 16 16 17 17
1 2 5 8 6 0 1 4 7 6 6 7 10 10 10 6 7 8 9 9 10 12 10 8 10 14 14 13 14 14 14 15 14 14 16 15 16 16 17 17 17 17 18 18
3 8 7 4 1 4 6 9 9 8 10 8 9 9 9 6 9 9 8 9 9 13 11 11 13 15 15 14 14 14 14 15 15 15 15 15 15 16 17 18 18 18 19 20
5 4 3 3 6 7 9 10 9 10 11 8 9 9 7 7 5 8 8 10 10 13 9 12 16 16 14 15 15 15 15 15 16 15 16 16 16 17 17 18 19 19 20 21
2 5 7 7 9 11 12 14 12 12 10 8 7 9 8 7 7 8 9 12 12 10 13 15 17 15 15 15 16 16 16 16 17 17 17 17 18 17 18 19 19 20 21 21
7 9 13 11 14 13 14 12 12 10 9 8 7 8 9 8 9 9 12 11 11 15 17 17 17 16 16 16 16 17 19 19 19 19 19 20 21 22 23 24 23 23 23 25
11 11 16 17 14 13 10 8 7 7 6 7 8 9 9 11 11 12 13 14 15 15 16 18 17 16 16 17 18 19 20 21 21 21 22 23 22 22 22 23 22 22 23 23
12 14 15 13 12 11 10 8 9 8 8 8 9 11 12 14 13 14 15 15 16 17 19 17 17 18 18 18 18 20 20 20 21 21 21 21 22 21 21 22 21 23 22 22
14 16 14 17 14 12 12 10 10 9 8 12 12 15 14 14 17 17 17 16 18 19 18 18 17 18 19 20 21 21 21 21 21 21 21 21 21 21 19 20 20 19 20 21

GFSNW_con_lsi_102.txt.gz
Lid_Strength_Index
3 2 2 2 2 3 3 5 8 3 2 7 6 9 8 7 8 8 9 10 11 12 12 14 13 12 9 7 6 9 8 10 14 12 9 7 9 11 11 15 17 14 15 14
3 2 2 2 2 3 3 6 6 3 3 10 9 7 7 8 9 9 10 10 10 10 13 14 12 11 7 6 7 9 8 11 16 15 11 9 11 10 11 12 13 16 16 13
3 3 2 2 2 3 3 6 9 7 5 6 8 9 9 10 8 8 8 9 9 11 12 11 13 12 8 7 7 7 6 10 12 15 13 11 13 11 10 12 15 14 14 12
3 3 2 2 2 3 3 6 9 9 10 8 8 8 9 11 11 9 8 10 10 11 13 12 13 11 10 8 7 8 8 12 11 11 10 10 10 11 10 11 11 13 11 11
4 3 2 2 2 3 4 8 7 7 8 8 9 9 9 11 11 10 10 11 9 9 11 11 13 11 11 11 9 9 9 13 11 13 10 11 12 11 11 11 10 10 10 11
3 3 3 2 1 2 4 4 5 7 10 9 9 9 10 11 9 8 8 8 8 9 9 8 8 8 8 9 10 10 10 11 13 15 12 12 14 12 11 10 9 10 13 10
4 3 3 2 1 2 3 4 4 7 9 9 9 9 9 9 9 9 8 7 8 7 5 4 6 7 8 8 7 7 10 11 11 14 13 18 12 8 8 9 9 9 9 9
4 3 3 2 1 2 3 3 4 6 9 8 9 8 8 7 7 8 7 6 5 4 6 9 11 9 9 9 8 8 7 9 12 13 14 12 11 10 10 11 11 9 10 9
3 3 3 2 2 1 3 4 3 4 7 8 8 8 7 8 8 8 7 4 3 4 7 9 13 14 12 12 11 7 8 8 10 12 15 17 12 8 6 7 13 8 8 10
3 3 3 2 2 1 2 4 3 6 7 5 6 7 7 6 7 8 6 7 6 5 9 11 12 12 10 13 13 12 11 11 13 13 14 12 9 7 6 13 14 9 9 11
3 3 3 2 2 1 2 4 3 5 7 5 5 5 6 6 6 8 6 7 6 8 10 11 12 12 11 11 10 12 12 13 13 12 15 18 9 7 11 10 10 10 10 10
3 3 3 2 2 1 1 5 3 3 6 5 3 3 2 3 4 5 5 7 7 6 9 10 10 11 10 12 13 8 13 11 13 12 13 10 10 11 11 10 12 11 10 10
3 3 3 2 2 1 1 4 4 5 7 6 5 5 2 1 2 1 6 4 5 5 4 8 9 12 9 12 11 10 9 7 11 11 11 11 10 10 10 11 11 11 11 11
3 3 3 2 2 1 1 4 3 4 6 8 5 3 4 2 1 2 2 3 2 3 4 7 8 9 6 9 9 10 8 8 11 11 10 10 11 11 10 11 10 11 11 12
4 3 2 2 1 1 0 2 3 2 5 7 5 3 2 2 3 3 3 3 4 5 6 7 8 5 7 6 7 9 8 11 11 12 11 11 12 11 11 12 13 12 12 12
3 3 2 1 1 0 3 8 3 2 2 5 8 3 4 4 4 4 4 4 4 4 6 6 5 5 6 10 10 10 9 9 10 11 10 11 11 11 11 12 13 12 13 13
3 3 2 1 0 1 4 5 2 1 1 7 8 7 4 4 4 4 4 4 4 4 4 6 6 6 6 9 11 10 10 10 10 9 10 12 11 12 12 12 12 13 13 13
3 2 2 1 1 1 3 0 1 1 5 6 8 8 6 4 5 6 3 5 5 5 5 6 7 6 7 11 10 10 10 10 11 11 11 12 12 12 13 12 13 13 14 14
2 2 1 1 3 5 3 1 1 1 4 7 8 9 10 4 6 6 6 4 8 4 7 7 6 8 10 10 10 10 11 11 12 11 12 12 14 14 14 14 14 15 15 15
2 2 5 8 5 0 1 4 6 6 6 6 8 5 9 6 7 7 8 6 8 10 8 7 9 9 11 10 10 10 12 12 11 12 13 13 14 15 15 15 15 15 16 16
3 6 6 2 1 2 5 8 8 8 9 7 6 6 8 4 8 8 6 8 7 11 9 10 10 10 12 11 12 11 12 12 12 12 13 13 13 14 15 16 16 16 16 17
3 3 2 3 5 6 9 9 8 9 9 7 8 8 5 5 3 7 7 9 9 12 7 10 12 13 13 12 12 12 12 13 13 13 13 14 14 14 15 16 17 17 18 18
3 4 7 7 7 11 11 12 11 10 7 7 6 8 6 6 5 7 8 11 12 7 11 11 11 13 13 12 13 14 13 14 14 14 14 15 15 15 16 17 17 17 18 19
7 8 11 9 11 9 9 8 8 6 6 6 6 7 7 7 8 9 12 9 9 12 14 12 13 13 13 13 14 15 16 16 16 16 16 17 18 19 19 19 19 19 20 20
8 8 11 11 8 8 7 6 6 5 5 6 7 7 6 8 10 9 10 12 13 12 12 12 13 13 14 15 16 17 17 18 18 17 18 19 19 19 19 19 19 19 20 20
10 10 11 10 9 9 8 7 7 5 5 5 5 8 10 10 9 11 12 12 13 11 13 12 13 14 14 15 15 16 16 17 17 18 18 18 18 18 18 18 18 19 19 19
11 11 10 9 7 8 8 7 8 6 6 10 8 11 11 10 11 12 11 11 13 14 13 12 12 14 15 16 17 18 17 17 17 17 17 17 17 17 16 16 16 16 16 17

GFSNW_con_lsi_105.txt.gz
Lid_Strength_Index
3 3 2 2 2 2 4 3 7 2 1 7 6 9 8 7 8 7 8 9 10 12 11 12 13 12 8 6 6 8 7 10 14 13 7 7 8 10 10 14 16 13 15 15
3 2 2 2 2 2 2 5 5 2 2 9 9 7 8 8 8 8 8 10 9 9 12 14 13 11 7 6 7 8 7 11 16 16 11 9 11 9 10 11 12 15 16 15
3 3 3 3 2 2 3 5 8 5 4 5 8 9 9 9 6 7 7 9 9 10 12 11 13 12 8 6 7 7 7 10 13 15 13 10 12 11 10 11 14 14 13 11
3 3 3 2 2 2 3 4 8 7 8 8 8 7 8 9 10 7 7 10 9 11 13 13 13 11 9 7 7 7 8 13 12 11 10 10 11 11 11 12 11 13 11 12
4 4 3 2 2 2 3 9 6 6 6 8 8 8 9 10 9 9 10 9 8 9 11 12 13 10 10 12 9 9 8 12 11 12 10 10 11 10 11 11 10 10 9 12
4 4 3 2 2 2 4 3 3 5 8 9 8 8 9 10 8 7 7 7 8 10 9 7 8 6 7 8 9 10 10 11 12 15 12 12 14 11 10 10 10 11 15 11
4 3 3 3 2 2 3 2 3 5 8 8 9 9 8 9 8 9 7 7 8 6 5 5 6 7 7 7 8 7 11 11 11 14 13 17 11 7 8 9 10 9 10 10
4 3 3 3 2 1 2 1 4 6 9 7 9 8 8 6 6 6 6 5 5 3 5 9 10 10 10 9 8 8 7 9 11 13 13 12 11 9 9 10 12 8 9 9
3 3 3 3 2 1 1 1 2 4 8 8 7 7 7 7 7 6 6 3 3 4 7 9 12 13 11 12 10 7 7 7 9 11 14 18 13 8 6 6 15 8 8 10
3 3 3 3 2 1 2 3 2 3 6 5 6 7 7 5 6 7 6 5 6 4 9 11 12 12 9 12 12 11 10 10 12 12 13 13 10 8 6 15 14 9 9 9
3 3 3 2 2 2 1 2 1 3 6 5 4 4 5 5 5 7 5 7 6 7 10 11 11 12 10 11 9 11 12 14 13 12 14 18 11 7 12 11 10 10 10 9
2 3 3 3 2 2 1 4 1 2 4 4 2 2 2 2 2 4 4 6 7 6 9 9 9 11 9 10 15 8 13 11 13 12 13 11 10 11 10 9 10 10 10 10
2 3 3 3 2 2 2 3 2 4 7 5 4 4 1 -0 0 0 5 3 4 5 4 7 8 12 8 12 12 10 9 6 11 11 11 10 10 10 9 10 10 10 10 10
2 3 3 3 2 1 1 3 3 4 5 7 5 1 2 1 0 1 1 2 2 3 3 7 8 9 6 9 9 10 8 8 10 11 10 10 10 10 10 10 10 9 9 10
2 3 3 2 2 1 0 1 1 2 5 8 5 2 1 1 1 2 1 2 3 4 6 7 8 6 7 6 7 10 7 10 10 12 9 9 11 10 10 11 11 11 10 10
2 3 3 2 2 1 3 7 2 2 2 6 8 2 3 2 2 3 3 3 3 4 5 6 5 4 6 10 11 8 8 8 8 10 9 9 9 10 10 11 11 11 11 11
3 3 3 2 2 2 4 4 2 1 2 6 8 6 4 2 3 2 3 3 4 4 6 6 6 5 5 8 10 9 9 9 9 8 8 10 10 11 10 11 11 11 11 12
3 3 2 2 1 1 3 -1 0 1 4 5 8 7 6 3 5 6 3 5 5 5 5 4 6 6 6 10 8 8 9 9 9 9 9 10 10 11 11 10 11 12 12 13
2 2 2 2 3 6 3 0 1 0 3 7 7 9 11 3 5 5 4 5 8 4 7 7 6 8 10 8 8 8 8 9 9 9 10 11 12 12 12 12 12 13 14 14
2 2 5 8 4 0 1 4 6 6 6 5 7 4 9 5 6 7 7 6 8 10 8 5 8 9 8 8 7 7 9 9 9 10 11 11 12 13 13 14 13 14 14 15
3 6 6 2 0 2 4 8 8 7 9 6 6 5 8 4 8 8 6 8 7 11 8 9 10 10 10 9 9 9 9 9 9 9 10 10 11 12 13 14 14 14 15 16
3 2 1 3 5 6 8 9 7 8 9 6 7 6 5 5 3 7 6 9 8 12 6 9 11 11 10 10 10 10 10 10 10 10 12 12 12 12 13 14 15 16 16 17
2 4 6 6 7 11 11 12 10 9 7 6 6 8 6 5 5 7 8 11 11 6 11 11 10 11 10 11 11 11 11 11 12 12 12 13 13 13 14 15 15 16 17 18
5 7 10 10 11 9 8 7 8 6 6 6 6 7 7 6 8 9 11 9 8 12 13 12 11 11 11 11 11 13 14 14 14 14 14 15 16 17 17 18 17 18 19 20
7 7 11 10 7 6 6 6 6 5 4 5 7 7 7 8 9 8 9 12 13 11 11 10 11 12 12 13 13 14 15 15 15 15 17 18 18 18 18 17 17 18 19 19
7 9 9 8 8 8 8 7 8 4 5 5 5 8 9 10 9 11 11 12 13 11 10 11 11 12 12 13 14 15 15 14 15 16 16 17 17 17 17 17 17 18 18 18
9 9 8 8 7 8 7 6 6 4 6 10 7 11 11 8 10 11 9 11 10 10 11 11 11 12 13 14 15 15 15 15 15 15 15 16 15 16 15 15 15 15 16 16

GFSNW_con_lsi_108.txt.gz
Lid_Strength_Index
5 4 4 3 3 3 4 4 8 3 1 7 7 9 8 7 7 6 7 8 10 12 12 13 13 13 10 6 8 11 9 12 15 13 8 7 10 12 12 16 15 14 17 18
5 4 4 3 3 3 3 5 6 2 2 10 9 8 8 7 7 7 8 9 9 9 12 14 12 11 8 7 8 10 9 13 17 16 12 9 12 10 10 11 13 15 17 18
4 4 4 3 2 2 4 5 8 6 5 6 8 9 9 9 6 7 7 8 8 9 12 11 13 12 8 7 7 8 7 11 13 18 15 11 13 12 10 11 15 14 15 15
4 4 4 3 2 3 3 4 7 7 9 8 8 8 8 9 10 7 7 8 9 10 13 12 13 11 9 7 7 8 9 15 14 13 11 10 12 11 11 12 11 14 14 14
4 5 4 3 3 2 4 9 7 7 7 7 8 8 9 10 9 8 9 9 9 9 12 11 12 11 10 10 8 9 8 14 11 15 12 12 14 11 10 11 11 12 13 14
5 4 4 3 3 2 4 3 4 6 7 8 9 9 9 9 8 7 7 8 9 9 10 8 7 6 7 8 9 10 11 11 13 15 11 12 14 11 12 11 10 11 15 12
4 4 4 4 2 2 2 3 4 7 9 8 9 9 8 8 7 8 6 6 8 7 4 4 5 6 7 7 8 7 11 11 11 15 13 20 12 8 9 11 10 9 10 10
4 4 4 3 2 2 2 2 4 6 8 7 8 8 8 7 5 6 6 6 6 3 6 9 11 10 10 10 8 8 8 9 12 14 15 13 12 10 11 12 13 10 10 9
4 4 3 3 3 2 2 2 2 4 7 8 7 8 7 8 7 7 6 4 3 4 7 10 13 14 12 12 11 7 7 8 11 13 15 19 13 11 7 8 15 10 9 10
3 4 3 3 3 2 2 2 1 4 7 5 5 8 8 6 7 7 6 6 6 5 10 12 13 13 9 14 13 12 12 12 14 14 15 14 11 9 7 15 15 10 10 10
3 3 3 3 2 2 1 2 1 3 5 5 4 4 6 6 6 8 6 7 7 8 11 11 11 12 10 13 10 11 13 15 14 14 16 18 11 9 13 11 10 9 10 10
3 3 3 3 3 2 2 3 1 1 4 4 2 2 2 3 3 5 5 6 7 7 9 9 10 12 10 11 16 8 14 11 13 13 14 11 10 11 10 9 10 10 10 9
3 3 3 3 3 2 2 3 2 3 6 5 4 4 1 0 1 0 6 5 4 5 4 7 8 12 8 12 12 11 9 7 11 11 11 11 10 10 10 9 10 10 10 10
2 2 3 3 3 2 2 3 2 3 5 8 5 1 2 0 1 1 1 3 2 3 4 7 8 10 6 9 9 10 8 8 10 11 10 10 10 10 10 10 9 9 9 10
2 3 3 3 3 2 2 1 2 2 5 8 6 2 1 1 1 2 2 2 3 4 6 7 9 7 7 7 7 10 8 10 11 12 10 10 11 10 9 10 11 11 11 11
2 3 3 3 2 2 2 7 1 1 1 7 9 3 3 2 2 3 3 3 3 4 5 6 6 4 7 10 11 9 9 8 8 10 9 9 9 9 9 10 11 11 11 12
2 3 3 2 2 1 4 5 2 1 1 6 8 7 3 2 3 3 3 3 4 4 5 6 6 6 6 8 11 9 9 9 8 8 8 10 9 10 9 9 10 10 11 12
2 3 3 2 2 2 4 0 1 1 4 5 8 8 7 3 6 7 3 5 5 5 6 5 7 6 6 10 8 8 9 8 9 9 8 9 9 9 10 10 10 11 12 13
2 3 2 2 4 5 3 0 0 0 3 7 8 9 11 3 5 5 5 4 9 4 8 7 6 8 10 8 7 8 8 8 9 9 9 10 11 11 11 11 11 13 14 14
2 2 5 8 5 0 1 3 6 5 5 5 8 5 9 5 6 7 7 6 9 11 8 5 8 9 7 6 6 6 7 8 7 10 11 10 11 12 13 13 13 14 15 15
3 6 7 2 0 3 5 8 8 8 9 7 6 6 8 4 8 9 6 8 8 11 9 9 10 10 9 8 8 8 8 8 8 9 9 10 10 12 13 13 13 14 15 16
3 3 2 3 4 6 9 9 8 8 9 6 7 6 5 5 4 7 7 9 8 12 7 10 12 11 9 9 9 9 9 9 10 10 11 11 12 12 13 14 15 16 17 18
1 4 6 6 7 11 11 12 10 10 7 6 6 8 6 5 5 7 8 10 11 7 11 12 11 10 10 10 10 10 10 10 11 12 12 13 13 13 14 15 15 16 18 18
6 7 10 10 11 9 8 8 8 6 7 6 6 7 7 6 8 9 11 9 8 12 13 12 11 10 10 10 11 12 13 13 13 14 15 16 17 18 18 19 18 19 20 21
7 7 11 9 7 6 7 6 6 5 5 6 7 7 7 9 9 8 9 11 13 11 12 10 11 11 11 12 13 14 14 15 15 15 17 18 18 18 18 18 18 18 20 20
6 7 9 8 8 8 8 8 8 4 5 5 5 8 10 10 9 11 11 12 13 11 11 11 11 12 12 13 13 14 14 14 15 16 17 17 18 17 17 17 18 19 18 19
8 8 6 8 7 8 8 7 6 3 6 9 7 11 11 7 10 11 9 11 10 10 11 10 11 12 12 13 14 15 14 14 15 15 15 16 15 16 17 17 17 17 16 18

GFSNW_con_lsi_111.txt.gz
Lid_Strength_Index
6 6 6 5 4 3 5 7 12 6 5 12 11 15 10 7 7 6 7 8 10 12 11 13 14 13 12 8 8 11 10 13 17 15 10 9 11 12 12 18 19 17 18 18
6 6 5 4 3 4 7 9 10 6 5 16 15 10 9 8 8 8 8 9 9 9 12 15 14 11 8 8 9 11 10 14 18 16 13 11 13 12 12 12 14 18 20 18
6 5 4 4 3 3 6 10 14 10 8 9 11 11 10 10 7 8 7 8 9 11 14 11 12 12 9 7 8 7 8 12 15 19 16 13 15 12 11 14 17 17 17 15
5 5 5 3 3 3 7 10 12 9 15 12 12 10 9 11 11 8 7 10 10 12 15 13 14 11 10 8 7 8 10 15 13 13 12 13 14 14 13 14 13 17 15 15
5 5 3 4 3 3 7 15 10 10 11 10 11 10 10 11 10 10 10 10 9 10 13 12 13 11 11 11 9 10 9 14 13 15 12 12 14 12 12 12 13 13 13 14
4 4 4 3 3 4 7 7 8 9 9 11 13 12 11 10 8 8 8 8 10 11 10 9 8 8 8 8 10 11 11 12 14 17 13 12 16 13 13 12 12 12 15 12
4 4 4 4 3 3 5 6 7 10 13 12 11 9 9 9 9 9 7 7 9 8 6 6 6 7 7 8 8 8 11 12 12 15 14 20 13 10 11 13 12 11 11 12
4 4 4 4 3 3 4 5 7 10 14 10 9 9 9 8 7 8 7 6 6 5 7 10 12 12 11 10 8 9 8 11 14 16 17 15 13 13 13 13 14 12 13 12
4 4 4 4 3 3 4 5 4 7 11 11 7 9 8 11 12 10 7 6 4 6 9 12 15 16 13 14 11 8 8 9 13 15 18 20 15 13 10 10 17 11 11 12
3 4 4 3 3 2 4 5 4 7 12 6 7 10 10 8 9 11 8 8 7 7 12 13 14 15 10 16 15 14 13 13 15 16 17 15 13 11 9 15 16 10 10 11
3 3 3 3 2 2 4 5 4 5 9 7 5 5 8 8 9 13 9 10 9 10 12 13 13 14 12 13 11 12 14 15 15 14 16 18 11 11 14 11 10 10 10 10
3 3 3 3 3 3 3 5 2 3 8 8 5 4 4 5 6 8 8 8 8 8 12 11 11 13 12 12 16 9 14 12 14 14 15 11 10 11 10 10 11 11 10 10
3 3 3 3 3 3 3 4 5 6 9 8 7 6 3 2 3 3 9 6 5 6 6 10 10 12 10 14 14 12 9 8 12 12 11 11 10 10 10 10 10 10 11 11
3 3 3 3 3 3 2 6 3 4 6 9 7 2 4 2 3 3 4 5 4 5 6 8 9 11 8 11 10 11 9 9 11 12 11 11 10 10 10 10 10 10 11 12
3 3 3 3 3 2 3 4 3 3 6 9 9 5 2 2 3 4 4 5 6 8 9 10 10 8 9 9 9 11 9 11 12 14 10 11 11 10 9 11 11 11 12 13
3 3 3 3 2 2 5 8 4 3 4 8 11 4 4 3 3 4 5 5 6 7 8 9 8 6 9 12 14 10 10 9 8 11 9 10 10 9 9 11 11 11 12 13
2 2 3 3 2 4 6 8 3 1 2 7 10 9 5 4 3 4 6 6 7 7 8 9 8 8 7 14 15 10 9 9 9 8 8 10 9 11 9 9 10 11 12 13
2 2 3 2 2 3 6 3 1 1 4 6 9 11 8 5 9 9 6 8 7 7 8 8 8 8 9 12 9 9 9 9 9 9 9 9 9 10 10 10 11 13 14 14
2 3 2 3 5 6 5 1 1 1 4 9 9 11 15 5 6 7 7 6 9 7 11 9 9 11 14 9 9 9 9 9 10 9 9 10 11 12 12 13 13 15 15 16
2 4 6 9 6 1 1 4 6 6 5 6 9 8 11 7 8 10 8 8 12 14 10 8 12 14 8 7 7 8 8 9 8 11 12 12 13 14 14 14 15 15 16 17
6 8 8 3 1 4 6 9 9 8 9 8 8 8 11 6 12 10 8 12 11 15 12 13 14 13 10 10 10 9 10 10 10 11 11 11 12 14 14 15 15 16 17 18
5 5 3 3 5 7 9 10 9 10 11 9 11 9 7 9 6 10 9 12 12 14 10 14 18 11 10 10 11 11 11 11 12 12 13 13 13 14 15 16 17 18 18 20
4 5 7 8 8 11 13 13 12 14 10 9 9 9 7 8 8 12 9 12 16 11 15 14 14 11 10 11 12 12 12 12 13 13 14 15 15 14 15 17 17 19 21 23
8 9 11 11 12 13 12 12 11 10 8 8 9 11 10 10 11 10 11 10 10 12 16 15 12 11 12 12 13 14 16 16 17 17 18 19 20 21 22 23 24 25 27 28
8 8 11 13 10 7 7 8 9 9 7 8 10 10 10 10 10 9 10 12 15 15 14 12 11 12 14 15 15 17 17 18 19 20 21 23 23 22 24 25 25 25 27 27
8 8 10 9 8 8 7 8 8 8 8 9 9 11 11 11 10 11 12 14 16 14 12 12 12 14 15 16 16 17 18 18 19 20 21 21 23 23 23 24 24 26 26 27
9 10 8 9 9 8 7 7 8 7 9 10 11 14 12 11 13 12 12 16 11 12 12 12 12 15 16 17 17 18 18 19 19 20 20 22 21 20 20 22 24 22 21 24

GFSNW_con_lsi_114.txt.gz
Lid_Strength_Index
6 6 5 5 5 4 6 8 13 7 6 13 14 16 12 9 10 8 9 9 10 12 12 13 14 13 11 7 8 12 10 13 16 15 11 9 11 13 13 17 19 17 18 18
6 5 5 4 2 4 7 9 10 7 7 16 17 12 10 9 10 10 10 10 9 10 13 17 15 12 8 7 8 11 10 14 18 17 13 11 13 12 11 13 14 18 20 18
5 5 4 3 3 3 7 10 14 11 10 11 13 13 12 12 9 9 8 9 10 12 16 14 16 12 9 7 8 7 8 12 15 18 16 13 15 13 12 13 17 17 17 16
5 4 3 3 4 3 6 11 14 11 16 13 13 12 11 12 13 9 9 11 10 13 18 15 16 12 10 8 7 8 10 14 14 13 13 13 14 14 14 15 14 16 16 17
4 4 3 4 3 2 7 14 12 11 13 10 13 12 12 12 11 11 12 11 10 11 13 13 15 12 11 11 9 10 9 14 13 15 13 12 14 14 13 13 13 14 15 17
4 4 4 4 2 3 7 8 9 11 11 13 14 14 12 12 10 9 9 10 10 11 11 9 9 9 9 9 10 11 12 13 14 17 14 13 17 15 14 14 13 13 15 14
4 4 3 3 2 2 6 8 9 12 15 13 12 10 10 10 9 10 8 8 10 8 6 7 7 8 8 8 8 8 11 12 13 16 15 20 15 11 12 14 13 13 13 14
4 4 4 2 2 2 5 7 9 11 15 11 10 9 9 10 9 10 9 8 7 6 8 10 12 12 11 10 8 9 9 11 15 17 17 15 15 14 15 14 15 12 14 13
3 3 3 2 2 3 6 6 6 10 12 12 8 10 10 12 12 11 9 7 7 7 9 13 15 16 13 14 12 8 9 10 13 15 18 20 16 14 11 11 17 12 13 14
3 4 3 2 2 2 5 6 6 9 13 9 9 11 11 9 11 12 10 10 9 8 13 14 15 15 11 15 15 14 13 13 16 15 17 16 14 12 10 16 17 11 12 13
3 3 3 2 3 2 5 6 5 7 12 10 7 6 9 9 10 14 11 12 10 11 14 14 14 14 12 13 12 13 14 15 17 15 18 19 12 12 14 12 11 11 11 11
3 3 2 2 2 2 3 6 4 5 9 10 6 6 5 6 7 9 9 8 9 9 13 11 12 13 12 13 16 9 14 13 15 14 15 12 11 11 10 11 12 12 12 10
3 3 3 3 2 2 2 5 6 8 11 10 9 7 4 3 4 5 10 8 7 8 7 9 10 12 11 14 13 12 9 8 13 13 12 11 11 10 10 11 11 12 12 12
2 3 3 2 2 2 3 7 6 7 7 13 8 3 5 3 3 4 5 6 6 7 8 10 9 11 8 11 10 13 11 10 12 12 11 11 10 10 10 11 11 12 12 13
2 3 3 3 3 2 4 6 6 5 8 10 10 6 3 3 4 5 5 6 8 9 10 11 11 9 9 10 10 13 11 12 12 14 10 11 11 10 10 12 13 13 13 14
3 3 3 3 3 3 7 11 7 5 6 8 13 7 5 4 4 5 6 6 7 8 9 10 9 6 10 13 13 10 9 9 9 10 9 10 10 10 11 12 13 13 13 13
3 3 3 4 3 6 8 10 4 3 4 8 11 9 5 4 4 5 7 7 8 9 9 10 9 9 8 16 15 10 9 9 9 9 9 11 10 12 10 11 12 12 14 14
3 3 3 3 2 4 7 3 1 2 6 6 11 12 10 6 10 10 8 9 9 9 10 9 10 9 10 14 10 9 9 8 9 9 9 9 11 11 11 11 13 14 15 15
3 3 3 5 6 9 7 1 1 2 5 9 9 14 16 7 7 9 8 8 11 9 11 10 10 13 12 10 9 10 9 10 10 9 9 11 13 13 13 14 14 15 16 16
3 5 7 9 6 2 2 4 6 7 6 6 9 10 11 8 10 11 9 10 13 14 11 9 13 12 9 7 8 8 8 9 9 11 13 13 14 14 15 15 15 16 17 17
7 8 8 4 2 4 6 9 9 9 10 8 8 10 12 8 13 13 10 13 13 15 12 13 15 13 11 10 10 10 10 10 11 11 11 12 13 14 15 16 16 17 17 18
6 5 3 3 6 8 10 12 10 11 12 11 12 10 8 10 7 11 10 13 14 15 11 14 19 14 11 11 12 12 12 12 13 12 13 13 13 14 16 16 17 18 18 21
5 6 8 8 9 12 13 14 12 16 12 11 11 12 7 8 10 14 11 13 17 12 13 16 14 12 11 12 12 13 13 13 14 15 14 15 15 15 16 17 18 19 21 24
11 11 13 13 13 13 14 12 12 10 11 10 11 12 8 9 12 12 17 14 11 13 16 16 16 12 12 12 13 14 16 16 16 17 18 18 19 21 22 23 24 25 28 30
11 10 16 13 12 11 9 8 9 11 9 9 11 11 11 13 11 10 12 12 14 15 17 16 13 13 14 15 15 17 18 19 20 21 22 23 23 23 26 28 27 26 29 30
10 10 13 9 9 9 8 8 8 10 10 11 10 12 14 11 12 12 13 13 17 16 15 17 14 14 15 16 17 18 19 20 21 21 21 22 23 23 23 26 26 29 27 28
10 11 9 9 10 9 8 7 8 7 9 14 12 16 14 12 13 12 10 16 16 11 13 16 15 16 18 18 18 19 19 20 20 21 21 22 22 23 21 22 24 23 22 26

GFSNW_con_lsi_117.txt.gz
Lid_Strength_Index
6 6 6 6 6 6 9 10 14 8 7 14 15 16 12 9 10 10 11 11 11 14 13 13 13 13 11 8 8 12 10 13 16 14 10 9 11 13 12 17 17 17 18 18
6 6 6 6 5 6 9 11 11 8 7 16 17 13 11 10 11 11 12 12 11 11 16 17 15 13 8 8 9 11 10 14 17 16 13 10 13 12 12 13 14 18 19 18
6 6 6 5 5 5 8 10 15 11 9 12 13 13 13 13 10 11 10 11 11 13 17 13 16 13 9 8 8 7 9 13 15 18 16 13 15 13 12 13 17 17 17 17
6 5 5 4 5 4 7 12 14 11 16 14 13 12 12 14 14 11 11 13 12 14 19 16 16 13 11 9 8 9 10 15 13 13 13 13 14 14 13 14 14 17 17 18
5 5 4 4 4 4 8 12 11 12 12 11 12 12 13 14 13 13 13 13 11 12 13 13 15 13 11 12 10 11 10 14 13 15 13 15 16 15 14 14 15 15 16 18
4 4 4 4 3 5 8 8 8 11 12 13 14 14 13 13 11 10 9 11 12 12 11 10 9 9 10 10 11 12 12 13 14 17 13 14 18 16 15 15 14 13 17 16
4 4 4 3 3 4 7 7 8 12 14 13 13 11 11 11 11 11 10 10 11 9 7 7 8 9 9 9 9 9 12 12 13 16 15 21 16 13 13 15 14 14 15 15
3 3 3 3 3 4 6 6 8 11 14 12 11 11 11 11 10 11 10 9 8 8 8 11 12 12 12 10 9 10 9 12 15 17 17 16 15 14 15 15 16 13 14 14
3 3 3 3 3 4 5 6 6 9 12 12 9 11 11 13 13 12 10 8 8 8 11 13 15 17 14 15 12 9 10 11 13 15 18 20 16 14 11 12 18 12 13 14
2 3 3 3 3 3 4 6 6 8 12 10 9 12 12 10 12 13 12 10 10 9 14 14 15 15 11 16 15 14 14 14 16 15 17 16 15 13 9 16 17 11 13 13
2 2 3 3 3 3 4 6 5 7 11 10 8 7 10 10 11 15 12 13 11 13 14 14 14 15 13 13 12 13 15 16 17 16 18 20 13 12 14 12 11 11 11 12
2 2 2 2 3 3 3 7 5 5 9 10 8 7 6 7 8 10 9 9 10 11 14 11 13 14 13 13 17 10 15 14 16 15 16 13 12 12 11 11 13 14 12 12
2 2 3 3 3 3 3 6 7 7 11 10 9 8 6 5 6 6 10 10 8 9 9 10 11 13 11 15 14 12 11 9 14 14 12 12 11 11 12 12 13 13 12 13
2 2 2 2 3 2 4 7 6 7 10 11 8 5 6 4 5 5 6 7 7 8 9 11 11 12 9 12 11 13 12 11 14 13 12 11 11 11 12 12 13 13 13 14
2 3 3 2 2 3 5 5 6 6 9 13 11 6 4 4 5 5 6 7 9 10 11 13 12 10 10 10 10 13 11 12 13 15 11 12 12 11 12 13 14 14 14 15
2 2 3 3 3 4 7 10 7 5 7 11 14 8 6 4 5 6 7 7 9 10 10 11 10 7 10 13 13 10 9 9 8 10 9 10 10 12 12 14 14 14 14 15
3 3 3 3 3 6 8 9 4 4 6 10 15 10 5 4 5 6 8 8 9 10 10 10 10 9 10 16 14 10 9 9 9 9 9 11 10 13 13 13 13 14 15 15
2 3 3 3 3 5 7 3 2 3 7 8 13 12 10 7 10 11 9 10 10 10 11 10 10 10 11 14 10 9 8 8 9 9 9 11 11 12 13 13 14 15 16 16
3 3 3 6 7 10 6 2 2 4 7 10 14 14 16 8 8 9 10 9 15 10 12 11 11 13 15 10 10 10 9 9 10 10 11 11 13 14 14 14 15 16 16 16
2 5 8 11 8 3 2 5 7 8 6 7 10 11 10 9 11 12 12 12 13 14 12 10 14 13 10 9 8 8 9 9 10 13 14 13 14 14 14 15 15 16 17 17
7 9 9 6 2 5 7 9 10 9 10 9 9 10 13 9 13 13 12 14 13 14 13 14 16 13 13 10 10 10 9 9 10 11 12 12 13 14 15 16 16 16 17 19
7 6 4 4 6 8 10 12 10 10 12 12 11 11 9 11 8 11 11 13 14 16 12 13 17 16 13 12 12 12 12 11 11 12 13 13 13 14 15 16 17 18 19 21
4 6 8 9 10 13 15 17 12 13 13 13 12 13 8 10 11 14 11 17 18 13 12 17 15 14 12 12 12 12 13 13 14 14 14 14 15 15 16 18 19 19 21 24
11 13 13 13 14 15 14 13 13 12 13 12 11 9 10 11 12 14 17 15 12 15 17 16 16 13 13 13 12 14 15 16 15 16 17 18 18 21 22 23 24 25 26 31
11 10 14 13 13 12 9 9 9 9 11 11 12 12 12 15 13 11 15 16 16 15 17 16 17 13 13 14 15 17 18 19 20 20 21 23 23 23 27 29 29 27 30 31
10 12 14 11 10 10 9 9 8 8 11 11 10 13 16 16 14 13 14 15 18 17 17 17 15 14 15 16 17 18 18 19 21 22 22 23 24 23 23 27 27 30 29 30
11 13 14 15 11 10 9 7 7 8 11 15 12 16 15 12 15 16 13 17 16 16 11 19 17 15 17 19 19 19 20 21 22 23 22 23 22 22 21 23 26 26 24 28

GFSNW_con_lsi_120.txt.gz
Lid_Strength_Index
7 7 7 6 6 6 8 11 15 10 9 15 16 17 14 10 11 10 11 12 13 16 15 16 16 14 10 8 9 12 9 13 16 14 9 9 11 13 13 17 17 17 18 19
6 7 6 6 6 6 10 13 13 10 10 16 18 14 12 11 11 12 12 13 12 13 17 19 18 13 9 8 9 11 10 14 18 16 13 11 13 12 12 13 14 17 19 19
5 5 6 6 5 6 9 13 17 13 11 13 14 14 13 13 10 11 11 12 12 14 19 15 19 14 10 9 9 7 8 12 15 18 16 13 15 13 12 13 17 18 18 18
5 5 5 5 5 6 10 14 15 12 16 14 13 12 12 14 14 12 12 13 13 15 19 17 16 14 12 9 8 9 10 15 13 13 14 14 14 14 13 14 14 18 18 19
5 5 5 5 5 6 11 13 13 13 13 12 12 12 13 14 14 13 14 14 13 12 14 14 15 14 13 12 10 11 9 14 13 15 13 15 17 16 14 14 15 16 17 19
5 5 5 5 5 6 10 10 10 11 12 13 13 13 12 13 12 11 11 12 13 13 12 11 10 10 10 10 11 12 12 13 14 17 13 14 18 16 16 16 15 15 18 17
4 5 5 4 4 5 8 9 10 12 14 13 12 11 11 12 12 12 11 11 12 10 8 8 9 10 10 10 10 10 12 13 13 16 15 21 16 12 13 15 15 15 16 16
5 4 4 4 4 4 7 8 9 11 13 11 11 11 11 12 11 12 11 10 10 9 10 11 12 12 12 11 10 11 10 12 15 17 18 16 15 15 15 15 17 14 15 15
4 3 3 3 3 4 7 7 8 9 11 12 9 12 11 13 14 13 11 9 9 9 12 13 15 17 14 14 12 10 10 11 14 15 18 20 17 15 12 12 18 14 14 15
3 3 3 3 3 3 6 7 7 8 11 10 10 12 12 11 12 13 13 11 11 11 15 14 15 15 12 15 15 14 14 14 16 15 17 17 15 13 11 17 18 13 14 16
3 3 3 2 3 3 5 7 7 8 11 10 8 8 11 11 12 15 13 14 13 14 15 14 14 14 13 14 12 13 15 16 17 15 18 20 13 12 15 13 12 12 14 14
3 2 2 2 2 3 4 8 6 7 9 10 7 7 7 8 9 11 11 12 11 11 15 14 13 14 13 13 17 11 15 14 16 16 17 13 13 13 12 13 14 13 13 14
2 2 2 2 2 2 4 8 8 9 10 9 8 8 7 6 7 7 11 11 9 10 10 11 14 13 12 14 14 12 11 10 14 14 13 13 13 13 13 13 13 13 13 14
1 1 1 1 2 3 5 8 8 8 9 11 9 5 7 6 6 7 7 8 8 9 10 12 12 13 10 12 12 13 12 11 14 13 12 12 12 13 12 13 12 13 13 14
2 1 1 2 2 3 5 7 7 7 8 12 10 7 5 5 6 6 7 8 10 11 11 13 13 11 10 10 11 12 11 12 14 17 11 12 12 12 12 13 14 14 15 16
1 1 1 2 3 5 8 11 7 6 7 10 13 9 7 5 6 7 8 8 10 10 11 12 11 9 11 15 15 10 9 9 9 11 10 11 11 12 13 14 14 14 15 16
2 2 2 3 3 6 9 10 6 4 7 11 13 9 6 5 6 7 9 9 10 10 11 11 11 10 10 16 15 10 9 8 9 9 10 12 12 14 13 13 14 14 15 15
2 2 2 3 4 5 6 5 3 5 8 9 13 11 8 6 10 12 10 10 10 10 11 11 11 11 12 15 11 9 8 8 9 9 9 11 12 13 14 14 15 15 16 16
2 2 3 6 8 9 6 2 3 5 8 13 15 12 14 9 10 10 11 10 15 11 14 11 11 13 15 12 11 10 9 9 10 11 11 13 13 14 14 14 15 16 16 16
3 6 9 14 9 4 3 6 9 10 7 9 13 12 14 11 12 13 13 13 14 15 13 11 14 14 11 10 9 8 9 9 10 13 14 13 14 14 14 15 15 15 16 17
7 10 9 7 3 5 7 11 13 12 12 10 11 11 13 10 13 14 13 14 14 15 13 13 16 13 13 11 10 8 9 10 10 11 11 12 12 13 14 15 15 16 17 19
7 5 4 4 7 9 12 12 10 11 13 12 12 12 10 12 10 12 12 14 15 16 13 13 16 15 13 12 10 9 10 10 11 11 12 13 13 14 14 16 17 18 19 22
4 6 8 11 10 16 17 16 13 13 13 13 12 14 9 12 11 15 12 18 18 14 13 18 15 14 13 12 12 12 12 12 12 13 13 13 14 15 16 17 18 20 21 24
11 13 16 17 15 15 15 13 14 13 13 12 13 13 12 13 13 17 18 16 14 21 21 17 16 14 13 13 12 13 14 15 15 15 16 17 18 20 22 23 24 24 26 32
12 12 15 13 14 12 10 11 9 9 12 12 13 13 12 16 16 15 16 18 20 17 18 17 16 15 13 14 15 17 17 18 18 19 20 21 23 23 27 29 29 27 29 32
12 12 15 12 11 10 10 9 9 10 13 12 11 14 16 16 15 16 18 16 19 17 17 16 16 15 15 16 17 18 19 19 20 21 21 23 23 23 24 28 29 31 30 31
12 15 11 11 12 12 9 8 8 10 10 12 13 17 16 13 16 17 15 18 17 17 16 14 18 17 17 18 18 20 20 21 21 23 22 24 24 23 22 23 27 26 26 30